Darstellungsparameter: Aktuell verwendete Einstellungen:
Skalierung der Graphiken ... ?
xyx+y,   Skalierungsfaktor:      Skalierung: Modus: x, Faktor: 1
Darstellungszeitraum ... ?
Vom - - bis: - -   Zeitraum: 13.12.2018 - 12.06.2019
Min/Max/Avg-Anzeige ... ?
Zeige MMA aktuell
Zeige MMA Monat
Zeige MMA alles
Zeige --A aktuell
Zeige --A Monat
Zeige --A alles
Keine MMA-Anzeige
MMA:
Average (ber die Originaldaten)
MMA-Basis: 11.05.2019 - 13.06.2019
Quicknavigation für Darstellung... ?
Tage:      1T, 2T, 3T, 5T -1T -2T -3T -5T +1T +2T +3T +5T
Wochen: 1W, 2W, 3W -1W -2W -3W +1W +2W +3W
Monate: 1M, 3M, 6M -1M -3M -6M +1M +3M +6M
Jahre:    1J, 3J, 5J, 10J -1J -3J -5J -10J +1J +3J +5J +10J
Nutze für die Darstellung ... ?
Originaldaten oder ...
Mittelwerte Minima Maxima auf...
Stundenbasis Tagesbasis Wochenbasis
Monatsbasis Jahresbasis      Datenbasis: Mittelwerte auf Stundenbasis
Darstellen als:
Statistik (Auto) Statistik J:M      Darstellung:
Zur Graphik,    zurück zur Übersicht aller Sensoren.
 
Tabellarische Datenbersicht: ?
 
Sensor: Nr:Datum:Temp:Abs-Feuchte:Windchill:Wind:
Aussen-T/F 1 13-12-2018 00:00:00 2.775 C 5.5 g/m*3 2.78 C 0 km/h
2 13-12-2018 01:00:00 2.63333 C 5.44 g/m*3 2.63 C 0 km/h
3 13-12-2018 02:00:00 2.4 C 5.34 g/m*3 2.4 C 0.8 km/h
4 13-12-2018 03:00:00 1.55833 C 5.03 g/m*3 1.56 C 0.8 km/h
5 13-12-2018 04:00:00 0.55833 C 4.74 g/m*3 0.56 C 2.26667 km/h
6 13-12-2018 05:00:00 0.35833 C 4.72 g/m*3 0.36 C 0.4 km/h
7 13-12-2018 06:00:00 0.33333 C 4.72 g/m*3 0.33 C 0.93333 km/h
8 13-12-2018 07:00:00 0.4 C 4.71 g/m*3 0.4 C 2.26667 km/h
9 13-12-2018 08:00:00 -0.15 C 4.5 g/m*3 -0.15 C 1.74167 km/h
10 13-12-2018 09:00:00 -0.04167 C 4.49 g/m*3 -0.04 C 2.95 km/h
11 13-12-2018 10:00:00 0.71667 C 4.55 g/m*3 -1.27 C 6.175 km/h
12 13-12-2018 11:00:00 1.48333 C 4.52 g/m*3 -0.11 C 5.48333 km/h
13 13-12-2018 12:00:00 1.73333 C 4.41 g/m*3 -0.87 C 8.58333 km/h
14 13-12-2018 13:00:00 1.76667 C 4.47 g/m*3 1.77 C 3.46667 km/h
15 13-12-2018 14:00:00 2.21667 C 4.54 g/m*3 0.77 C 5.36667 km/h
16 13-12-2018 15:00:00 2.45 C 4.5 g/m*3 0.72 C 6.19167 km/h
17 13-12-2018 16:00:00 1.83333 C 4.55 g/m*3 1.83 C 0.66667 km/h
18 13-12-2018 17:00:00 1.36667 C 4.55 g/m*3 1.37 C 0.13333 km/h
19 13-12-2018 18:00:00 1.475 C 4.47 g/m*3 1.48 C 2.53333 km/h
20 13-12-2018 19:00:00 1.65833 C 4.41 g/m*3 1.66 C 3.49167 km/h
21 13-12-2018 20:00:00 1.54167 C 4.35 g/m*3 1.54 C 1.06667 km/h
22 13-12-2018 21:00:00 1.3 C 4.42 g/m*3 1.3 C 0.4 km/h
23 13-12-2018 22:00:00 1.15 C 4.39 g/m*3 1.15 C 0 km/h
24 13-12-2018 23:00:00 1.16667 C 4.34 g/m*3 1.17 C 0.66667 km/h
25 14-12-2018 00:00:00 1.25 C 4.29 g/m*3 1.25 C 1.34167 km/h
Sensor: Nr:Datum:Temp:Abs-Feuchte:Windchill:Wind:
Aussen-T/F 26 14-12-2018 01:00:00 1.14167 C 4.31 g/m*3 1.14 C 0 km/h
27 14-12-2018 02:00:00 1.15833 C 4.2 g/m*3 1.16 C 1.2 km/h
28 14-12-2018 03:00:00 1.29167 C 4.06 g/m*3 1.29 C 4.95 km/h
29 14-12-2018 04:00:00 1.33333 C 4.01 g/m*3 1.33 C 2.4 km/h
30 14-12-2018 05:00:00 1.19167 C 4.06 g/m*3 1.19 C 1.475 km/h
31 14-12-2018 06:00:00 1.2 C 3.93 g/m*3 -0.32 C 5.21667 km/h
32 14-12-2018 07:00:00 1.075 C 3.96 g/m*3 1.08 C 2.15 km/h
33 14-12-2018 08:00:00 0.775 C 4.04 g/m*3 0.78 C 0.13333 km/h
34 14-12-2018 09:00:00 0.89167 C 4.14 g/m*3 0.89 C 0.66667 km/h
35 14-12-2018 10:00:00 1.33333 C 4.12 g/m*3 1.33 C 1.86667 km/h
36 14-12-2018 11:00:00 1.55833 C 4.12 g/m*3 0.14 C 5.09167 km/h
37 14-12-2018 12:00:00 1.65833 C 4.12 g/m*3 -0.73 C 7.8 km/h
38 14-12-2018 13:00:00 1.7 C 4.09 g/m*3 -0.46 C 7.11667 km/h
39 14-12-2018 14:00:00 1.70833 C 4.09 g/m*3 1.71 C 2.94167 km/h
40 14-12-2018 15:00:00 1.61667 C 4.08 g/m*3 1.62 C 1.73333 km/h
41 14-12-2018 16:00:00 1.375 C 4.09 g/m*3 1.38 C 1.475 km/h
42 14-12-2018 17:00:00 0.98333 C 4.14 g/m*3 0.98 C 0.13333 km/h
43 14-12-2018 18:00:00 1.025 C 4.07 g/m*3 1.02 C 0.8 km/h
44 14-12-2018 19:00:00 0.85833 C 4.02 g/m*3 0.86 C 0.26667 km/h
45 14-12-2018 20:00:00 0.80833 C 4.05 g/m*3 0.81 C 0 km/h
46 14-12-2018 21:00:00 0.76667 C 3.94 g/m*3 0.77 C 0.4 km/h
47 14-12-2018 22:00:00 0.60833 C 3.81 g/m*3 0.61 C 0.93333 km/h
48 14-12-2018 23:00:00 0.41667 C 3.79 g/m*3 0.42 C 0.4 km/h
49 15-12-2018 00:00:00 0.16667 C 3.86 g/m*3 0.17 C 0 km/h
50 15-12-2018 01:00:00 0.1 C 3.91 g/m*3 0.1 C 0 km/h
Sensor: Nr:Datum:Temp:Abs-Feuchte:Windchill:Wind:
Aussen-T/F 51 15-12-2018 02:00:00 0.14167 C 3.95 g/m*3 0.14 C 0 km/h
52 15-12-2018 03:00:00 0.16667 C 3.97 g/m*3 0.17 C 0.26667 km/h
53 15-12-2018 04:00:00 0.2 C 3.98 g/m*3 0.2 C 0.13333 km/h
54 15-12-2018 05:00:00 0.225 C 4.02 g/m*3 0.23 C 0 km/h
55 15-12-2018 06:00:00 0.2 C 4.05 g/m*3 0.2 C 0 km/h
56 15-12-2018 07:00:00 0.2 C 4.07 g/m*3 0.2 C 0 km/h
57 15-12-2018 08:00:00 0.275 C 4.12 g/m*3 0.28 C 0 km/h
58 15-12-2018 09:00:00 0.425 C 4.17 g/m*3 0.43 C 0 km/h
59 15-12-2018 10:00:00 0.84167 C 4.19 g/m*3 0.84 C 0.13333 km/h
60 15-12-2018 11:00:00 1.30833 C 4.09 g/m*3 1.31 C 0.8 km/h
61 15-12-2018 12:00:00 1.68333 C 4.06 g/m*3 1.68 C 2.80833 km/h
62 15-12-2018 13:00:00 1.9 C 4.04 g/m*3 0 C 6.425 km/h
63 15-12-2018 14:00:00 1.81667 C 3.99 g/m*3 0.11 C 5.88333 km/h
64 15-12-2018 15:00:00 1.64167 C 3.96 g/m*3 1.64 C 3.60833 km/h
65 15-12-2018 16:00:00 1.35 C 3.94 g/m*3 1.35 C 4.81667 km/h
66 15-12-2018 17:00:00 1.175 C 3.92 g/m*3 -1.08 C 7.11667 km/h
67 15-12-2018 18:00:00 1.16667 C 3.93 g/m*3 -0.59 C 5.75833 km/h
68 15-12-2018 19:00:00 0.83333 C 3.89 g/m*3 -1.47 C 7.09167 km/h
69 15-12-2018 20:00:00 0.025 C 3.85 g/m*3 -1.6 C 5.08333 km/h
70 15-12-2018 21:00:00 -0.43333 C 3.81 g/m*3 -0.43 C 4.80833 km/h
71 15-12-2018 22:00:00 -0.58182 C 3.8 g/m*3 -0.58 C 4.22727 km/h
72 15-12-2018 23:00:00 0.11667 C 3.83 g/m*3 0.12 C 4.675 km/h
73 16-12-2018 00:00:00 0.4 C 3.83 g/m*3 -1.93 C 6.98333 km/h
74 16-12-2018 01:00:00 0.43333 C 3.81 g/m*3 -1.49 C 5.9 km/h
75 16-12-2018 02:00:00 0.39167 C 3.82 g/m*3 -1.79 C 6.575 km/h
Sensor: Nr:Datum:Temp:Abs-Feuchte:Windchill:Wind:
Aussen-T/F 76 16-12-2018 03:00:00 0.125 C 3.89 g/m*3 -1.94 C 6.15833 km/h
77 16-12-2018 04:00:00 -0.60833 C 4.06 g/m*3 -3.15 C 7.1 km/h
78 16-12-2018 05:00:00 -0.91667 C 4.13 g/m*3 -0.92 C 3.20833 km/h
79 16-12-2018 06:00:00 -1.00833 C 4.16 g/m*3 -1.01 C 0.13333 km/h
80 16-12-2018 07:00:00 -1.05 C 4.18 g/m*3 -1.05 C 0.26667 km/h
81 16-12-2018 08:00:00 -0.93333 C 4.22 g/m*3 -0.93 C 0.13333 km/h
82 16-12-2018 09:00:00 -0.71667 C 4.26 g/m*3 -0.72 C 0 km/h
83 16-12-2018 10:00:00 -0.35833 C 4.32 g/m*3 -0.36 C 0.26667 km/h
84 16-12-2018 11:00:00 0.05833 C 4.45 g/m*3 0.06 C 0.53333 km/h
85 16-12-2018 12:00:00 0.85 C 4.7 g/m*3 0.85 C 1.2 km/h
86 16-12-2018 13:00:00 1.35 C 4.89 g/m*3 1.35 C 1.2 km/h
87 16-12-2018 14:00:00 1.525 C 4.96 g/m*3 1.53 C 0 km/h
88 16-12-2018 15:00:00 1.64167 C 5.05 g/m*3 1.64 C 0.13333 km/h
89 16-12-2018 16:00:00 1.59167 C 5.09 g/m*3 1.59 C 1.2 km/h
90 16-12-2018 17:00:00 1.89167 C 5.24 g/m*3 1.89 C 2 km/h
91 16-12-2018 18:00:00 1.75 C 5.18 g/m*3 1.75 C 1.46667 km/h
92 16-12-2018 19:00:00 2.24167 C 5.39 g/m*3 2.24 C 1.6 km/h
93 16-12-2018 20:00:00 2.43333 C 5.47 g/m*3 2.43 C 0.4 km/h
94 16-12-2018 21:00:00 2.39167 C 5.48 g/m*3 2.39 C 0.53333 km/h
95 16-12-2018 22:00:00 2.575 C 5.55 g/m*3 2.58 C 0 km/h
96 16-12-2018 23:00:00 2.6 C 5.56 g/m*3 2.6 C 0 km/h
97 17-12-2018 00:00:00 2.55 C 5.54 g/m*3 2.55 C 0.13333 km/h
98 17-12-2018 01:00:00 2.3 C 5.44 g/m*3 2.3 C 0 km/h
99 17-12-2018 02:00:00 2.625 C 5.57 g/m*3 2.63 C 0 km/h
100 17-12-2018 03:00:00 2.96667 C 5.69 g/m*3 2.97 C 0 km/h
Sensor: Nr:Datum:Temp:Abs-Feuchte:Windchill:Wind:
Aussen-T/F 101 17-12-2018 04:00:00 3.15833 C 5.79 g/m*3 3.16 C 0 km/h
102 17-12-2018 05:00:00 2.23333 C 5.42 g/m*3 2.23 C 0.4 km/h
103 17-12-2018 06:00:00 1.83333 C 5.27 g/m*3 1.83 C 2.13333 km/h
104 17-12-2018 07:00:00 2.15 C 5.41 g/m*3 2.15 C 0 km/h
105 17-12-2018 08:00:00 2.675 C 5.64 g/m*3 2.68 C 0 km/h
106 17-12-2018 09:00:00 3.08333 C 5.8 g/m*3 3.08 C 0.26667 km/h
107 17-12-2018 10:00:00 3.60833 C 6.01 g/m*3 3.61 C 0.66667 km/h
108 17-12-2018 11:00:00 4.80833 C 6.51 g/m*3 3.23 C 6.85 km/h
109 17-12-2018 12:00:00 5.76667 C 6.89 g/m*3 5.77 C 3.21667 km/h
110 17-12-2018 13:00:00 6.33333 C 6.97 g/m*3 5.29 C 5.9 km/h
111 17-12-2018 14:00:00 6.6 C 6.93 g/m*3 4.61 C 9.81667 km/h
112 17-12-2018 15:00:00 6.575 C 6.82 g/m*3 4.66 C 9.425 km/h
113 17-12-2018 16:00:00 6.59167 C 6.82 g/m*3 5.31 C 6.83333 km/h
114 17-12-2018 17:00:00 5.60833 C 6.45 g/m*3 4.69 C 5.225 km/h
115 17-12-2018 18:00:00 5.10833 C 6.34 g/m*3 3.93 C 5.76667 km/h
116 17-12-2018 19:00:00 4.48333 C 6.13 g/m*3 3.12 C 6.03333 km/h
117 17-12-2018 20:00:00 4.39167 C 6.17 g/m*3 4.39 C 4.95 km/h
118 17-12-2018 21:00:00 4.28333 C 6.16 g/m*3 4.28 C 4.94167 km/h
119 17-12-2018 22:00:00 5.425 C 6.67 g/m*3 3.45 C 8.73333 km/h
120 17-12-2018 23:00:00 5.575 C 6.59 g/m*3 3.22 C 10.60833 km/h
121 18-12-2018 00:00:00 5.11667 C 6.34 g/m*3 3.85 C 6.025 km/h
122 18-12-2018 01:00:00 4.41667 C 6.14 g/m*3 4.42 C 3.88333 km/h
123 18-12-2018 02:00:00 5.075 C 6.44 g/m*3 4.04 C 5.35 km/h
124 18-12-2018 03:00:00 5.90833 C 6.67 g/m*3 5.91 C 4.53333 km/h
125 18-12-2018 04:00:00 6.15833 C 6.65 g/m*3 6.16 C 4.825 km/h
Sensor: Nr:Datum:Temp:Abs-Feuchte:Windchill:Wind:
Aussen-T/F 126 18-12-2018 05:00:00 6.23333 C 6.6 g/m*3 6.23 C 1.33333 km/h
127 18-12-2018 06:00:00 5.925 C 6.55 g/m*3 5.93 C 1.33333 km/h
128 18-12-2018 07:00:00 5.85 C 6.52 g/m*3 5.85 C 0.8 km/h
129 18-12-2018 08:00:00 6.16667 C 6.48 g/m*3 6.17 C 4.95 km/h
130 18-12-2018 09:00:00 6.46667 C 6.35 g/m*3 4.65 C 8.88333 km/h
131 18-12-2018 10:00:00 6 C 6.27 g/m*3 3.83 C 10.1 km/h
132 18-12-2018 11:00:00 5.33333 C 6.16 g/m*3 2.87 C 10.89167 km/h
133 18-12-2018 12:00:00 5.63333 C 6.27 g/m*3 3.73 C 8.59167 km/h
134 18-12-2018 13:00:00 6.43333 C 6.42 g/m*3 6.43 C 2.54167 km/h
135 18-12-2018 14:00:00 6.51667 C 6.48 g/m*3 6.52 C 1.06667 km/h
136 18-12-2018 15:00:00 5.75 C 6.32 g/m*3 5.75 C 0.13333 km/h
137 18-12-2018 16:00:00 4.28333 C 5.88 g/m*3 4.28 C 2 km/h
138 18-12-2018 17:00:00 3.40833 C 5.7 g/m*3 3.41 C 0.53333 km/h
139 18-12-2018 18:00:00 2.825 C 5.52 g/m*3 2.83 C 1.2 km/h
140 18-12-2018 19:00:00 2.54167 C 5.48 g/m*3 2.54 C 1.73333 km/h
141 18-12-2018 20:00:00 2.28333 C 5.39 g/m*3 2.28 C 1.60833 km/h
142 18-12-2018 21:00:00 3.70833 C 5.93 g/m*3 1.56 C 8.20833 km/h
143 18-12-2018 22:00:00 4.95833 C 5.94 g/m*3 2.5 C 10.49167 km/h
144 18-12-2018 23:00:00 4.98333 C 5.69 g/m*3 2.56 C 10.35 km/h
145 19-12-2018 00:00:00 4.675 C 5.61 g/m*3 2.67 C 8.325 km/h
146 19-12-2018 01:00:00 4.30833 C 5.54 g/m*3 4.31 C 4.28333 km/h
147 19-12-2018 02:00:00 4.15833 C 5.54 g/m*3 4.16 C 2.80833 km/h
148 19-12-2018 03:00:00 3.91667 C 5.57 g/m*3 3.92 C 0.8 km/h
149 19-12-2018 04:00:00 4.26667 C 5.72 g/m*3 4.27 C 3.20833 km/h
150 19-12-2018 05:00:00 4.96667 C 6.03 g/m*3 4.97 C 1.33333 km/h
Sensor: Nr:Datum:Temp:Abs-Feuchte:Windchill:Wind:
Aussen-T/F 151 19-12-2018 06:00:00 5.04167 C 6.21 g/m*3 5.04 C 4.80833 km/h
152 19-12-2018 07:00:00 5.98333 C 6.42 g/m*3 5.98 C 4.14167 km/h
153 19-12-2018 08:00:00 6.35833 C 6.7 g/m*3 6.36 C 2.53333 km/h
154 19-12-2018 09:00:00 6.85 C 7 g/m*3 6.85 C 1.46667 km/h
155 19-12-2018 10:00:00 7.13333 C 7.15 g/m*3 7.13 C 0 km/h
156 19-12-2018 11:00:00 7.65 C 7.38 g/m*3 7.65 C 0.26667 km/h
157 19-12-2018 12:00:00 8.80833 C 7.76 g/m*3 8.81 C 1.86667 km/h
158 19-12-2018 13:00:00 9.3 C 7.61 g/m*3 9.3 C 3.875 km/h
159 19-12-2018 14:00:00 9.24545 C 7.5 g/m*3 9.25 C 3.79091 km/h
160 19-12-2018 15:00:00 8.98333 C 7.43 g/m*3 8.98 C 4.275 km/h
161 19-12-2018 16:00:00 8.075 C 7.17 g/m*3 7.25 C 6.01667 km/h
162 19-12-2018 17:00:00 7.4 C 7.05 g/m*3 7.4 C 2.93333 km/h
163 19-12-2018 18:00:00 7.35 C 7.13 g/m*3 7.35 C 3.2 km/h
164 19-12-2018 19:00:00 6.86667 C 6.87 g/m*3 6.87 C 1.2 km/h
165 19-12-2018 20:00:00 6.33333 C 6.84 g/m*3 6.33 C 1.73333 km/h
166 19-12-2018 21:00:00 6.575 C 6.93 g/m*3 6.58 C 1.86667 km/h
167 19-12-2018 22:00:00 6.65 C 7.04 g/m*3 6.65 C 0.13333 km/h
168 19-12-2018 23:00:00 6.40833 C 6.98 g/m*3 6.41 C 0.53333 km/h
169 20-12-2018 00:00:00 6.35833 C 6.98 g/m*3 6.36 C 0.4 km/h
170 20-12-2018 01:00:00 6.26667 C 6.96 g/m*3 6.27 C 0 km/h
171 20-12-2018 02:00:00 6.35 C 7.04 g/m*3 6.35 C 0.26667 km/h
172 20-12-2018 03:00:00 6.6 C 7.12 g/m*3 6.6 C 0.93333 km/h
173 20-12-2018 04:00:00 6.725 C 7.08 g/m*3 6.73 C 0.8 km/h
174 20-12-2018 05:00:00 6.80833 C 7.12 g/m*3 6.81 C 0 km/h
175 20-12-2018 06:00:00 7.17273 C 7.24 g/m*3 7.17 C 1.74545 km/h
Sensor: Nr:Datum:Temp:Abs-Feuchte:Windchill:Wind:
Aussen-T/F 176 20-12-2018 07:00:00 7.18333 C 7.24 g/m*3 5.92 C 7.10833 km/h
177 20-12-2018 08:00:00 6.625 C 7.03 g/m*3 6.63 C 4.01667 km/h
178 20-12-2018 09:00:00 7.28333 C 7.22 g/m*3 7.28 C 4.00833 km/h
179 20-12-2018 10:00:00 7.91667 C 7.34 g/m*3 7.36 C 5.1 km/h
180 20-12-2018 11:00:00 8.1 C 7.37 g/m*3 6.06 C 11.7 km/h
181 20-12-2018 12:00:00 8.43333 C 7.42 g/m*3 6.84 C 9.56667 km/h
182 20-12-2018 13:00:00 8.95 C 7.51 g/m*3 7.15 C 11.3 km/h
183 20-12-2018 14:00:00 8.79091 C 7.4 g/m*3 7.14 C 10.26364 km/h
184 20-12-2018 15:00:00 8.475 C 7.31 g/m*3 6.9 C 9.54167 km/h
185 20-12-2018 16:00:00 8.11667 C 7.16 g/m*3 6.42 C 9.80833 km/h
186 20-12-2018 17:00:00 7.68333 C 7.07 g/m*3 6.15 C 8.6 km/h
187 20-12-2018 18:00:00 7.725 C 7.21 g/m*3 6.14 C 8.86667 km/h
188 20-12-2018 19:00:00 7.8 C 7.22 g/m*3 6.32 C 8.44167 km/h
189 20-12-2018 20:00:00 7.78333 C 7.2 g/m*3 6.39 C 8.05 km/h
190 20-12-2018 21:00:00 8.225 C 7.33 g/m*3 6.76 C 8.73333 km/h
191 20-12-2018 22:00:00 8.34167 C 7.28 g/m*3 6.42 C 11.28333 km/h
192 20-12-2018 23:00:00 8.45 C 7.28 g/m*3 6.55 C 11.28333 km/h
193 21-12-2018 00:00:00 8.64167 C 7.37 g/m*3 6.65 C 12.09167 km/h
194 21-12-2018 01:00:00 8.725 C 7.33 g/m*3 6.76 C 12.09167 km/h
195 21-12-2018 02:00:00 8.775 C 7.21 g/m*3 6.92 C 11.41667 km/h
196 21-12-2018 03:00:00 9.075 C 7.29 g/m*3 7.59 C 9.66667 km/h
197 21-12-2018 04:00:00 9.175 C 7.31 g/m*3 9.18 C 4.94167 km/h
198 21-12-2018 05:00:00 9.15833 C 7.42 g/m*3 9.16 C 4.80833 km/h
199 21-12-2018 06:00:00 8.54167 C 7.76 g/m*3 8.54 C 3.475 km/h
200 21-12-2018 07:00:00 7.875 C 7.68 g/m*3 7.88 C 3.20833 km/h
Sensor: Nr:Datum:Temp:Abs-Feuchte:Windchill:Wind:
Aussen-T/F 201 21-12-2018 08:00:00 8.14167 C 7.91 g/m*3 8.14 C 4.28333 km/h
202 21-12-2018 09:00:00 8.91667 C 8.31 g/m*3 8.92 C 4.53333 km/h
203 21-12-2018 10:00:00 9.65 C 8.62 g/m*3 7.76 C 12.875 km/h
204 21-12-2018 11:00:00 10.54167 C 8.97 g/m*3 7.61 C 25.34167 km/h
205 21-12-2018 12:00:00 11.34167 C 9.31 g/m*3 11.34 C 23.71667 km/h
206 21-12-2018 13:00:00 11.9 C 9.65 g/m*3 11.9 C 19.43333 km/h
207 21-12-2018 14:00:00 12.11667 C 9.85 g/m*3 12.12 C 17.83333 km/h
208 21-12-2018 15:00:00 12.775 C 9.87 g/m*3 12.78 C 17.96667 km/h
209 21-12-2018 16:00:00 13.2 C 9.73 g/m*3 13.2 C 21.575 km/h
210 21-12-2018 17:00:00 13.35833 C 9.64 g/m*3 13.36 C 15.83333 km/h
211 21-12-2018 18:00:00 13.35 C 9.53 g/m*3 13.35 C 12.76667 km/h
212 21-12-2018 19:00:00 13.15 C 9.31 g/m*3 13.15 C 10.63333 km/h
213 21-12-2018 20:00:00 12.88333 C 9.24 g/m*3 12.88 C 7.51667 km/h
214 21-12-2018 21:00:00 12.58333 C 9.16 g/m*3 12.58 C 9.13333 km/h
215 21-12-2018 22:00:00 12.68333 C 8.79 g/m*3 12.68 C 12.5 km/h
216 21-12-2018 23:00:00 12.28333 C 8.32 g/m*3 12.28 C 11.15833 km/h
217 22-12-2018 00:00:00 11.65833 C 8.28 g/m*3 11.66 C 8.06667 km/h
218 22-12-2018 01:00:00 11.16667 C 8.36 g/m*3 11.17 C 6.85 km/h
219 22-12-2018 02:00:00 11.125 C 7.98 g/m*3 11.13 C 11.15833 km/h
220 22-12-2018 03:00:00 10.775 C 7.94 g/m*3 9.66 C 9.39167 km/h
221 22-12-2018 04:00:00 11.125 C 8.06 g/m*3 11.13 C 11.96667 km/h
222 22-12-2018 05:00:00 10.9 C 8.48 g/m*3 9.51 C 11.28333 km/h
223 22-12-2018 06:00:00 10.45455 C 8.75 g/m*3 9.04 C 10.84545 km/h
224 22-12-2018 07:00:00 10.23333 C 8.75 g/m*3 9.87 C 5.5 km/h
225 22-12-2018 08:00:00 10.71667 C 8.57 g/m*3 9.45 C 10.23333 km/h
Sensor: Nr:Datum:Temp:Abs-Feuchte:Windchill:Wind:
Aussen-T/F 226 22-12-2018 09:00:00 10.95 C 8.33 g/m*3 9.4 C 12.5 km/h
227 22-12-2018 10:00:00 9.34167 C 8.19 g/m*3 8.25 C 7.925 km/h
228 22-12-2018 11:00:00 9.525 C 8.46 g/m*3 8.07 C 9.94167 km/h
229 22-12-2018 12:00:00 10.18333 C 8.32 g/m*3 8.54 C 11.95833 km/h
230 22-12-2018 13:00:00 11.075 C 8.29 g/m*3 11.08 C 11.83333 km/h
231 22-12-2018 14:00:00 11.28333 C 8.13 g/m*3 11.28 C 12.36667 km/h
232 22-12-2018 15:00:00 11.01667 C 7.98 g/m*3 11.02 C 8.325 km/h
233 22-12-2018 16:00:00 10.3 C 7.86 g/m*3 9.4 C 7.79167 km/h
234 22-12-2018 17:00:00 9.2 C 7.63 g/m*3 8.4 C 6.55833 km/h
235 22-12-2018 18:00:00 8.53333 C 7.54 g/m*3 8.53 C 4.26667 km/h
236 22-12-2018 19:00:00 8.05833 C 7.52 g/m*3 8.06 C 3.33333 km/h
237 22-12-2018 20:00:00 7.85 C 7.43 g/m*3 7.85 C 4 km/h
238 22-12-2018 21:00:00 7.43333 C 7.35 g/m*3 7.43 C 4 km/h
239 22-12-2018 22:00:00 7.83636 C 7.39 g/m*3 7.22 C 5.25455 km/h
240 22-12-2018 23:00:00 7.75 C 7.33 g/m*3 6.96 C 5.75 km/h
241 23-12-2018 00:00:00 7.40833 C 7.13 g/m*3 7.41 C 3.2 km/h
242 23-12-2018 01:00:00 6.5 C 6.94 g/m*3 6.5 C 1.6 km/h
243 23-12-2018 02:00:00 6.18333 C 6.89 g/m*3 6.18 C 2.53333 km/h
244 23-12-2018 03:00:00 6.54167 C 7.13 g/m*3 6.54 C 3.74167 km/h
245 23-12-2018 04:00:00 7.06667 C 7.34 g/m*3 7.07 C 3.20833 km/h
246 23-12-2018 05:00:00 6.84167 C 7.27 g/m*3 6.84 C 2.53333 km/h
247 23-12-2018 06:00:00 7.18333 C 7.45 g/m*3 7.18 C 2.26667 km/h
248 23-12-2018 07:00:00 7.525 C 7.56 g/m*3 6.62 C 6.025 km/h
249 23-12-2018 08:00:00 7.88333 C 7.63 g/m*3 7.28 C 5.20833 km/h
250 23-12-2018 09:00:00 8.35833 C 7.76 g/m*3 7.13 C 7.79167 km/h
Sensor: Nr:Datum:Temp:Abs-Feuchte:Windchill:Wind:
Aussen-T/F 251 23-12-2018 10:00:00 9.20833 C 7.87 g/m*3 7.38 C 11.83333 km/h
252 23-12-2018 11:00:00 9.70833 C 7.99 g/m*3 7.6 C 14.63333 km/h
253 23-12-2018 12:00:00 9.66667 C 8.19 g/m*3 7.69 C 13.55 km/h
254 23-12-2018 13:00:00 9.11667 C 8.25 g/m*3 9.12 C 1.74167 km/h
255 23-12-2018 14:00:00 8.8 C 8.22 g/m*3 8.8 C 0.13333 km/h
256 23-12-2018 15:00:00 8.58333 C 8.15 g/m*3 8.58 C 0.13333 km/h
257 23-12-2018 16:00:00 8.18333 C 8.02 g/m*3 8.18 C 0 km/h
258 23-12-2018 17:00:00 8.04167 C 7.96 g/m*3 8.04 C 0.66667 km/h
259 23-12-2018 18:00:00 8.525 C 8.27 g/m*3 8.53 C 4.55 km/h
260 23-12-2018 19:00:00 9.64167 C 8.9 g/m*3 7.97 C 11.425 km/h
261 23-12-2018 20:00:00 10.68333 C 9.43 g/m*3 9.02 C 12.9 km/h
262 23-12-2018 21:00:00 11.70833 C 9.96 g/m*3 11.71 C 13.025 km/h
263 23-12-2018 22:00:00 11.66667 C 9.96 g/m*3 11.67 C 6.15833 km/h
264 23-12-2018 23:00:00 11.58333 C 9.95 g/m*3 11.58 C 7.63333 km/h
265 24-12-2018 00:00:00 10.29167 C 9.07 g/m*3 8.25 C 15.16667 km/h
266 24-12-2018 01:00:00 8.34167 C 7.84 g/m*3 5.88 C 14.89167 km/h
267 24-12-2018 02:00:00 6.99167 C 7.14 g/m*3 4.57 C 12.625 km/h
268 24-12-2018 03:00:00 6.23333 C 6.85 g/m*3 4.06 C 10.35 km/h
269 24-12-2018 04:00:00 5.975 C 6.81 g/m*3 4.04 C 9 km/h
270 24-12-2018 05:00:00 6.13333 C 6.88 g/m*3 4.08 C 9.65833 km/h
271 24-12-2018 06:00:00 6.2 C 6.88 g/m*3 4.89 C 6.7 km/h
272 24-12-2018 07:00:00 6.10833 C 6.87 g/m*3 6.11 C 2.66667 km/h
273 24-12-2018 08:00:00 6.19167 C 6.91 g/m*3 6.19 C 2.8 km/h
274 24-12-2018 09:00:00 6.25833 C 6.93 g/m*3 6.26 C 2.14167 km/h
275 24-12-2018 10:00:00 6.48333 C 6.92 g/m*3 6.48 C 4.4 km/h
Sensor: Nr:Datum:Temp:Abs-Feuchte:Windchill:Wind:
Aussen-T/F 276 24-12-2018 11:00:00 6.70833 C 6.77 g/m*3 5.6 C 6.29167 km/h
277 24-12-2018 12:00:00 6.74167 C 6.44 g/m*3 4.47 C 11.425 km/h
278 24-12-2018 13:00:00 6.55 C 6.24 g/m*3 5.01 C 7.79167 km/h
279 24-12-2018 14:00:00 6.225 C 5.81 g/m*3 4.42 C 8.61667 km/h
280 24-12-2018 15:00:00 5.925 C 5.75 g/m*3 4.87 C 5.75 km/h
281 24-12-2018 16:00:00 4.425 C 5.55 g/m*3 4.43 C 1.2 km/h
282 24-12-2018 17:00:00 2.55 C 5.18 g/m*3 2.55 C 2.53333 km/h
283 24-12-2018 18:00:00 1.71667 C 5.01 g/m*3 1.72 C 2.13333 km/h
284 24-12-2018 19:00:00 1.175 C 4.89 g/m*3 1.18 C 2.13333 km/h
285 24-12-2018 20:00:00 0.35833 C 4.64 g/m*3 0.36 C 0 km/h
286 24-12-2018 21:00:00 -0.29167 C 4.46 g/m*3 -0.29 C 0 km/h
287 24-12-2018 22:00:00 -0.30833 C 4.51 g/m*3 -0.31 C 0 km/h
288 24-12-2018 23:00:00 0.35833 C 4.76 g/m*3 0.36 C 0 km/h
289 25-12-2018 00:00:00 0.09167 C 4.64 g/m*3 0.09 C 0 km/h
290 25-12-2018 01:00:00 -0.10833 C 4.6 g/m*3 -0.11 C 0 km/h
291 25-12-2018 02:00:00 0.475 C 4.81 g/m*3 0.48 C 0.4 km/h
292 25-12-2018 03:00:00 0.625 C 4.86 g/m*3 0.63 C 0.53333 km/h
293 25-12-2018 04:00:00 0.775 C 4.91 g/m*3 0.78 C 2.66667 km/h
294 25-12-2018 05:00:00 1.00833 C 4.99 g/m*3 -1.08 C 6.575 km/h
295 25-12-2018 06:00:00 1.13333 C 5.03 g/m*3 1.13 C 1.875 km/h
296 25-12-2018 07:00:00 1.25 C 5.04 g/m*3 1.25 C 3.225 km/h
297 25-12-2018 08:00:00 1.33333 C 5.04 g/m*3 1.33 C 2.94167 km/h
298 25-12-2018 09:00:00 1.78333 C 5.14 g/m*3 -0.5 C 7.53333 km/h
299 25-12-2018 10:00:00 2.35 C 5.24 g/m*3 2.35 C 2.54167 km/h
300 25-12-2018 11:00:00 2.775 C 5.28 g/m*3 2.78 C 4.80833 km/h
Sensor: Nr:Datum:Temp:Abs-Feuchte:Windchill:Wind:
Aussen-T/F 301 25-12-2018 12:00:00 2.49167 C 5.21 g/m*3 2.49 C 2.80833 km/h
302 25-12-2018 13:00:00 2.59167 C 5.29 g/m*3 2.59 C 1.86667 km/h
303 25-12-2018 14:00:00 3.925 C 5.8 g/m*3 3.93 C 1.86667 km/h
304 25-12-2018 15:00:00 4.9 C 6.06 g/m*3 4.9 C 0.4 km/h
305 25-12-2018 16:00:00 4.55 C 5.93 g/m*3 4.55 C 0.53333 km/h
306 25-12-2018 17:00:00 4.00833 C 5.76 g/m*3 4.01 C 0.8 km/h
307 25-12-2018 18:00:00 3.575 C 5.66 g/m*3 3.58 C 0.13333 km/h
308 25-12-2018 19:00:00 3.30833 C 5.54 g/m*3 3.31 C 0.66667 km/h
309 25-12-2018 20:00:00 1.95833 C 5.03 g/m*3 1.96 C 0.8 km/h
310 25-12-2018 21:00:00 0.65 C 4.7 g/m*3 0.65 C 0.13333 km/h
311 25-12-2018 22:00:00 -0.15833 C 4.49 g/m*3 -0.16 C 0.53333 km/h
312 25-12-2018 23:00:00 -0.84167 C 4.3 g/m*3 -0.84 C 0.66667 km/h
313 26-12-2018 00:00:00 -1.2 C 4.23 g/m*3 -1.2 C 3.06667 km/h
314 26-12-2018 01:00:00 -1.00833 C 4.32 g/m*3 -3.13 C 5.875 km/h
315 26-12-2018 02:00:00 -1.18333 C 4.28 g/m*3 -3.1 C 5.35 km/h
316 26-12-2018 03:00:00 -1.41667 C 4.22 g/m*3 -1.42 C 4.80833 km/h
317 26-12-2018 04:00:00 -1.6 C 4.16 g/m*3 -1.6 C 1.06667 km/h
318 26-12-2018 05:00:00 -1.64167 C 4.15 g/m*3 -1.64 C 4.54167 km/h
319 26-12-2018 06:00:00 -1.725 C 4.13 g/m*3 -1.73 C 2 km/h
320 26-12-2018 07:00:00 -1.94167 C 4.06 g/m*3 -1.94 C 2.13333 km/h
321 26-12-2018 08:00:00 -2.05833 C 4.03 g/m*3 -2.06 C 2.13333 km/h
322 26-12-2018 09:00:00 -1.9 C 4.08 g/m*3 -1.9 C 3.6 km/h
323 26-12-2018 10:00:00 -1.78333 C 4.11 g/m*3 -1.78 C 2 km/h
324 26-12-2018 11:00:00 -1.10833 C 4.3 g/m*3 -1.11 C 0.66667 km/h
325 26-12-2018 12:00:00 -0.4 C 4.48 g/m*3 -0.4 C 0.4 km/h
Sensor: Nr:Datum:Temp:Abs-Feuchte:Windchill:Wind:
Aussen-T/F 326 26-12-2018 13:00:00 0.21667 C 4.67 g/m*3 0.22 C 2.53333 km/h
327 26-12-2018 14:00:00 0.75833 C 4.83 g/m*3 0.76 C 0 km/h
328 26-12-2018 15:00:00 1.23333 C 4.97 g/m*3 1.23 C 0.26667 km/h
329 26-12-2018 16:00:00 0.55 C 4.73 g/m*3 0.55 C 0 km/h
330 26-12-2018 17:00:00 -0.1 C 4.56 g/m*3 -0.1 C 0 km/h
331 26-12-2018 18:00:00 -0.48333 C 4.45 g/m*3 -0.48 C 0 km/h
332 26-12-2018 19:00:00 -0.79167 C 4.36 g/m*3 -0.79 C 0 km/h
333 26-12-2018 20:00:00 -0.85 C 4.39 g/m*3 -0.85 C 0 km/h
334 26-12-2018 21:00:00 -1.01667 C 4.33 g/m*3 -1.02 C 0 km/h
335 26-12-2018 22:00:00 -1.225 C 4.27 g/m*3 -1.23 C 0 km/h
336 26-12-2018 23:00:00 -1.34167 C 4.24 g/m*3 -1.34 C 0 km/h
337 27-12-2018 00:00:00 -1.025 C 4.34 g/m*3 -1.02 C 0 km/h
338 27-12-2018 01:00:00 -0.775 C 4.41 g/m*3 -0.78 C 0 km/h
339 27-12-2018 02:00:00 -0.58333 C 4.51 g/m*3 -0.58 C 0 km/h
340 27-12-2018 03:00:00 -0.36667 C 4.58 g/m*3 -0.37 C 0 km/h
341 27-12-2018 04:00:00 -0.48333 C 4.51 g/m*3 -0.48 C 0 km/h
342 27-12-2018 05:00:00 -0.96667 C 4.35 g/m*3 -0.97 C 0 km/h
343 27-12-2018 06:00:00 -1.39167 C 4.22 g/m*3 -1.39 C 0 km/h
344 27-12-2018 07:00:00 -1.7 C 4.13 g/m*3 -1.7 C 0 km/h
345 27-12-2018 08:00:00 -2 C 4.05 g/m*3 -2 C 0 km/h
346 27-12-2018 09:00:00 -1.76667 C 4.15 g/m*3 -1.77 C 0 km/h
347 27-12-2018 10:00:00 -0.925 C 4.41 g/m*3 -0.93 C 0.26667 km/h
348 27-12-2018 11:00:00 -0.08333 C 4.67 g/m*3 -0.08 C 0 km/h
349 27-12-2018 12:00:00 0.73333 C 4.94 g/m*3 0.73 C 0.13333 km/h
350 27-12-2018 13:00:00 1.40833 C 5.16 g/m*3 1.41 C 0 km/h
Sensor: Nr:Datum:Temp:Abs-Feuchte:Windchill:Wind:
Aussen-T/F 351 27-12-2018 14:00:00 2.08333 C 5.36 g/m*3 2.08 C 0 km/h
352 27-12-2018 15:00:00 2.175 C 5.32 g/m*3 2.17 C 0 km/h
353 27-12-2018 16:00:00 1.525 C 5.07 g/m*3 1.53 C 0.13333 km/h
354 27-12-2018 17:00:00 1.04167 C 4.93 g/m*3 1.04 C 0 km/h
355 27-12-2018 18:00:00 1.025 C 4.91 g/m*3 1.02 C 0 km/h
356 27-12-2018 19:00:00 0.55833 C 4.75 g/m*3 0.56 C 0 km/h
357 27-12-2018 20:00:00 0.73333 C 4.84 g/m*3 0.73 C 0 km/h
358 27-12-2018 21:00:00 0.94167 C 4.91 g/m*3 0.94 C 0 km/h
359 27-12-2018 22:00:00 0.9 C 4.9 g/m*3 0.9 C 0 km/h
360 27-12-2018 23:00:00 0.89167 C 4.89 g/m*3 0.89 C 0.13333 km/h
361 28-12-2018 00:00:00 0.78333 C 4.86 g/m*3 0.78 C 0 km/h
362 28-12-2018 01:00:00 0.55833 C 4.79 g/m*3 0.56 C 0 km/h
363 28-12-2018 02:00:00 0.34167 C 4.75 g/m*3 0.34 C 0 km/h
364 28-12-2018 03:00:00 0.625 C 4.86 g/m*3 0.63 C 0.4 km/h
365 28-12-2018 04:00:00 0.49167 C 4.81 g/m*3 0.49 C 2.26667 km/h
366 28-12-2018 05:00:00 0.05833 C 4.64 g/m*3 0.06 C 0 km/h
367 28-12-2018 06:00:00 -0.26667 C 4.55 g/m*3 -0.27 C 0.4 km/h
368 28-12-2018 07:00:00 -0.70833 C 4.42 g/m*3 -0.71 C 0.13333 km/h
369 28-12-2018 08:00:00 -0.89167 C 4.37 g/m*3 -0.89 C 0 km/h
370 28-12-2018 09:00:00 -0.76667 C 4.41 g/m*3 -0.77 C 3.09167 km/h
371 28-12-2018 10:00:00 -0.075 C 4.65 g/m*3 -2.28 C 6.44167 km/h
372 28-12-2018 11:00:00 0.23333 C 4.73 g/m*3 -2.53 C 8.21667 km/h
373 28-12-2018 12:00:00 0.58333 C 4.84 g/m*3 -1.36 C 6.025 km/h
374 28-12-2018 13:00:00 1.01667 C 4.92 g/m*3 -0.54 C 5.225 km/h
375 28-12-2018 14:00:00 1.275 C 4.95 g/m*3 -0.24 C 5.21667 km/h
Sensor: Nr:Datum:Temp:Abs-Feuchte:Windchill:Wind:
Aussen-T/F 376 28-12-2018 15:00:00 0.99167 C 4.82 g/m*3 -0.5 C 5.08333 km/h
377 28-12-2018 16:00:00 0.55833 C 4.7 g/m*3 0.56 C 4.68333 km/h
378 28-12-2018 17:00:00 0.33333 C 4.66 g/m*3 0.33 C 3.74167 km/h
379 28-12-2018 18:00:00 0.21667 C 4.62 g/m*3 -1.78 C 6.01667 km/h
380 28-12-2018 19:00:00 0.13333 C 4.6 g/m*3 0.13 C 4.8 km/h
381 28-12-2018 20:00:00 -0.025 C 4.55 g/m*3 -0.03 C 1.86667 km/h
382 28-12-2018 21:00:00 -0.09167 C 4.53 g/m*3 -0.09 C 0.13333 km/h
383 28-12-2018 22:00:00 -0.08333 C 4.56 g/m*3 -0.08 C 0.4 km/h
384 28-12-2018 23:00:00 0.10833 C 4.6 g/m*3 0.11 C 4.4 km/h
385 29-12-2018 00:00:00 0.26667 C 4.64 g/m*3 0.27 C 3.6 km/h
386 29-12-2018 01:00:00 0.45833 C 4.7 g/m*3 0.46 C 0.53333 km/h
387 29-12-2018 02:00:00 0.68333 C 4.77 g/m*3 0.68 C 1.2 km/h
388 29-12-2018 03:00:00 0.88333 C 4.84 g/m*3 0.88 C 1.33333 km/h
389 29-12-2018 04:00:00 1.09167 C 4.91 g/m*3 1.09 C 0.26667 km/h
390 29-12-2018 05:00:00 1.225 C 4.95 g/m*3 1.23 C 0.93333 km/h
391 29-12-2018 06:00:00 1.35833 C 5 g/m*3 1.36 C 0.8 km/h
392 29-12-2018 07:00:00 1.45 C 5.06 g/m*3 1.45 C 0.53333 km/h
393 29-12-2018 08:00:00 1.63333 C 5.15 g/m*3 1.63 C 3.33333 km/h
394 29-12-2018 09:00:00 1.95 C 5.26 g/m*3 0.3 C 5.775 km/h
395 29-12-2018 10:00:00 2.46667 C 5.45 g/m*3 0.47 C 6.99167 km/h
396 29-12-2018 11:00:00 3.01667 C 5.62 g/m*3 1.25 C 6.55833 km/h
397 29-12-2018 12:00:00 3.64167 C 5.76 g/m*3 0.96 C 10.35 km/h
398 29-12-2018 13:00:00 3.875 C 5.75 g/m*3 0.42 C 14.63333 km/h
399 29-12-2018 14:00:00 3.70833 C 5.67 g/m*3 1.03 C 10.35833 km/h
400 29-12-2018 15:00:00 3.73333 C 5.68 g/m*3 2.12 C 6.425 km/h
Sensor: Nr:Datum:Temp:Abs-Feuchte:Windchill:Wind:
Aussen-T/F 401 29-12-2018 16:00:00 3.775 C 5.7 g/m*3 0.6 C 12.9 km/h
402 29-12-2018 17:00:00 4.09167 C 5.81 g/m*3 2.76 C 5.76667 km/h
403 29-12-2018 18:00:00 4.09167 C 5.91 g/m*3 1.67 C 9.56667 km/h
404 29-12-2018 19:00:00 3.99167 C 6.02 g/m*3 0.75 C 13.56667 km/h
405 29-12-2018 20:00:00 4.18333 C 6.05 g/m*3 0.42 C 17.16667 km/h
406 29-12-2018 21:00:00 4.36667 C 6.08 g/m*3 0.98 C 14.9 km/h
407 29-12-2018 22:00:00 4.43333 C 6.09 g/m*3 0.98 C 15.43333 km/h
408 29-12-2018 23:00:00 4.65833 C 6.2 g/m*3 2.09 C 10.75833 km/h
409 30-12-2018 00:00:00 5.3 C 6.46 g/m*3 3.14 C 9.425 km/h
410 30-12-2018 01:00:00 7.79167 C 7.06 g/m*3 5.19 C 15.03333 km/h
411 30-12-2018 02:00:00 8.275 C 7.04 g/m*3 5.51 C 17.16667 km/h
412 30-12-2018 03:00:00 8.325 C 6.86 g/m*3 5.79 C 15.43333 km/h
413 30-12-2018 04:00:00 8.20833 C 6.93 g/m*3 6.02 C 12.76667 km/h
414 30-12-2018 05:00:00 8.1 C 6.91 g/m*3 5.66 C 14.36667 km/h
415 30-12-2018 06:00:00 7.96667 C 6.92 g/m*3 6.09 C 10.61667 km/h
416 30-12-2018 07:00:00 7.81667 C 6.9 g/m*3 6.88 C 6.3 km/h
417 30-12-2018 08:00:00 7.625 C 6.99 g/m*3 6.73 C 6.03333 km/h
418 30-12-2018 09:00:00 7.6 C 7.01 g/m*3 7.6 C 4.275 km/h
419 30-12-2018 10:00:00 7.45833 C 7.08 g/m*3 7.46 C 4.4 km/h
420 30-12-2018 11:00:00 7.675 C 7.14 g/m*3 7.09 C 5.08333 km/h
421 30-12-2018 12:00:00 8.25833 C 7.08 g/m*3 8.26 C 4.66667 km/h
422 30-12-2018 13:00:00 8.45833 C 7.01 g/m*3 8.46 C 2.53333 km/h
423 30-12-2018 14:00:00 8.375 C 6.97 g/m*3 8.38 C 4.275 km/h
424 30-12-2018 15:00:00 8.16667 C 7.03 g/m*3 8.17 C 2.26667 km/h
425 30-12-2018 16:00:00 7.65833 C 7.01 g/m*3 7.66 C 3.74167 km/h
Sensor: Nr:Datum:Temp:Abs-Feuchte:Windchill:Wind:
Aussen-T/F 426 30-12-2018 17:00:00 7.13333 C 7 g/m*3 7.13 C 4.13333 km/h
427 30-12-2018 18:00:00 7.05833 C 7 g/m*3 7.06 C 4.66667 km/h
428 30-12-2018 19:00:00 7.06667 C 7.05 g/m*3 7.07 C 4.55 km/h
429 30-12-2018 20:00:00 6.675 C 7.09 g/m*3 5.15 C 7.79167 km/h
430 30-12-2018 21:00:00 6.44167 C 7.09 g/m*3 5.55 C 5.49167 km/h
431 30-12-2018 22:00:00 6.30833 C 7.05 g/m*3 5.02 C 6.68333 km/h
432 30-12-2018 23:00:00 6.33333 C 7.12 g/m*3 5.3 C 5.875 km/h
433 31-12-2018 00:00:00 6.4 C 7.15 g/m*3 4.73 C 8.2 km/h
434 31-12-2018 01:00:00 6.54167 C 7.22 g/m*3 5.29 C 6.7 km/h
435 31-12-2018 02:00:00 6.6 C 7.25 g/m*3 5.73 C 5.475 km/h
436 31-12-2018 03:00:00 6.69167 C 7.29 g/m*3 6.69 C 4.69167 km/h
437 31-12-2018 04:00:00 6.78333 C 7.33 g/m*3 6.03 C 5.225 km/h
438 31-12-2018 05:00:00 6.8 C 7.34 g/m*3 6.8 C 4.54167 km/h
439 31-12-2018 06:00:00 6.775 C 7.39 g/m*3 6.78 C 2.53333 km/h
440 31-12-2018 07:00:00 6.88333 C 7.46 g/m*3 6.88 C 3.2 km/h
441 31-12-2018 08:00:00 6.925 C 7.48 g/m*3 6.93 C 0.93333 km/h
442 31-12-2018 09:00:00 7.075 C 7.55 g/m*3 7.08 C 2.4 km/h
443 31-12-2018 10:00:00 7.35833 C 7.69 g/m*3 7.36 C 4.81667 km/h
444 31-12-2018 11:00:00 7.925 C 7.98 g/m*3 7.93 C 3.74167 km/h
445 31-12-2018 12:00:00 8.44167 C 8.21 g/m*3 8.44 C 3.86667 km/h
446 31-12-2018 13:00:00 8.68333 C 8.29 g/m*3 8.68 C 3.46667 km/h
447 31-12-2018 14:00:00 8.88333 C 8.4 g/m*3 8.88 C 1.33333 km/h
448 31-12-2018 15:00:00 8.95833 C 8.44 g/m*3 8.96 C 1.33333 km/h
449 31-12-2018 16:00:00 8.81667 C 8.36 g/m*3 8.82 C 0.8 km/h
450 31-12-2018 17:00:00 8.44167 C 8.17 g/m*3 8.44 C 0.26667 km/h
Sensor: Nr:Datum:Temp:Abs-Feuchte:Windchill:Wind:
Aussen-T/F 451 31-12-2018 18:00:00 8.31667 C 8.1 g/m*3 8.32 C 0.13333 km/h
452 31-12-2018 19:00:00 8.1 C 8.02 g/m*3 8.1 C 0.4 km/h
453 31-12-2018 20:00:00 7.85833 C 7.91 g/m*3 7.86 C 0.4 km/h
454 31-12-2018 21:00:00 7.76667 C 7.9 g/m*3 7.77 C 0.13333 km/h
455 31-12-2018 22:00:00 7.675 C 7.85 g/m*3 7.68 C 3.21667 km/h
456 31-12-2018 23:00:00 7.525 C 7.78 g/m*3 7.53 C 1.6 km/h
457 01-01-2019 00:00:00 7.4 C 7.71 g/m*3 7.4 C 0.4 km/h
458 01-01-2019 01:00:00 7.25 C 7.64 g/m*3 7.25 C 1.73333 km/h
459 01-01-2019 02:00:00 7.325 C 7.68 g/m*3 7.33 C 3.2 km/h
460 01-01-2019 03:00:00 7.34167 C 7.68 g/m*3 7.34 C 1.33333 km/h
461 01-01-2019 04:00:00 7.23333 C 7.61 g/m*3 7.23 C 1.2 km/h
462 01-01-2019 05:00:00 7.29167 C 7.53 g/m*3 7.29 C 3.06667 km/h
463 01-01-2019 06:00:00 7.3 C 7.49 g/m*3 7.3 C 4.26667 km/h
464 01-01-2019 07:00:00 7.35833 C 7.41 g/m*3 7.36 C 4.275 km/h
465 01-01-2019 08:00:00 7.33333 C 7.31 g/m*3 7.33 C 3.2 km/h
466 01-01-2019 09:00:00 7.20833 C 7.19 g/m*3 6.29 C 5.90833 km/h
467 01-01-2019 10:00:00 7.26667 C 6.98 g/m*3 5.22 C 10.75833 km/h
468 01-01-2019 11:00:00 7.58333 C 7.11 g/m*3 5.83 C 9.55 km/h
469 01-01-2019 12:00:00 7.55 C 7.31 g/m*3 6.18 C 7.79167 km/h
470 01-01-2019 13:00:00 7.49167 C 7.5 g/m*3 5.89 C 8.74167 km/h
471 01-01-2019 14:00:00 7.725 C 7.63 g/m*3 6.03 C 9.41667 km/h
472 01-01-2019 15:00:00 7.65833 C 7.68 g/m*3 5.67 C 10.9 km/h
473 01-01-2019 16:00:00 7.61667 C 7.73 g/m*3 5.69 C 10.49167 km/h
474 01-01-2019 17:00:00 7.55833 C 7.48 g/m*3 5.03 C 14.09167 km/h
475 01-01-2019 18:00:00 7.45833 C 6.97 g/m*3 4.65 C 15.96667 km/h
Sensor: Nr:Datum:Temp:Abs-Feuchte:Windchill:Wind:
Aussen-T/F 476 01-01-2019 19:00:00 7.15 C 6.78 g/m*3 4.41 C 14.9 km/h
477 01-01-2019 20:00:00 6.46667 C 6.37 g/m*3 3.53 C 15.16667 km/h
478 01-01-2019 21:00:00 5.78333 C 6.09 g/m*3 2.63 C 15.56667 km/h
479 01-01-2019 22:00:00 5.375 C 5.95 g/m*3 2.27 C 14.625 km/h
480 01-01-2019 23:00:00 4.5 C 5.82 g/m*3 1.68 C 11.825 km/h
481 02-01-2019 00:00:00 5 C 5.83 g/m*3 1.89 C 14.1 km/h
482 02-01-2019 01:00:00 5.21667 C 5.64 g/m*3 1.72 C 17.03333 km/h
483 02-01-2019 02:00:00 4.85833 C 5.34 g/m*3 2.09 C 11.95 km/h
484 02-01-2019 03:00:00 4.60833 C 5.22 g/m*3 2.11 C 10.36667 km/h
485 02-01-2019 04:00:00 4.20833 C 5.05 g/m*3 1.84 C 9.425 km/h
486 02-01-2019 05:00:00 4.24167 C 5.12 g/m*3 1.68 C 10.35 km/h
487 02-01-2019 06:00:00 4.35 C 5.27 g/m*3 2.08 C 9.13333 km/h
488 02-01-2019 07:00:00 4.75 C 5.37 g/m*3 1.56 C 14.23333 km/h
489 02-01-2019 08:00:00 4.725 C 5.39 g/m*3 2.31 C 10.08333 km/h
490 02-01-2019 09:00:00 4.69167 C 5.44 g/m*3 2.39 C 9.54167 km/h
491 02-01-2019 10:00:00 4.55833 C 5.57 g/m*3 1.78 C 11.68333 km/h
492 02-01-2019 11:00:00 4.95833 C 5.69 g/m*3 2.54 C 10.34167 km/h
493 02-01-2019 12:00:00 5.24167 C 5.72 g/m*3 2.46 C 12.49167 km/h
494 02-01-2019 13:00:00 4.25833 C 5.63 g/m*3 1.73 C 10.20833 km/h
495 02-01-2019 14:00:00 5.425 C 5.29 g/m*3 2.71 C 12.36667 km/h
496 02-01-2019 15:00:00 5.375 C 5.22 g/m*3 3.17 C 9.69167 km/h
497 02-01-2019 16:00:00 4.575 C 5.15 g/m*3 2.89 C 7.1 km/h
498 02-01-2019 17:00:00 3.34167 C 4.85 g/m*3 3.34 C 4.275 km/h
499 02-01-2019 18:00:00 1.75833 C 4.66 g/m*3 1.76 C 3.86667 km/h
500 02-01-2019 19:00:00 0.94167 C 4.56 g/m*3 0.94 C 2.13333 km/h
Sensor: Nr:Datum:Temp:Abs-Feuchte:Windchill:Wind:
Aussen-T/F 501 02-01-2019 20:00:00 0.64167 C 4.56 g/m*3 0.64 C 2.4 km/h
502 02-01-2019 21:00:00 0.6 C 4.56 g/m*3 0.6 C 3.46667 km/h
503 02-01-2019 22:00:00 0.675 C 4.55 g/m*3 0.68 C 3.46667 km/h
504 02-01-2019 23:00:00 -0.175 C 4.3 g/m*3 -0.18 C 1.33333 km/h
505 03-01-2019 00:00:00 -1.175 C 4.11 g/m*3 -1.18 C 0 km/h
506 03-01-2019 01:00:00 -1.56667 C 4.05 g/m*3 -1.57 C 0.66667 km/h
507 03-01-2019 02:00:00 -1.525 C 4.11 g/m*3 -1.53 C 1.2 km/h
508 03-01-2019 03:00:00 -0.64167 C 4.4 g/m*3 -0.64 C 3.73333 km/h
509 03-01-2019 04:00:00 -0.24167 C 4.49 g/m*3 -0.24 C 4.13333 km/h
510 03-01-2019 05:00:00 0.175 C 4.61 g/m*3 0.18 C 1.46667 km/h
511 03-01-2019 06:00:00 0.58333 C 4.69 g/m*3 0.58 C 0.53333 km/h
512 03-01-2019 07:00:00 0.80833 C 4.77 g/m*3 0.81 C 1.73333 km/h
513 03-01-2019 08:00:00 0.825 C 4.81 g/m*3 0.83 C 0.4 km/h
514 03-01-2019 09:00:00 1.025 C 4.93 g/m*3 1.02 C 1.2 km/h
515 03-01-2019 10:00:00 1.4 C 5.07 g/m*3 1.4 C 0.66667 km/h
516 03-01-2019 11:00:00 1.85833 C 5.23 g/m*3 1.86 C 0.4 km/h
517 03-01-2019 12:00:00 2.66667 C 5.56 g/m*3 2.67 C 0.93333 km/h
518 03-01-2019 13:00:00 3.45 C 5.78 g/m*3 3.45 C 3.46667 km/h
519 03-01-2019 14:00:00 3.95 C 5.89 g/m*3 3.95 C 2.93333 km/h
520 03-01-2019 15:00:00 4.4 C 5.93 g/m*3 2.72 C 6.975 km/h
521 03-01-2019 16:00:00 4.31667 C 5.83 g/m*3 4.32 C 2.26667 km/h
522 03-01-2019 17:00:00 4.13333 C 5.82 g/m*3 4.13 C 2.26667 km/h
523 03-01-2019 18:00:00 3.96667 C 5.77 g/m*3 3.97 C 2.26667 km/h
524 03-01-2019 19:00:00 4.075 C 5.84 g/m*3 4.08 C 1.86667 km/h
525 03-01-2019 20:00:00 4.16667 C 5.89 g/m*3 4.17 C 3.48333 km/h
Sensor: Nr:Datum:Temp:Abs-Feuchte:Windchill:Wind:
Aussen-T/F 526 03-01-2019 21:00:00 4.15 C 5.91 g/m*3 4.15 C 2 km/h
527 03-01-2019 22:00:00 4.15 C 5.91 g/m*3 4.15 C 1.6 km/h
528 03-01-2019 23:00:00 3.94167 C 5.86 g/m*3 3.94 C 0.53333 km/h
529 04-01-2019 00:00:00 3.29167 C 5.59 g/m*3 3.29 C 0.4 km/h
530 04-01-2019 01:00:00 2.075 C 5.2 g/m*3 2.08 C 2 km/h
531 04-01-2019 02:00:00 2.06667 C 5.29 g/m*3 2.07 C 0 km/h
532 04-01-2019 03:00:00 1.9 C 5.22 g/m*3 1.9 C 0 km/h
533 04-01-2019 04:00:00 1.94167 C 5.26 g/m*3 1.94 C 0 km/h
534 04-01-2019 05:00:00 1.85833 C 5.23 g/m*3 1.86 C 0 km/h
535 04-01-2019 06:00:00 1.80833 C 5.23 g/m*3 1.81 C 0 km/h
536 04-01-2019 07:00:00 1.68333 C 5.19 g/m*3 1.68 C 0 km/h
537 04-01-2019 08:00:00 1.5 C 5.13 g/m*3 1.5 C 0.53333 km/h
538 04-01-2019 09:00:00 1.55 C 5.17 g/m*3 1.55 C 1.46667 km/h
539 04-01-2019 10:00:00 2.09167 C 5.36 g/m*3 0.68 C 5.24167 km/h
540 04-01-2019 11:00:00 2.275 C 5.36 g/m*3 0.39 C 6.55 km/h
541 04-01-2019 12:00:00 3.05 C 5.54 g/m*3 1.38 C 6.29167 km/h
542 04-01-2019 13:00:00 3.68333 C 5.74 g/m*3 3.68 C 4.80833 km/h
543 04-01-2019 14:00:00 4.71667 C 5.87 g/m*3 2.65 C 8.58333 km/h
544 04-01-2019 15:00:00 4.69167 C 5.8 g/m*3 2.58 C 8.74167 km/h
545 04-01-2019 16:00:00 4.7 C 5.75 g/m*3 2.53 C 9.01667 km/h
546 04-01-2019 17:00:00 4.46667 C 5.68 g/m*3 1.59 C 12.08333 km/h
547 04-01-2019 18:00:00 4.35 C 5.71 g/m*3 2.43 C 7.78333 km/h
548 04-01-2019 19:00:00 4.35833 C 5.73 g/m*3 1.73 C 10.75 km/h
549 04-01-2019 20:00:00 4.34167 C 5.75 g/m*3 3.2 C 5.35 km/h
550 04-01-2019 21:00:00 4.325 C 5.79 g/m*3 2.59 C 7.125 km/h
Sensor: Nr:Datum:Temp:Abs-Feuchte:Windchill:Wind:
Aussen-T/F 551 04-01-2019 22:00:00 4.23333 C 5.89 g/m*3 2.97 C 5.625 km/h
552 04-01-2019 23:00:00 4.35 C 5.99 g/m*3 2.38 C 7.95 km/h
553 05-01-2019 00:00:00 4.45833 C 6.07 g/m*3 4.46 C 4.675 km/h
554 05-01-2019 01:00:00 4.26667 C 6.09 g/m*3 4.27 C 3.6 km/h
555 05-01-2019 02:00:00 4.225 C 6.13 g/m*3 2.97 C 5.625 km/h
556 05-01-2019 03:00:00 4.36667 C 6.25 g/m*3 4.37 C 4 km/h
557 05-01-2019 04:00:00 4.48333 C 6.3 g/m*3 3.41 C 5.21667 km/h
558 05-01-2019 05:00:00 4.475 C 6.3 g/m*3 2.97 C 6.44167 km/h
559 05-01-2019 06:00:00 4.41667 C 6.26 g/m*3 3.13 C 5.76667 km/h
560 05-01-2019 07:00:00 4.86667 C 6.47 g/m*3 4.87 C 4.28333 km/h
561 05-01-2019 08:00:00 5.96667 C 6.95 g/m*3 3.8 C 10.075 km/h
562 05-01-2019 09:00:00 6.71667 C 7.14 g/m*3 3.88 C 14.9 km/h
563 05-01-2019 10:00:00 6.79167 C 7.18 g/m*3 4.53 C 11.425 km/h
564 05-01-2019 11:00:00 6.9 C 7.2 g/m*3 4.47 C 12.54444 km/h
565 05-01-2019 12:00:00 6.95 C 7.18 g/m*3 4.28 C 14.1 km/h
566 05-01-2019 13:00:00 7.01667 C 7.21 g/m*3 4.41 C 13.83333 km/h
567 05-01-2019 14:00:00 7.06667 C 7.24 g/m*3 4.75 C 12.08333 km/h
568 05-01-2019 15:00:00 7 C 7.19 g/m*3 4.21 C 15.03333 km/h
569 05-01-2019 16:00:00 6.9 C 7.04 g/m*3 4.26 C 13.83333 km/h
570 05-01-2019 17:00:00 6.775 C 6.94 g/m*3 4.34 C 12.36667 km/h
571 05-01-2019 18:00:00 6.61667 C 6.91 g/m*3 4.27 C 11.68333 km/h
572 05-01-2019 19:00:00 6.58333 C 6.88 g/m*3 3.92 C 13.56667 km/h
573 05-01-2019 20:00:00 6.55 C 6.86 g/m*3 3.92 C 13.3 km/h
574 05-01-2019 21:00:00 6.4 C 6.79 g/m*3 3.67 C 13.7 km/h
575 05-01-2019 22:00:00 6.38333 C 6.8 g/m*3 3.82 C 12.63333 km/h
Sensor: Nr:Datum:Temp:Abs-Feuchte:Windchill:Wind:
Aussen-T/F 576 05-01-2019 23:00:00 6.3 C 6.82 g/m*3 3.72 C 12.63333 km/h
577 06-01-2019 00:00:00 6.125 C 6.82 g/m*3 3.85 C 10.76667 km/h
578 06-01-2019 01:00:00 5.9 C 6.78 g/m*3 3.48 C 11.3 km/h
579 06-01-2019 02:00:00 5.71667 C 6.67 g/m*3 3.56 C 9.80833 km/h
580 06-01-2019 03:00:00 5.7 C 6.62 g/m*3 3.71 C 9.01667 km/h
581 06-01-2019 04:00:00 5.725 C 6.63 g/m*3 3.42 C 10.5 km/h
582 06-01-2019 05:00:00 5.74167 C 6.64 g/m*3 3.16 C 11.95833 km/h
583 06-01-2019 06:00:00 5.7 C 6.62 g/m*3 3.29 C 11.025 km/h
584 06-01-2019 07:00:00 5.7 C 6.62 g/m*3 3.87 C 8.33333 km/h
585 06-01-2019 08:00:00 5.69167 C 6.6 g/m*3 3.36 C 10.61667 km/h
586 06-01-2019 09:00:00 5.7 C 6.55 g/m*3 3.75 C 8.85833 km/h
587 06-01-2019 10:00:00 5.79167 C 6.59 g/m*3 3.98 C 8.34167 km/h
588 06-01-2019 11:00:00 5.975 C 6.61 g/m*3 4.37 C 7.65 km/h
589 06-01-2019 12:00:00 6.275 C 6.67 g/m*3 4.34 C 9.275 km/h
590 06-01-2019 13:00:00 6.325 C 6.67 g/m*3 4.58 C 8.475 km/h
591 06-01-2019 14:00:00 6.23333 C 6.69 g/m*3 4.71 C 7.51667 km/h
592 06-01-2019 15:00:00 6.125 C 6.6 g/m*3 4.84 C 6.56667 km/h
593 06-01-2019 16:00:00 6.025 C 6.56 g/m*3 6.03 C 4.95 km/h
594 06-01-2019 17:00:00 5.81667 C 6.51 g/m*3 5.82 C 1.2 km/h
595 06-01-2019 18:00:00 5.56667 C 6.42 g/m*3 5.57 C 0.26667 km/h
596 06-01-2019 19:00:00 5.29167 C 6.31 g/m*3 5.29 C 0 km/h
597 06-01-2019 20:00:00 5.25 C 6.3 g/m*3 5.25 C 0.93333 km/h
598 06-01-2019 21:00:00 5.35833 C 6.33 g/m*3 5.36 C 0.26667 km/h
599 06-01-2019 22:00:00 5.38333 C 6.34 g/m*3 5.38 C 0.93333 km/h
600 06-01-2019 23:00:00 5.35 C 6.33 g/m*3 5.35 C 3.2 km/h
Sensor: Nr:Datum:Temp:Abs-Feuchte:Windchill:Wind:
Aussen-T/F 601 07-01-2019 00:00:00 5.38333 C 6.34 g/m*3 5.38 C 4.01667 km/h
602 07-01-2019 01:00:00 5.25833 C 6.29 g/m*3 5.26 C 2.13333 km/h
603 07-01-2019 02:00:00 5.2 C 6.27 g/m*3 4.13 C 5.48333 km/h
604 07-01-2019 03:00:00 5.2 C 6.29 g/m*3 5.2 C 1.86667 km/h
605 07-01-2019 04:00:00 5.10833 C 6.26 g/m*3 5.11 C 0.93333 km/h
606 07-01-2019 05:00:00 4.96667 C 6.18 g/m*3 4.97 C 0 km/h
607 07-01-2019 06:00:00 4.825 C 6.18 g/m*3 4.83 C 0.4 km/h
608 07-01-2019 07:00:00 4.64167 C 6.08 g/m*3 4.64 C 0.4 km/h
609 07-01-2019 08:00:00 4.38333 C 6.03 g/m*3 4.38 C 0 km/h
610 07-01-2019 09:00:00 4.39167 C 6.07 g/m*3 4.39 C 0.8 km/h
611 07-01-2019 10:00:00 4.55833 C 6.14 g/m*3 4.56 C 1.86667 km/h
612 07-01-2019 11:00:00 4.99167 C 6.21 g/m*3 4.99 C 3.33333 km/h
613 07-01-2019 12:00:00 5.975 C 6.27 g/m*3 4.33 C 7.8 km/h
614 07-01-2019 13:00:00 6.70833 C 6.34 g/m*3 5.64 C 6.15833 km/h
615 07-01-2019 14:00:00 6.95 C 6.38 g/m*3 6.13 C 5.48333 km/h
616 07-01-2019 15:00:00 6.85 C 6.38 g/m*3 6.85 C 3.875 km/h
617 07-01-2019 16:00:00 6.25833 C 6.37 g/m*3 3.93 C 11.16667 km/h
618 07-01-2019 17:00:00 5.75 C 6.29 g/m*3 3.15 C 12.1 km/h
619 07-01-2019 18:00:00 5.48333 C 6.23 g/m*3 3.11 C 10.625 km/h
620 07-01-2019 19:00:00 5.55833 C 6.27 g/m*3 3.99 C 7.26667 km/h
621 07-01-2019 20:00:00 5.94167 C 6.49 g/m*3 3.22 C 13.01667 km/h
622 07-01-2019 21:00:00 5.86667 C 6.63 g/m*3 2.98 C 13.96667 km/h
623 07-01-2019 22:00:00 5.83333 C 6.7 g/m*3 2.42 C 17.56667 km/h
624 07-01-2019 23:00:00 6.01667 C 6.79 g/m*3 2.66 C 17.44167 km/h
625 08-01-2019 00:00:00 6.28333 C 6.88 g/m*3 2.86 C 18.5 km/h
Sensor: Nr:Datum:Temp:Abs-Feuchte:Windchill:Wind:
Aussen-T/F 626 08-01-2019 01:00:00 6.61667 C 7 g/m*3 3.64 C 15.7 km/h
627 08-01-2019 02:00:00 6.73333 C 7.16 g/m*3 4.43 C 11.56667 km/h
628 08-01-2019 03:00:00 6.875 C 7.3 g/m*3 4.51 C 12.08333 km/h
629 08-01-2019 04:00:00 7 C 7.17 g/m*3 4.85 C 11.01667 km/h
630 08-01-2019 05:00:00 7.1 C 6.83 g/m*3 4.43 C 14.36667 km/h
631 08-01-2019 06:00:00 7.3 C 6.59 g/m*3 4.73 C 13.96667 km/h
632 08-01-2019 07:00:00 7.2 C 6.46 g/m*3 4.8 C 12.76667 km/h
633 08-01-2019 08:00:00 6.86667 C 6.23 g/m*3 4.24 C 13.7 km/h
634 08-01-2019 09:00:00 6.78333 C 6.24 g/m*3 4.59 C 11.03333 km/h
635 08-01-2019 10:00:00 6.25833 C 6.53 g/m*3 4.09 C 10.34167 km/h
636 08-01-2019 11:00:00 6.85 C 6.51 g/m*3 3.84 C 16.36667 km/h
637 08-01-2019 12:00:00 6.99167 C 6.57 g/m*3 3.72 C 18.76667 km/h
638 08-01-2019 13:00:00 7.475 C 6.53 g/m*3 4.22 C 19.70833 km/h
639 08-01-2019 14:00:00 7.45833 C 6.46 g/m*3 3.86 C 23.05833 km/h
640 08-01-2019 15:00:00 7.075 C 6.57 g/m*3 3.78 C 19.175 km/h
641 08-01-2019 16:00:00 5.88333 C 6.46 g/m*3 3.02 C 13.81667 km/h
642 08-01-2019 17:00:00 6.03333 C 6.44 g/m*3 2.39 C 19.85 km/h
643 08-01-2019 18:00:00 6.16667 C 6.3 g/m*3 2.54 C 19.98333 km/h
644 08-01-2019 19:00:00 6.33333 C 6.11 g/m*3 2.8 C 19.56667 km/h
645 08-01-2019 20:00:00 6.28333 C 5.95 g/m*3 2.67 C 20.11667 km/h
646 08-01-2019 21:00:00 5.775 C 5.98 g/m*3 2.34 C 17.58333 km/h
647 08-01-2019 22:00:00 6.08333 C 5.89 g/m*3 1.73 C 26.95 km/h
648 08-01-2019 23:00:00 5.50833 C 5.87 g/m*3 1.47 C 22.11667 km/h
649 09-01-2019 00:00:00 5.11667 C 5.94 g/m*3 1.33 C 19.03333 km/h
650 09-01-2019 01:00:00 4.9 C 5.96 g/m*3 1.01 C 19.44167 km/h
Sensor: Nr:Datum:Temp:Abs-Feuchte:Windchill:Wind:
Aussen-T/F 651 09-01-2019 02:00:00 4.33333 C 5.89 g/m*3 0.96 C 14.76667 km/h
652 09-01-2019 03:00:00 3.75 C 5.8 g/m*3 1.03 C 10.61667 km/h
653 09-01-2019 04:00:00 4.05833 C 5.84 g/m*3 0.61 C 14.89167 km/h
654 09-01-2019 05:00:00 3.4 C 5.59 g/m*3 0.46 C 11.28333 km/h
655 09-01-2019 06:00:00 3.10833 C 5.63 g/m*3 0.86 C 8.19167 km/h
656 09-01-2019 07:00:00 3.05833 C 5.55 g/m*3 0.32 C 10.08333 km/h
657 09-01-2019 08:00:00 2.68333 C 5.44 g/m*3 0.64 C 7.25 km/h
658 09-01-2019 09:00:00 2.375 C 5.35 g/m*3 -0.12 C 8.59167 km/h
659 09-01-2019 10:00:00 3.09167 C 5.59 g/m*3 0.59 C 9.125 km/h
660 09-01-2019 11:00:00 4 C 5.58 g/m*3 -0.02 C 18.63333 km/h
661 09-01-2019 12:00:00 4.4 C 5.48 g/m*3 0.84 C 16.1 km/h
662 09-01-2019 13:00:00 4.64167 C 5.33 g/m*3 0.51 C 20.90833 km/h
663 09-01-2019 14:00:00 4.775 C 5.16 g/m*3 0.99 C 18.36667 km/h
664 09-01-2019 15:00:00 4.8 C 4.98 g/m*3 0.99 C 18.63333 km/h
665 09-01-2019 16:00:00 4.55833 C 4.88 g/m*3 0.75 C 18.1 km/h
666 09-01-2019 17:00:00 4.3 C 4.84 g/m*3 1.06 C 13.96667 km/h
667 09-01-2019 18:00:00 4.275 C 4.75 g/m*3 0.85 C 15.03333 km/h
668 09-01-2019 19:00:00 4.15 C 4.81 g/m*3 1.56 C 10.35833 km/h
669 09-01-2019 20:00:00 3.93333 C 4.81 g/m*3 0.47 C 14.76667 km/h
670 09-01-2019 21:00:00 3.64167 C 4.59 g/m*3 0.11 C 14.76667 km/h
671 09-01-2019 22:00:00 3.26667 C 4.61 g/m*3 0.19 C 11.83333 km/h
672 09-01-2019 23:00:00 3.1 C 4.58 g/m*3 0.1 C 11.29167 km/h
673 10-01-2019 00:00:00 3.00833 C 4.57 g/m*3 -0.17 C 12.09167 km/h
674 10-01-2019 01:00:00 2.775 C 4.54 g/m*3 0.54 C 7.925 km/h
675 10-01-2019 02:00:00 2.65 C 4.53 g/m*3 -0.07 C 9.69167 km/h
Sensor: Nr:Datum:Temp:Abs-Feuchte:Windchill:Wind:
Aussen-T/F 676 10-01-2019 03:00:00 2.475 C 4.56 g/m*3 0.66 C 6.44167 km/h
677 10-01-2019 04:00:00 2.325 C 4.54 g/m*3 0.96 C 5.21667 km/h
678 10-01-2019 05:00:00 2.15833 C 4.54 g/m*3 2.16 C 3.86667 km/h
679 10-01-2019 06:00:00 2.04167 C 4.59 g/m*3 0.02 C 6.84167 km/h
680 10-01-2019 07:00:00 1.75 C 4.59 g/m*3 1.75 C 3.33333 km/h
681 10-01-2019 08:00:00 1.59167 C 4.63 g/m*3 1.59 C 3.6 km/h
682 10-01-2019 09:00:00 1.80833 C 4.68 g/m*3 1.81 C 3.20833 km/h
683 10-01-2019 10:00:00 1.99167 C 4.79 g/m*3 1.99 C 4.66667 km/h
684 10-01-2019 11:00:00 2.18333 C 4.83 g/m*3 0.23 C 6.70833 km/h
685 10-01-2019 12:00:00 2.20833 C 4.83 g/m*3 0.21 C 6.85 km/h
686 10-01-2019 13:00:00 2.525 C 4.62 g/m*3 -0.29 C 9.96667 km/h
687 10-01-2019 14:00:00 2.875 C 4.61 g/m*3 0.29 C 9.28333 km/h
688 10-01-2019 15:00:00 2.875 C 4.63 g/m*3 0.19 C 9.69167 km/h
689 10-01-2019 16:00:00 2.59167 C 4.64 g/m*3 2.59 C 4.00833 km/h
690 10-01-2019 17:00:00 2.15833 C 4.69 g/m*3 2.16 C 1.2 km/h
691 10-01-2019 18:00:00 1.85833 C 4.74 g/m*3 1.86 C 3.20833 km/h
692 10-01-2019 19:00:00 1.29167 C 4.7 g/m*3 1.29 C 2.53333 km/h
693 10-01-2019 20:00:00 1.03333 C 4.73 g/m*3 1.03 C 0.8 km/h
694 10-01-2019 21:00:00 1.04167 C 4.77 g/m*3 1.04 C 0.26667 km/h
695 10-01-2019 22:00:00 1.1 C 4.81 g/m*3 1.1 C 0 km/h
696 10-01-2019 23:00:00 1.05 C 4.83 g/m*3 1.05 C 0 km/h
697 11-01-2019 00:00:00 1.1 C 4.86 g/m*3 1.1 C 0.66667 km/h
698 11-01-2019 01:00:00 1.23333 C 4.83 g/m*3 1.23 C 2.53333 km/h
699 11-01-2019 02:00:00 1.14167 C 4.8 g/m*3 1.14 C 0.4 km/h
700 11-01-2019 03:00:00 0.85 C 4.75 g/m*3 0.85 C 0.93333 km/h
Sensor: Nr:Datum:Temp:Abs-Feuchte:Windchill:Wind:
Aussen-T/F 701 11-01-2019 04:00:00 0.85833 C 4.81 g/m*3 0.86 C 2.26667 km/h
702 11-01-2019 05:00:00 0.9 C 4.85 g/m*3 0.9 C 2 km/h
703 11-01-2019 06:00:00 0.93333 C 4.89 g/m*3 0.93 C 1.86667 km/h
704 11-01-2019 07:00:00 1.21667 C 5 g/m*3 -0.3 C 5.20833 km/h
705 11-01-2019 08:00:00 1.4 C 5.03 g/m*3 -0.04 C 5.09167 km/h
706 11-01-2019 09:00:00 1.70833 C 5.12 g/m*3 -0.75 C 8.075 km/h
707 11-01-2019 10:00:00 1.93333 C 5.19 g/m*3 0 C 6.55833 km/h
708 11-01-2019 11:00:00 2.20833 C 5.3 g/m*3 -0.08 C 7.78333 km/h
709 11-01-2019 12:00:00 2.45 C 5.41 g/m*3 0.45 C 6.98333 km/h
710 11-01-2019 13:00:00 2.675 C 5.53 g/m*3 1.04 C 6.025 km/h
711 11-01-2019 14:00:00 3.075 C 5.74 g/m*3 1.1 C 7.23333 km/h
712 11-01-2019 15:00:00 3.35 C 5.84 g/m*3 1.26 C 7.79167 km/h
713 11-01-2019 16:00:00 3.61667 C 5.95 g/m*3 1.77 C 7.1 km/h
714 11-01-2019 17:00:00 3.81667 C 6.03 g/m*3 2.26 C 6.29167 km/h
715 11-01-2019 18:00:00 4.18333 C 6.21 g/m*3 3.07 C 5.20833 km/h
716 11-01-2019 19:00:00 4.575 C 6.4 g/m*3 3.57 C 5.075 km/h
717 11-01-2019 20:00:00 5.225 C 6.69 g/m*3 5.23 C 2.8 km/h
718 11-01-2019 21:00:00 6.28333 C 7.17 g/m*3 5.15 C 6.15 km/h
719 11-01-2019 22:00:00 6.48333 C 7.23 g/m*3 5.42 C 6.025 km/h
720 11-01-2019 23:00:00 6.66667 C 7.28 g/m*3 5.25 C 7.38333 km/h
721 12-01-2019 00:00:00 6.60833 C 7.25 g/m*3 4.56 C 10.08333 km/h
722 12-01-2019 01:00:00 6.56364 C 7.23 g/m*3 5.11 C 7.45455 km/h
723 12-01-2019 07:00:00 5.1 C 6.43 g/m*3 2.84 C 9.7 km/h
724 12-01-2019 08:00:00 4.98333 C 6.42 g/m*3 3.93 C 5.34167 km/h
725 12-01-2019 09:00:00 4.9 C 6.41 g/m*3 3.65 C 5.88333 km/h
Sensor: Nr:Datum:Temp:Abs-Feuchte:Windchill:Wind:
Aussen-T/F 726 12-01-2019 11:00:00 5.9 C 6.42 g/m*3 3.33 C 12.1 km/h
727 12-01-2019 12:00:00 5.875 C 6.34 g/m*3 3.03 C 13.7 km/h
728 12-01-2019 13:00:00 5.9 C 6.32 g/m*3 3.1 C 13.425 km/h
729 12-01-2019 14:00:00 6.06667 C 6.44 g/m*3 3.31 C 13.43333 km/h
730 12-01-2019 15:00:00 6.20833 C 6.6 g/m*3 3.35 C 14.23333 km/h
731 12-01-2019 16:00:00 6.05833 C 6.64 g/m*3 3.11 C 14.63333 km/h
732 12-01-2019 17:00:00 5.89167 C 6.65 g/m*3 2.86 C 14.9 km/h
733 12-01-2019 18:00:00 5.88333 C 6.7 g/m*3 3.41 C 11.55833 km/h
734 12-01-2019 19:00:00 5.90833 C 6.82 g/m*3 4.44 C 7.1 km/h
735 12-01-2019 20:00:00 5.9 C 6.89 g/m*3 5.9 C 3.86667 km/h
736 12-01-2019 21:00:00 5.94167 C 6.94 g/m*3 5.07 C 5.21667 km/h
737 12-01-2019 22:00:00 6.18333 C 7.02 g/m*3 5.35 C 5.21667 km/h
738 12-01-2019 23:00:00 6.2 C 7.05 g/m*3 6.2 C 2.53333 km/h
739 13-01-2019 00:00:00 6.16667 C 7.04 g/m*3 6.17 C 0.8 km/h
740 13-01-2019 01:00:00 6.13333 C 7.03 g/m*3 5.29 C 5.21667 km/h
741 13-01-2019 02:00:00 6.05833 C 6.99 g/m*3 6.06 C 3.06667 km/h
742 13-01-2019 03:00:00 6.06667 C 7 g/m*3 6.07 C 3.74167 km/h
743 13-01-2019 04:00:00 6.225 C 7.07 g/m*3 6.23 C 2.93333 km/h
744 13-01-2019 05:00:00 6.49167 C 7.23 g/m*3 4.71 C 8.73333 km/h
745 13-01-2019 06:00:00 6.8 C 7.34 g/m*3 4.69 C 10.625 km/h
746 13-01-2019 07:00:00 7.14167 C 7.42 g/m*3 4.52 C 14.1 km/h
747 13-01-2019 08:00:00 7.325 C 7.49 g/m*3 5.95 C 7.64167 km/h
748 13-01-2019 09:00:00 7.38333 C 7.63 g/m*3 5.41 C 10.5 km/h
749 13-01-2019 10:00:00 7.675 C 7.77 g/m*3 6 C 9.28333 km/h
750 13-01-2019 11:00:00 8.13333 C 8.01 g/m*3 6.8 C 8.06667 km/h
Sensor: Nr:Datum:Temp:Abs-Feuchte:Windchill:Wind:
Aussen-T/F 751 13-01-2019 12:00:00 8.59167 C 8.27 g/m*3 7.06 C 9.425 km/h
752 13-01-2019 13:00:00 8.85833 C 8.38 g/m*3 7.03 C 11.40833 km/h
753 13-01-2019 14:00:00 8.89167 C 8.41 g/m*3 7.2 C 10.625 km/h
754 13-01-2019 15:00:00 8.85 C 8.38 g/m*3 7.45 C 9.00833 km/h
755 13-01-2019 16:00:00 8.86667 C 8.39 g/m*3 7.55 C 8.6 km/h
756 13-01-2019 17:00:00 8.99167 C 8.41 g/m*3 7.39 C 10.21667 km/h
757 13-01-2019 18:00:00 9.25833 C 8.34 g/m*3 7.26 C 13.03333 km/h
758 13-01-2019 19:00:00 9.50833 C 7.96 g/m*3 7.02 C 17.43333 km/h
759 13-01-2019 20:00:00 9.30833 C 7.68 g/m*3 6.6 C 19.04167 km/h
760 13-01-2019 21:00:00 9.06667 C 7.51 g/m*3 6.58 C 16.5 km/h
761 13-01-2019 22:00:00 7.19167 C 7.1 g/m*3 4.38 C 15.55 km/h
762 13-01-2019 23:00:00 6.70833 C 7.04 g/m*3 4.23 C 12.59167 km/h
763 14-01-2019 00:00:00 7.325 C 6.94 g/m*3 5.06 C 12.1 km/h
764 14-01-2019 01:00:00 7.06667 C 6.82 g/m*3 5.04 C 10.475 km/h
765 14-01-2019 02:00:00 7.425 C 6.7 g/m*3 5.03 C 13.025 km/h
766 14-01-2019 03:00:00 6.59167 C 6.55 g/m*3 4.29 C 11.425 km/h
767 14-01-2019 04:00:00 6.71667 C 6.61 g/m*3 3.77 C 15.7 km/h
768 14-01-2019 05:00:00 7.1 C 6.65 g/m*3 4.07 C 17.03333 km/h
769 14-01-2019 06:00:00 6.725 C 6.63 g/m*3 3.95 C 14.5 km/h
770 14-01-2019 07:00:00 6.33333 C 6.57 g/m*3 3.55 C 13.95833 km/h
771 14-01-2019 08:00:00 6.23333 C 6.6 g/m*3 3.83 C 11.56667 km/h
772 14-01-2019 09:00:00 6.425 C 6.64 g/m*3 4.43 C 9.675 km/h
773 14-01-2019 10:00:00 6.4 C 6.63 g/m*3 3.67 C 13.7 km/h
774 14-01-2019 11:00:00 4.40833 C 6.01 g/m*3 2.12 C 9.26667 km/h
775 14-01-2019 12:00:00 4.70833 C 6.13 g/m*3 2.44 C 9.40833 km/h
Sensor: Nr:Datum:Temp:Abs-Feuchte:Windchill:Wind:
Aussen-T/F 776 14-01-2019 13:00:00 5.36667 C 6.21 g/m*3 3.16 C 9.7 km/h
777 14-01-2019 14:00:00 4.33333 C 5.76 g/m*3 1.38 C 12.35833 km/h
778 14-01-2019 15:00:00 4.05 C 5.76 g/m*3 2.53 C 6.29167 km/h
779 14-01-2019 16:00:00 3.76667 C 5.66 g/m*3 0.99 C 10.875 km/h
780 14-01-2019 17:00:00 2.725 C 5.38 g/m*3 2.73 C 3.6 km/h
781 14-01-2019 18:00:00 2.75833 C 5.46 g/m*3 0.68 C 7.38333 km/h
782 14-01-2019 19:00:00 2.74167 C 5.43 g/m*3 2.74 C 3.73333 km/h
783 14-01-2019 20:00:00 2.39167 C 5.36 g/m*3 2.39 C 3.86667 km/h
784 14-01-2019 21:00:00 3.01667 C 5.54 g/m*3 1.2 C 6.70833 km/h
785 14-01-2019 22:00:00 3.59167 C 5.56 g/m*3 3.59 C 4 km/h
786 14-01-2019 23:00:00 3.5 C 5.54 g/m*3 3.5 C 1.60833 km/h
787 15-01-2019 00:00:00 3.3 C 5.52 g/m*3 3.3 C 2.13333 km/h
788 15-01-2019 01:00:00 3.25 C 5.46 g/m*3 3.25 C 2.4 km/h
789 15-01-2019 02:00:00 2.94167 C 5.35 g/m*3 2.94 C 2.26667 km/h
790 15-01-2019 03:00:00 2.95 C 5.39 g/m*3 2.95 C 3.48333 km/h
791 15-01-2019 04:00:00 2.625 C 5.33 g/m*3 2.63 C 4.00833 km/h
792 15-01-2019 05:00:00 2.825 C 5.43 g/m*3 1.2 C 6.05 km/h
793 15-01-2019 06:00:00 2.81667 C 5.43 g/m*3 0.97 C 6.7 km/h
794 15-01-2019 07:00:00 2.89167 C 5.49 g/m*3 0.8 C 7.525 km/h
795 15-01-2019 08:00:00 3.49167 C 5.63 g/m*3 0.87 C 9.95833 km/h
796 15-01-2019 09:00:00 3.98333 C 5.78 g/m*3 1.11 C 11.56667 km/h
797 15-01-2019 10:00:00 4.75 C 5.98 g/m*3 1.91 C 12.23333 km/h
798 15-01-2019 11:00:00 5.35 C 6.17 g/m*3 2.52 C 12.9 km/h
799 15-01-2019 12:00:00 6.04167 C 6.33 g/m*3 3.55 C 11.83333 km/h
800 15-01-2019 13:00:00 6.65833 C 6.41 g/m*3 3.79 C 15.03333 km/h
Sensor: Nr:Datum:Temp:Abs-Feuchte:Windchill:Wind:
Aussen-T/F 801 15-01-2019 14:00:00 6.79167 C 6.41 g/m*3 4.89 C 9.56667 km/h
802 15-01-2019 15:00:00 6.68333 C 6.38 g/m*3 4.76 C 9.54167 km/h
803 15-01-2019 16:00:00 6.475 C 6.36 g/m*3 5.17 C 6.85833 km/h
804 15-01-2019 17:00:00 6.38333 C 6.33 g/m*3 4.62 C 8.6 km/h
805 15-01-2019 18:00:00 6.65 C 6.31 g/m*3 4.61 C 10.08333 km/h
806 15-01-2019 19:00:00 6.24167 C 6.38 g/m*3 4.79 C 7.24167 km/h
807 15-01-2019 20:00:00 5.675 C 6.45 g/m*3 3.51 C 9.8 km/h
808 15-01-2019 21:00:00 5.35833 C 6.39 g/m*3 3.16 C 9.675 km/h
809 15-01-2019 22:00:00 5.33333 C 6.38 g/m*3 3.51 C 8.06667 km/h
810 15-01-2019 23:00:00 5.45833 C 6.43 g/m*3 4.24 C 6.01667 km/h
811 16-01-2019 00:00:00 5.23333 C 6.42 g/m*3 5.23 C 2.66667 km/h
812 16-01-2019 01:00:00 5.2 C 6.52 g/m*3 5.2 C 3.73333 km/h
813 16-01-2019 02:00:00 5.275 C 6.53 g/m*3 4.27 C 5.34167 km/h
814 16-01-2019 03:00:00 5.44167 C 6.39 g/m*3 3.28 C 9.55 km/h
815 16-01-2019 04:00:00 5.5 C 6.2 g/m*3 3.1 C 10.75 km/h
816 16-01-2019 05:00:00 5.575 C 6.12 g/m*3 3.94 C 7.51667 km/h
817 16-01-2019 06:00:00 5.66667 C 6.06 g/m*3 3.77 C 8.58333 km/h
818 16-01-2019 07:00:00 5.51667 C 5.95 g/m*3 3.8 C 7.775 km/h
819 16-01-2019 08:00:00 5.31667 C 5.79 g/m*3 3.46 C 8.18333 km/h
820 16-01-2019 09:00:00 5.2 C 5.71 g/m*3 2.82 C 10.35833 km/h
821 16-01-2019 10:00:00 5.2 C 5.72 g/m*3 2.94 C 9.81667 km/h
822 16-01-2019 11:00:00 5.225 C 5.69 g/m*3 3.12 C 9.15 km/h
823 16-01-2019 12:00:00 5.50833 C 5.73 g/m*3 3.65 C 8.325 km/h
824 16-01-2019 13:00:00 5.9 C 5.8 g/m*3 4.11 C 8.34167 km/h
825 16-01-2019 14:00:00 6.35833 C 5.88 g/m*3 5.49 C 5.36667 km/h
Sensor: Nr:Datum:Temp:Abs-Feuchte:Windchill:Wind:
Aussen-T/F 826 16-01-2019 15:00:00 6.18333 C 5.87 g/m*3 6.18 C 2.54167 km/h
827 16-01-2019 16:00:00 5 C 5.83 g/m*3 5 C 0 km/h
828 16-01-2019 17:00:00 3.75 C 5.65 g/m*3 3.75 C 1.86667 km/h
829 16-01-2019 18:00:00 3.475 C 5.59 g/m*3 3.48 C 2.15 km/h
830 16-01-2019 19:00:00 4.29167 C 5.65 g/m*3 2.68 C 6.69167 km/h
831 16-01-2019 20:00:00 4.88333 C 5.66 g/m*3 1.62 C 14.89167 km/h
832 16-01-2019 21:00:00 5.55833 C 5.72 g/m*3 1.86 C 19.3 km/h
833 16-01-2019 22:00:00 5.64167 C 5.72 g/m*3 2.29 C 16.76667 km/h
834 16-01-2019 23:00:00 5.625 C 5.68 g/m*3 3.33 C 10.34167 km/h
835 17-01-2019 00:00:00 5.54167 C 5.76 g/m*3 2.87 C 12.23333 km/h
836 17-01-2019 01:00:00 5.84167 C 5.82 g/m*3 1.95 C 21.575 km/h
837 17-01-2019 02:00:00 5.94167 C 6.04 g/m*3 2.34 C 19.30833 km/h
838 17-01-2019 03:00:00 5.91667 C 6.26 g/m*3 2.82 C 15.43333 km/h
839 17-01-2019 04:00:00 6.09167 C 6.47 g/m*3 2.99 C 15.7 km/h
840 17-01-2019 05:00:00 6.025 C 6.57 g/m*3 3.26 C 13.43333 km/h
841 17-01-2019 06:00:00 5.85833 C 6.59 g/m*3 4.17 C 7.90833 km/h
842 17-01-2019 07:00:00 5.68333 C 6.54 g/m*3 4.46 C 6.15833 km/h
843 17-01-2019 08:00:00 5.61667 C 6.51 g/m*3 4.22 C 6.7 km/h
844 17-01-2019 09:00:00 5.7 C 6.47 g/m*3 4.08 C 7.53333 km/h
845 17-01-2019 10:00:00 6.3 C 6.41 g/m*3 3.79 C 12.23333 km/h
846 17-01-2019 11:00:00 6.68333 C 6.35 g/m*3 3.55 C 17.03333 km/h
847 17-01-2019 12:00:00 7.13333 C 6.46 g/m*3 3.88 C 18.90833 km/h
848 17-01-2019 13:00:00 7.225 C 6.42 g/m*3 3.79 C 20.78333 km/h
849 17-01-2019 14:00:00 6.24167 C 6.28 g/m*3 2.68 C 19.575 km/h
850 17-01-2019 15:00:00 4.88333 C 6.07 g/m*3 2.48 C 10.2 km/h
Sensor: Nr:Datum:Temp:Abs-Feuchte:Windchill:Wind:
Aussen-T/F 851 17-01-2019 16:00:00 4.80833 C 5.84 g/m*3 2.03 C 11.95 km/h
852 17-01-2019 17:00:00 2.9 C 5.44 g/m*3 1.35 C 5.9 km/h
853 17-01-2019 18:00:00 2.71667 C 5.4 g/m*3 1.41 C 5.20833 km/h
854 17-01-2019 19:00:00 2.36667 C 5.13 g/m*3 0.1 C 7.8 km/h
855 17-01-2019 20:00:00 2.375 C 5.03 g/m*3 -0.53 C 10.20833 km/h
856 17-01-2019 21:00:00 2.69167 C 5.02 g/m*3 -0.19 C 10.36667 km/h
857 17-01-2019 22:00:00 2.7 C 5.11 g/m*3 -0.01 C 9.68333 km/h
858 17-01-2019 23:00:00 2.91667 C 5.04 g/m*3 1.31 C 6.05 km/h
859 18-01-2019 00:00:00 2.49167 C 5.04 g/m*3 2.49 C 1.73333 km/h
860 18-01-2019 01:00:00 2.125 C 4.95 g/m*3 2.13 C 4.53333 km/h
861 18-01-2019 02:00:00 2.21667 C 4.95 g/m*3 2.22 C 4.26667 km/h
862 18-01-2019 03:00:00 1.95833 C 5.01 g/m*3 1.96 C 2.26667 km/h
863 18-01-2019 04:00:00 1.725 C 5.07 g/m*3 1.73 C 2.8 km/h
864 18-01-2019 05:00:00 1.95833 C 5.08 g/m*3 1.96 C 4 km/h
865 18-01-2019 06:00:00 1.56667 C 5.02 g/m*3 1.57 C 0.93333 km/h
866 18-01-2019 07:00:00 0.94167 C 4.85 g/m*3 0.94 C 1.2 km/h
867 18-01-2019 08:00:00 0.275 C 4.64 g/m*3 0.28 C 2.13333 km/h
868 18-01-2019 09:00:00 0.00833 C 4.6 g/m*3 0.01 C 0.53333 km/h
869 18-01-2019 10:00:00 0.08333 C 4.64 g/m*3 0.08 C 0.4 km/h
870 18-01-2019 11:00:00 0.91667 C 4.95 g/m*3 0.92 C 0.13333 km/h
871 18-01-2019 12:00:00 1.58333 C 5.11 g/m*3 1.58 C 0 km/h
872 18-01-2019 13:00:00 1.85 C 4.98 g/m*3 1.85 C 1.6 km/h
873 18-01-2019 14:00:00 1.94167 C 4.89 g/m*3 1.94 C 0.13333 km/h
874 18-01-2019 15:00:00 1.13333 C 4.73 g/m*3 1.13 C 3.06667 km/h
875 18-01-2019 16:00:00 0.83333 C 4.63 g/m*3 0.83 C 3.73333 km/h
Sensor: Nr:Datum:Temp:Abs-Feuchte:Windchill:Wind:
Aussen-T/F 876 18-01-2019 17:00:00 0.225 C 4.43 g/m*3 0.23 C 2.93333 km/h
877 18-01-2019 18:00:00 -0.25 C 4.32 g/m*3 -0.25 C 0 km/h
878 18-01-2019 19:00:00 -0.65833 C 4.26 g/m*3 -0.66 C 0 km/h
879 18-01-2019 20:00:00 -0.85 C 4.24 g/m*3 -0.85 C 0 km/h
880 18-01-2019 21:00:00 -1 C 4.2 g/m*3 -1 C 0.8 km/h
881 18-01-2019 22:00:00 -1.05 C 4.19 g/m*3 -1.05 C 1.6 km/h
882 18-01-2019 23:00:00 -1.40833 C 4.09 g/m*3 -1.41 C 0 km/h
883 19-01-2019 00:00:00 -2.00833 C 3.92 g/m*3 -2.01 C 0 km/h
884 19-01-2019 01:00:00 -2.58333 C 3.8 g/m*3 -2.58 C 0 km/h
885 19-01-2019 02:00:00 -2.9 C 3.72 g/m*3 -2.9 C 0 km/h
886 19-01-2019 03:00:00 -3.23333 C 3.66 g/m*3 -3.23 C 0 km/h
887 19-01-2019 04:00:00 -3.575 C 3.58 g/m*3 -3.58 C 0 km/h
888 19-01-2019 05:00:00 -3.85 C 3.51 g/m*3 -3.85 C 0 km/h
889 19-01-2019 06:00:00 -4.05833 C 3.46 g/m*3 -4.06 C 0 km/h
890 19-01-2019 07:00:00 -4.50833 C 3.35 g/m*3 -4.51 C 0 km/h
891 19-01-2019 08:00:00 -4.78333 C 3.29 g/m*3 -4.78 C 0 km/h
892 19-01-2019 09:00:00 -4.58333 C 3.33 g/m*3 -4.58 C 0 km/h
893 19-01-2019 10:00:00 -3.86667 C 3.53 g/m*3 -3.87 C 0 km/h
894 19-01-2019 11:00:00 -2.76667 C 3.83 g/m*3 -2.77 C 0.8 km/h
895 19-01-2019 12:00:00 -2.23333 C 3.98 g/m*3 -2.23 C 1.73333 km/h
896 19-01-2019 13:00:00 -1.35833 C 4.23 g/m*3 -1.36 C 2.26667 km/h
897 19-01-2019 14:00:00 -0.20833 C 4.56 g/m*3 -0.21 C 1.6 km/h
898 19-01-2019 15:00:00 0.08333 C 4.58 g/m*3 0.08 C 2 km/h
899 19-01-2019 16:00:00 -0.08333 C 4.44 g/m*3 -0.08 C 3.6 km/h
900 19-01-2019 17:00:00 -1.06667 C 4.02 g/m*3 -2.83 C 5.06667 km/h
Sensor: Nr:Datum:Temp:Abs-Feuchte:Windchill:Wind:
Aussen-T/F 901 19-01-2019 18:00:00 -1.75 C 3.82 g/m*3 -1.75 C 3.2 km/h
902 19-01-2019 19:00:00 -2.44167 C 3.64 g/m*3 -2.44 C 3.06667 km/h
903 19-01-2019 20:00:00 -2.69167 C 3.61 g/m*3 -2.69 C 2 km/h
904 19-01-2019 21:00:00 -2.85833 C 3.56 g/m*3 -2.86 C 0.4 km/h
905 19-01-2019 22:00:00 -3.75 C 3.36 g/m*3 -3.75 C 0.13333 km/h
906 19-01-2019 23:00:00 -4.3 C 3.28 g/m*3 -4.3 C 0 km/h
907 20-01-2019 00:00:00 -4.73333 C 3.2 g/m*3 -4.73 C 0 km/h
908 20-01-2019 01:00:00 -5.29167 C 3.1 g/m*3 -5.29 C 0 km/h
909 20-01-2019 02:00:00 -5.63333 C 3.02 g/m*3 -5.63 C 0 km/h
910 20-01-2019 03:00:00 -5.825 C 2.99 g/m*3 -5.83 C 0 km/h
911 20-01-2019 04:00:00 -6.24167 C 2.89 g/m*3 -6.24 C 0 km/h
912 20-01-2019 05:00:00 -6.625 C 2.82 g/m*3 -6.63 C 0 km/h
913 20-01-2019 06:00:00 -6.8 C 2.79 g/m*3 -6.8 C 0 km/h
914 20-01-2019 07:00:00 -7.05 C 2.74 g/m*3 -7.05 C 0 km/h
915 20-01-2019 08:00:00 -7.33333 C 2.67 g/m*3 -7.33 C 0 km/h
916 20-01-2019 09:00:00 -7.04167 C 2.76 g/m*3 -7.04 C 0 km/h
917 20-01-2019 10:00:00 -6.29167 C 2.91 g/m*3 -6.29 C 0 km/h
918 20-01-2019 11:00:00 -5.36667 C 3.14 g/m*3 -5.37 C 0.26667 km/h
919 20-01-2019 12:00:00 -4.21667 C 3.4 g/m*3 -4.22 C 0.13333 km/h
920 20-01-2019 13:00:00 -3.25833 C 3.63 g/m*3 -3.26 C 0.93333 km/h
921 20-01-2019 14:00:00 -2.55833 C 3.78 g/m*3 -2.56 C 0 km/h
922 20-01-2019 15:00:00 -2.04167 C 3.9 g/m*3 -2.04 C 0 km/h
923 20-01-2019 16:00:00 -1.975 C 3.88 g/m*3 -1.98 C 0 km/h
924 20-01-2019 17:00:00 -2.49167 C 3.7 g/m*3 -2.49 C 0 km/h
925 20-01-2019 18:00:00 -3.31667 C 3.48 g/m*3 -3.32 C 0 km/h
Sensor: Nr:Datum:Temp:Abs-Feuchte:Windchill:Wind:
Aussen-T/F 926 20-01-2019 19:00:00 -3.775 C 3.41 g/m*3 -3.78 C 0 km/h
927 20-01-2019 20:00:00 -4.44167 C 3.25 g/m*3 -4.44 C 0 km/h
928 20-01-2019 21:00:00 -5.175 C 3.1 g/m*3 -5.18 C 0 km/h
929 20-01-2019 22:00:00 -5.675 C 3.01 g/m*3 -5.68 C 0 km/h
930 20-01-2019 23:00:00 -6.16667 C 2.91 g/m*3 -6.17 C 0 km/h
931 21-01-2019 00:00:00 -6.45833 C 2.86 g/m*3 -6.46 C 0 km/h
932 21-01-2019 01:00:00 -6.56667 C 2.85 g/m*3 -6.57 C 0 km/h
933 21-01-2019 02:00:00 -6.90833 C 2.77 g/m*3 -6.91 C 0 km/h
934 21-01-2019 03:00:00 -7.35 C 2.69 g/m*3 -7.35 C 0 km/h
935 21-01-2019 04:00:00 -7.64167 C 2.63 g/m*3 -7.64 C 0 km/h
936 21-01-2019 05:00:00 -7.89167 C 2.57 g/m*3 -7.89 C 0 km/h
937 21-01-2019 06:00:00 -8.09167 C 2.53 g/m*3 -8.09 C 0 km/h
938 21-01-2019 07:00:00 -8.35833 C 2.48 g/m*3 -8.36 C 0 km/h
939 21-01-2019 08:00:00 -8.55 C 2.44 g/m*3 -8.55 C 0 km/h
940 21-01-2019 09:00:00 -8.225 C 2.51 g/m*3 -8.23 C 0 km/h
941 21-01-2019 10:00:00 -7.53333 C 2.66 g/m*3 -7.53 C 0 km/h
942 21-01-2019 11:00:00 -5.70833 C 3.07 g/m*3 -5.71 C 1.73333 km/h
943 21-01-2019 12:00:00 -4.86667 C 3.26 g/m*3 -4.87 C 1.06667 km/h
944 21-01-2019 13:00:00 -4.49167 C 3.35 g/m*3 -4.49 C 0.26667 km/h
945 21-01-2019 14:00:00 -3.775 C 3.53 g/m*3 -3.78 C 0.66667 km/h
946 21-01-2019 15:00:00 -3.275 C 3.66 g/m*3 -3.28 C 0 km/h
947 21-01-2019 16:00:00 -3.26667 C 3.64 g/m*3 -3.27 C 0.4 km/h
948 21-01-2019 17:00:00 -3.83333 C 3.48 g/m*3 -3.83 C 0.93333 km/h
949 21-01-2019 18:00:00 -4.5 C 3.31 g/m*3 -4.5 C 0 km/h
950 21-01-2019 19:00:00 -5.41667 C 3.09 g/m*3 -5.42 C 0 km/h
Sensor: Nr:Datum:Temp:Abs-Feuchte:Windchill:Wind:
Aussen-T/F 951 21-01-2019 20:00:00 -6.05 C 2.94 g/m*3 -6.05 C 0 km/h
952 21-01-2019 21:00:00 -6.40833 C 2.88 g/m*3 -6.41 C 0 km/h
953 21-01-2019 22:00:00 -6.75833 C 2.81 g/m*3 -6.76 C 0 km/h
954 21-01-2019 23:00:00 -7.10833 C 2.74 g/m*3 -7.11 C 0 km/h
955 22-01-2019 00:00:00 -7.50833 C 2.64 g/m*3 -7.51 C 0 km/h
956 22-01-2019 01:00:00 -7.80833 C 2.58 g/m*3 -7.81 C 0 km/h
957 22-01-2019 02:00:00 -8.075 C 2.53 g/m*3 -8.07 C 0 km/h
958 22-01-2019 03:00:00 -8.275 C 2.49 g/m*3 -8.28 C 0 km/h
959 22-01-2019 04:00:00 -8.575 C 2.44 g/m*3 -8.57 C 0 km/h
960 22-01-2019 05:00:00 -8.51667 C 2.45 g/m*3 -8.52 C 0 km/h
961 22-01-2019 06:00:00 -8.74167 C 2.41 g/m*3 -8.74 C 0 km/h
962 22-01-2019 07:00:00 -8.65 C 2.42 g/m*3 -8.65 C 0 km/h
963 22-01-2019 08:00:00 -8.2 C 2.52 g/m*3 -8.2 C 0 km/h
964 22-01-2019 09:00:00 -7.33333 C 2.7 g/m*3 -7.33 C 0 km/h
965 22-01-2019 10:00:00 -6.31667 C 2.92 g/m*3 -6.32 C 0 km/h
966 22-01-2019 11:00:00 -4.99167 C 3.24 g/m*3 -4.99 C 0 km/h
967 22-01-2019 12:00:00 -3.175 C 3.69 g/m*3 -3.18 C 0.53333 km/h
968 22-01-2019 13:00:00 -1.45833 C 4.02 g/m*3 -1.46 C 3.73333 km/h
969 22-01-2019 14:00:00 -0.89167 C 4.03 g/m*3 -0.89 C 4.53333 km/h
970 22-01-2019 15:00:00 -0.99167 C 3.96 g/m*3 -0.99 C 3.6 km/h
971 22-01-2019 16:00:00 -1.225 C 3.88 g/m*3 -1.23 C 2.93333 km/h
972 22-01-2019 17:00:00 -2.225 C 3.66 g/m*3 -2.23 C 0.4 km/h
973 22-01-2019 18:00:00 -2.86667 C 3.6 g/m*3 -2.87 C 0 km/h
974 22-01-2019 19:00:00 -3.10833 C 3.55 g/m*3 -3.11 C 0.4 km/h
975 22-01-2019 20:00:00 -3.125 C 3.59 g/m*3 -3.13 C 0.4 km/h
Sensor: Nr:Datum:Temp:Abs-Feuchte:Windchill:Wind:
Aussen-T/F 976 22-01-2019 21:00:00 -2.69167 C 3.72 g/m*3 -2.69 C 0 km/h
977 22-01-2019 22:00:00 -2.375 C 3.8 g/m*3 -2.38 C 0.13333 km/h
978 22-01-2019 23:00:00 -2.075 C 3.85 g/m*3 -2.08 C 2.15 km/h
979 23-01-2019 00:00:00 -1.65833 C 3.84 g/m*3 -1.66 C 4.55 km/h
980 23-01-2019 01:00:00 -1.63333 C 3.88 g/m*3 -1.63 C 0 km/h
981 23-01-2019 02:00:00 -1.7 C 3.92 g/m*3 -1.7 C 0 km/h
982 23-01-2019 03:00:00 -1.775 C 3.95 g/m*3 -1.78 C 0 km/h
983 23-01-2019 04:00:00 -1.81667 C 3.97 g/m*3 -1.82 C 0 km/h
984 23-01-2019 05:00:00 -2.025 C 3.92 g/m*3 -2.03 C 0.13333 km/h
985 23-01-2019 06:00:00 -2.18333 C 3.91 g/m*3 -2.18 C 0.13333 km/h
986 23-01-2019 07:00:00 -2.3 C 3.88 g/m*3 -2.3 C 0 km/h
987 23-01-2019 08:00:00 -2.4 C 3.85 g/m*3 -2.4 C 0 km/h
988 23-01-2019 09:00:00 -2.275 C 3.91 g/m*3 -2.28 C 0.4 km/h
989 23-01-2019 10:00:00 -1.75833 C 4.03 g/m*3 -1.76 C 3.6 km/h
990 23-01-2019 11:00:00 -1.25 C 4.09 g/m*3 -3.42 C 5.9 km/h
991 23-01-2019 12:00:00 -0.75833 C 4.02 g/m*3 -0.76 C 3.875 km/h
992 23-01-2019 13:00:00 -0.7 C 3.92 g/m*3 -0.7 C 4.69167 km/h
993 23-01-2019 14:00:00 -0.71667 C 3.85 g/m*3 -0.72 C 4.425 km/h
994 23-01-2019 15:00:00 -0.8 C 3.8 g/m*3 -0.8 C 1.33333 km/h
995 23-01-2019 16:00:00 -0.83333 C 3.83 g/m*3 -0.83 C 1.86667 km/h
996 23-01-2019 17:00:00 -1.13333 C 3.82 g/m*3 -1.13 C 0.93333 km/h
997 23-01-2019 18:00:00 -1.375 C 3.83 g/m*3 -1.38 C 0.4 km/h
998 23-01-2019 19:00:00 -1.49167 C 3.77 g/m*3 -1.49 C 1.60833 km/h
999 23-01-2019 20:00:00 -1.7 C 3.78 g/m*3 -1.7 C 0.13333 km/h
1000 23-01-2019 21:00:00 -1.81667 C 3.77 g/m*3 -1.82 C 0 km/h
Sensor: Nr:Datum:Temp:Abs-Feuchte:Windchill:Wind:
Aussen-T/F 1001 23-01-2019 22:00:00 -1.875 C 3.76 g/m*3 -1.88 C 0 km/h
1002 23-01-2019 23:00:00 -1.88333 C 3.78 g/m*3 -1.88 C 0 km/h
1003 24-01-2019 00:00:00 -1.83333 C 3.75 g/m*3 -1.83 C 1.46667 km/h
1004 24-01-2019 01:00:00 -1.64167 C 3.6 g/m*3 -3.62 C 5.35 km/h
1005 24-01-2019 02:00:00 -1.65833 C 3.55 g/m*3 -1.66 C 4.81667 km/h
1006 24-01-2019 03:00:00 -1.725 C 3.55 g/m*3 -1.73 C 4.13333 km/h
1007 24-01-2019 04:00:00 -1.83333 C 3.53 g/m*3 -1.83 C 3.46667 km/h
1008 24-01-2019 05:00:00 -1.9 C 3.51 g/m*3 -1.9 C 2.93333 km/h
1009 24-01-2019 06:00:00 -2.01667 C 3.51 g/m*3 -2.02 C 3.2 km/h
1010 24-01-2019 07:00:00 -2.1 C 3.48 g/m*3 -2.1 C 3.46667 km/h
1011 24-01-2019 08:00:00 -2.16667 C 3.49 g/m*3 -2.17 C 2.26667 km/h
1012 24-01-2019 09:00:00 -2.14167 C 3.48 g/m*3 -2.14 C 0.53333 km/h
1013 24-01-2019 10:00:00 -1.90833 C 3.55 g/m*3 -1.91 C 3.6 km/h
1014 24-01-2019 11:00:00 -2.05833 C 3.71 g/m*3 -2.06 C 1.33333 km/h
1015 24-01-2019 12:00:00 -1.86667 C 3.77 g/m*3 -1.87 C 1.2 km/h
1016 24-01-2019 13:00:00 -1.34167 C 3.76 g/m*3 -1.34 C 4.15833 km/h
1017 24-01-2019 14:00:00 -1.21667 C 3.67 g/m*3 -1.22 C 4.01667 km/h
1018 24-01-2019 15:00:00 -1.325 C 3.53 g/m*3 -1.33 C 3.6 km/h
1019 24-01-2019 16:00:00 -1.475 C 3.52 g/m*3 -1.48 C 2.4 km/h
1020 24-01-2019 17:00:00 -1.75833 C 3.49 g/m*3 -1.76 C 3.46667 km/h
1021 24-01-2019 18:00:00 -1.91667 C 3.44 g/m*3 -1.92 C 1.86667 km/h
1022 24-01-2019 19:00:00 -2.08333 C 3.47 g/m*3 -2.08 C 0 km/h
1023 24-01-2019 20:00:00 -2.48333 C 3.44 g/m*3 -2.48 C 0.26667 km/h
1024 24-01-2019 21:00:00 -2.63333 C 3.48 g/m*3 -2.63 C 0 km/h
1025 24-01-2019 22:00:00 -2.53333 C 3.51 g/m*3 -2.53 C 0 km/h
Sensor: Nr:Datum:Temp:Abs-Feuchte:Windchill:Wind:
Aussen-T/F 1026 24-01-2019 23:00:00 -2.4 C 3.57 g/m*3 -2.4 C 0 km/h
1027 25-01-2019 00:00:00 -2.375 C 3.55 g/m*3 -2.38 C 0.13333 km/h
1028 25-01-2019 01:00:00 -2.13333 C 3.59 g/m*3 -2.13 C 2 km/h
1029 25-01-2019 02:00:00 -1.80833 C 3.7 g/m*3 -1.81 C 2.4 km/h
1030 25-01-2019 03:00:00 -1.7 C 3.77 g/m*3 -1.7 C 0.8 km/h
1031 25-01-2019 04:00:00 -1.56667 C 3.84 g/m*3 -1.57 C 1.46667 km/h
1032 25-01-2019 05:00:00 -1.4 C 3.92 g/m*3 -1.4 C 1.86667 km/h
1033 25-01-2019 06:00:00 -1.3 C 3.98 g/m*3 -1.3 C 0.8 km/h
1034 25-01-2019 07:00:00 -1.24167 C 4.01 g/m*3 -1.24 C 0.26667 km/h
1035 25-01-2019 08:00:00 -1.1 C 4.09 g/m*3 -1.1 C 0.66667 km/h
1036 25-01-2019 09:00:00 -0.75 C 4.19 g/m*3 -0.75 C 1.33333 km/h
1037 25-01-2019 10:00:00 -0.2 C 4.35 g/m*3 -2.72 C 7.24167 km/h
1038 25-01-2019 11:00:00 0.63333 C 4.56 g/m*3 -1.89 C 7.675 km/h
1039 25-01-2019 12:00:00 1.63333 C 4.69 g/m*3 -0.8 C 7.94167 km/h
1040 25-01-2019 13:00:00 2.45833 C 4.66 g/m*3 -1 C 12.89167 km/h
1041 25-01-2019 14:00:00 2.24167 C 4.58 g/m*3 -1.02 C 11.7 km/h
1042 25-01-2019 15:00:00 1.96667 C 4.58 g/m*3 -1.76 C 13.7 km/h
1043 25-01-2019 16:00:00 1.725 C 4.64 g/m*3 -1.9 C 12.9 km/h
1044 25-01-2019 17:00:00 1.7 C 4.73 g/m*3 -1.76 C 12.08333 km/h
1045 25-01-2019 18:00:00 1.76667 C 4.76 g/m*3 -1.47 C 11.14167 km/h
1046 25-01-2019 19:00:00 1.51667 C 4.83 g/m*3 -1.9 C 11.69167 km/h
1047 25-01-2019 20:00:00 1.5 C 4.9 g/m*3 -2.09 C 12.5 km/h
1048 25-01-2019 21:00:00 1.66667 C 4.94 g/m*3 -2.66 C 16.76667 km/h
1049 25-01-2019 22:00:00 1.78333 C 5.01 g/m*3 -2.38 C 15.96667 km/h
1050 25-01-2019 23:00:00 1.8 C 5.12 g/m*3 -2.16 C 14.76667 km/h
Sensor: Nr:Datum:Temp:Abs-Feuchte:Windchill:Wind:
Aussen-T/F 1051 26-01-2019 00:00:00 1.85 C 5.18 g/m*3 -2.7 C 18.50833 km/h
1052 26-01-2019 01:00:00 2.04167 C 5.28 g/m*3 -2.11 C 16.23333 km/h
1053 26-01-2019 02:00:00 2.325 C 5.34 g/m*3 -2 C 17.83333 km/h
1054 26-01-2019 03:00:00 2.625 C 5.42 g/m*3 -1.53 C 17.16667 km/h
1055 26-01-2019 04:00:00 2.975 C 5.51 g/m*3 -1.13 C 17.43333 km/h
1056 26-01-2019 05:00:00 3.35833 C 5.6 g/m*3 -0.43 C 15.96667 km/h
1057 26-01-2019 06:00:00 3.24167 C 5.59 g/m*3 -0.33 C 14.5 km/h
1058 26-01-2019 07:00:00 3.25833 C 5.66 g/m*3 -0.27 C 14.23333 km/h
1059 26-01-2019 08:00:00 3.75833 C 5.88 g/m*3 0.02 C 16.23333 km/h
1060 26-01-2019 09:00:00 4.325 C 6.04 g/m*3 0.41 C 18.50833 km/h
1061 26-01-2019 10:00:00 4.83333 C 6.18 g/m*3 1.67 C 14.23333 km/h
1062 26-01-2019 11:00:00 5.16667 C 6.32 g/m*3 1.87 C 15.56667 km/h
1063 26-01-2019 12:00:00 5.80833 C 6.5 g/m*3 2.7 C 15.3 km/h
1064 26-01-2019 13:00:00 5.95 C 6.51 g/m*3 2.96 C 14.76667 km/h
1065 26-01-2019 14:00:00 5.95833 C 6.56 g/m*3 3.4 C 12.09167 km/h
1066 26-01-2019 15:00:00 6.21667 C 6.57 g/m*3 3.99 C 10.625 km/h
1067 26-01-2019 16:00:00 5.95833 C 6.51 g/m*3 4.61 C 6.7 km/h
1068 26-01-2019 17:00:00 5.56667 C 6.34 g/m*3 5.57 C 4.15 km/h
1069 26-01-2019 18:00:00 4.89167 C 6.23 g/m*3 4.89 C 1.46667 km/h
1070 26-01-2019 19:00:00 5.00833 C 6.37 g/m*3 5.01 C 1.2 km/h
1071 26-01-2019 20:00:00 5.31667 C 6.53 g/m*3 5.32 C 4.95833 km/h
1072 26-01-2019 21:00:00 5.63333 C 6.58 g/m*3 5.63 C 4.825 km/h
1073 26-01-2019 22:00:00 5.975 C 6.61 g/m*3 5.98 C 2.675 km/h
1074 26-01-2019 23:00:00 5.53333 C 6.54 g/m*3 5.53 C 2 km/h
1075 27-01-2019 00:00:00 5.8 C 6.64 g/m*3 4.68 C 5.9 km/h
Sensor: Nr:Datum:Temp:Abs-Feuchte:Windchill:Wind:
Aussen-T/F 1076 27-01-2019 01:00:00 5.7 C 6.62 g/m*3 5.7 C 3.88333 km/h
1077 27-01-2019 02:00:00 5.975 C 6.68 g/m*3 4.88 C 5.88333 km/h
1078 27-01-2019 03:00:00 6.41667 C 6.76 g/m*3 5.43 C 5.75833 km/h
1079 27-01-2019 04:00:00 6.18333 C 6.7 g/m*3 6.18 C 4.425 km/h
1080 27-01-2019 05:00:00 5.9 C 6.6 g/m*3 5.02 C 5.21667 km/h
1081 27-01-2019 06:00:00 6.13333 C 6.62 g/m*3 4.81 C 6.70833 km/h
1082 27-01-2019 07:00:00 6.51667 C 6.82 g/m*3 6.52 C 4.95 km/h
1083 27-01-2019 08:00:00 6.5 C 6.81 g/m*3 5.44 C 6.03333 km/h
1084 27-01-2019 09:00:00 5.99167 C 6.75 g/m*3 5.03 C 5.48333 km/h
1085 27-01-2019 10:00:00 5.74167 C 6.76 g/m*3 5.74 C 4.28333 km/h
1086 27-01-2019 11:00:00 7.025 C 7.12 g/m*3 5.03 C 10.21667 km/h
1087 27-01-2019 12:00:00 7.69167 C 7.08 g/m*3 6.19 C 8.46667 km/h
1088 27-01-2019 13:00:00 7.75833 C 7.05 g/m*3 5.88 C 10.36667 km/h
1089 27-01-2019 14:00:00 8.175 C 7.09 g/m*3 6.49 C 9.80833 km/h
1090 27-01-2019 15:00:00 7.73333 C 7.13 g/m*3 7.11 C 5.225 km/h
1091 27-01-2019 16:00:00 7.06667 C 6.93 g/m*3 5.22 C 9.54167 km/h
1092 27-01-2019 17:00:00 6.6 C 6.62 g/m*3 3.74 C 14.89167 km/h
1093 27-01-2019 18:00:00 5.5 C 6.29 g/m*3 3.07 C 10.89167 km/h
1094 27-01-2019 19:00:00 4.53333 C 5.96 g/m*3 3.04 C 6.43333 km/h
1095 27-01-2019 20:00:00 3.89167 C 5.62 g/m*3 1.74 C 8.33333 km/h
1096 27-01-2019 21:00:00 3.45833 C 5.45 g/m*3 3.46 C 4.7 km/h
1097 27-01-2019 22:00:00 3.25833 C 5.43 g/m*3 1.36 C 7.09167 km/h
1098 27-01-2019 23:00:00 3.15 C 5.31 g/m*3 0.79 C 8.60833 km/h
1099 28-01-2019 00:00:00 3.06667 C 5.36 g/m*3 -0.05 C 11.83333 km/h
1100 28-01-2019 01:00:00 3.40833 C 5.4 g/m*3 0.26 C 12.35833 km/h
Sensor: Nr:Datum:Temp:Abs-Feuchte:Windchill:Wind:
Aussen-T/F 1101 28-01-2019 02:00:00 3.21667 C 5.39 g/m*3 0.57 C 9.80833 km/h
1102 28-01-2019 03:00:00 3.24167 C 5.43 g/m*3 -0.05 C 12.9 km/h
1103 28-01-2019 04:00:00 3.23333 C 5.47 g/m*3 0.04 C 12.36667 km/h
1104 28-01-2019 05:00:00 3.26667 C 5.42 g/m*3 -0.54 C 15.96667 km/h
1105 28-01-2019 06:00:00 3.16667 C 5.4 g/m*3 -1.14 C 19.16667 km/h
1106 28-01-2019 07:00:00 2.71667 C 5.41 g/m*3 -1.41 C 17.175 km/h
1107 28-01-2019 08:00:00 2.5 C 5.38 g/m*3 -1.49 C 15.96667 km/h
1108 28-01-2019 09:00:00 2.24167 C 5.33 g/m*3 -0.99 C 11.56667 km/h
1109 28-01-2019 10:00:00 2.40833 C 5.43 g/m*3 -1.17 C 13.43333 km/h
1110 28-01-2019 11:00:00 2.925 C 5.62 g/m*3 -0.56 C 13.56667 km/h
1111 28-01-2019 12:00:00 3.3 C 5.74 g/m*3 0.26 C 11.7 km/h
1112 28-01-2019 13:00:00 3.55 C 5.82 g/m*3 0.73 C 10.88333 km/h
1113 28-01-2019 14:00:00 4.03333 C 5.87 g/m*3 0.99 C 12.5 km/h
1114 28-01-2019 15:00:00 4.01667 C 5.77 g/m*3 0.66 C 14.23333 km/h
1115 28-01-2019 16:00:00 3.44167 C 5.61 g/m*3 0.03 C 13.81667 km/h
1116 28-01-2019 17:00:00 2.975 C 5.5 g/m*3 0.77 C 7.93333 km/h
1117 28-01-2019 18:00:00 2.80833 C 5.44 g/m*3 1.19 C 6.05 km/h
1118 28-01-2019 19:00:00 3 C 5.28 g/m*3 0.41 C 9.4 km/h
1119 28-01-2019 20:00:00 3.46667 C 5.27 g/m*3 0.66 C 10.75 km/h
1120 28-01-2019 21:00:00 3.35833 C 5.28 g/m*3 1.35 C 7.50833 km/h
1121 28-01-2019 22:00:00 3.48333 C 5.29 g/m*3 0.95 C 9.54167 km/h
1122 28-01-2019 23:00:00 3.28333 C 5.28 g/m*3 1.56 C 6.55833 km/h
1123 29-01-2019 00:00:00 2.75 C 5.19 g/m*3 1.39 C 5.34167 km/h
1124 29-01-2019 01:00:00 2.38333 C 5.18 g/m*3 1.03 C 5.20833 km/h
1125 29-01-2019 02:00:00 1.91667 C 5.12 g/m*3 -0.08 C 6.70833 km/h
Sensor: Nr:Datum:Temp:Abs-Feuchte:Windchill:Wind:
Aussen-T/F 1126 29-01-2019 03:00:00 1.59167 C 5.07 g/m*3 1.59 C 4.54167 km/h
1127 29-01-2019 04:00:00 1.04167 C 4.89 g/m*3 -1.09 C 6.71667 km/h
1128 29-01-2019 05:00:00 0.69167 C 4.79 g/m*3 0.69 C 4.55 km/h
1129 29-01-2019 06:00:00 0.95 C 4.91 g/m*3 0.95 C 4.68333 km/h
1130 29-01-2019 07:00:00 1.15 C 4.93 g/m*3 1.15 C 4.275 km/h
1131 29-01-2019 08:00:00 1.18333 C 4.94 g/m*3 1.18 C 3.6 km/h
1132 29-01-2019 09:00:00 1.00833 C 4.88 g/m*3 1.01 C 4.53333 km/h
1133 29-01-2019 10:00:00 2.06667 C 5.08 g/m*3 0.55 C 5.48333 km/h
1134 29-01-2019 11:00:00 2.91667 C 5.19 g/m*3 1.47 C 5.61667 km/h
1135 29-01-2019 12:00:00 3.63333 C 5.29 g/m*3 3.63 C 4.95833 km/h
1136 29-01-2019 13:00:00 3.96667 C 5.32 g/m*3 2.58 C 5.875 km/h
1137 29-01-2019 14:00:00 3.85 C 5.21 g/m*3 3.85 C 4.275 km/h
1138 29-01-2019 15:00:00 3.8 C 5.11 g/m*3 3.8 C 2.4 km/h
1139 29-01-2019 16:00:00 3.76667 C 5.11 g/m*3 3.77 C 0.13333 km/h
1140 29-01-2019 17:00:00 2.78333 C 4.96 g/m*3 2.78 C 0.13333 km/h
1141 29-01-2019 18:00:00 1.3 C 4.62 g/m*3 1.3 C 0.4 km/h
1142 29-01-2019 19:00:00 0.25833 C 4.43 g/m*3 0.26 C 0 km/h
1143 29-01-2019 20:00:00 -0.25833 C 4.33 g/m*3 -0.26 C 0 km/h
1144 29-01-2019 21:00:00 -0.3 C 4.32 g/m*3 -0.3 C 0 km/h
1145 29-01-2019 22:00:00 -0.375 C 4.31 g/m*3 -0.38 C 0 km/h
1146 29-01-2019 23:00:00 -0.55 C 4.31 g/m*3 -0.55 C 0 km/h
1147 30-01-2019 00:00:00 -0.55 C 4.34 g/m*3 -0.55 C 1.73333 km/h
1148 30-01-2019 01:00:00 -0.675 C 4.3 g/m*3 -0.68 C 0.8 km/h
1149 30-01-2019 02:00:00 -0.68333 C 4.3 g/m*3 -0.68 C 0.8 km/h
1150 30-01-2019 03:00:00 -0.8 C 4.24 g/m*3 -0.8 C 0.4 km/h
Sensor: Nr:Datum:Temp:Abs-Feuchte:Windchill:Wind:
Aussen-T/F 1151 30-01-2019 04:00:00 -0.875 C 4.23 g/m*3 -0.88 C 1.06667 km/h
1152 30-01-2019 05:00:00 -0.51667 C 4.3 g/m*3 -0.52 C 0.4 km/h
1153 30-01-2019 06:00:00 -0.10833 C 4.36 g/m*3 -0.11 C 0.26667 km/h
1154 30-01-2019 07:00:00 0.30833 C 4.38 g/m*3 0.31 C 3.06667 km/h
1155 30-01-2019 08:00:00 0.16667 C 4.49 g/m*3 0.17 C 1.2 km/h
1156 30-01-2019 09:00:00 0.025 C 4.55 g/m*3 0.03 C 0.4 km/h
1157 30-01-2019 10:00:00 0.3 C 4.65 g/m*3 0.3 C 0.26667 km/h
1158 30-01-2019 11:00:00 0.825 C 4.82 g/m*3 0.83 C 0.13333 km/h
1159 30-01-2019 12:00:00 1.40833 C 5.02 g/m*3 1.41 C 0.26667 km/h
1160 30-01-2019 13:00:00 1.66667 C 5.11 g/m*3 1.67 C 0.26667 km/h
1161 30-01-2019 14:00:00 1.70833 C 5.11 g/m*3 1.71 C 0 km/h
1162 30-01-2019 15:00:00 1.475 C 5.04 g/m*3 1.48 C 3.61667 km/h
1163 30-01-2019 16:00:00 1.15833 C 4.97 g/m*3 1.16 C 4.53333 km/h
1164 30-01-2019 17:00:00 1.1 C 4.96 g/m*3 1.1 C 4.68333 km/h
1165 30-01-2019 18:00:00 1.075 C 4.96 g/m*3 1.08 C 4.00833 km/h
1166 30-01-2019 19:00:00 1.08333 C 5 g/m*3 1.08 C 1.73333 km/h
1167 30-01-2019 20:00:00 1.03333 C 4.98 g/m*3 -1.78 C 8.86667 km/h
1168 30-01-2019 21:00:00 0.95833 C 4.86 g/m*3 -1.79 C 8.6 km/h
1169 30-01-2019 22:00:00 0.71667 C 4.73 g/m*3 -1.96 C 8.19167 km/h
1170 30-01-2019 23:00:00 0.23333 C 4.55 g/m*3 -1.82 C 6.15 km/h
1171 31-01-2019 00:00:00 -0.4 C 4.38 g/m*3 -0.4 C 4.00833 km/h
1172 31-01-2019 01:00:00 -1.24167 C 4.17 g/m*3 -1.24 C 0 km/h
1173 31-01-2019 02:00:00 -1.29167 C 4.19 g/m*3 -1.29 C 0 km/h
1174 31-01-2019 03:00:00 -1.30833 C 4.2 g/m*3 -1.31 C 0 km/h
1175 31-01-2019 04:00:00 -0.8 C 4.38 g/m*3 -0.8 C 0 km/h
Sensor: Nr:Datum:Temp:Abs-Feuchte:Windchill:Wind:
Aussen-T/F 1176 31-01-2019 05:00:00 -0.61667 C 4.46 g/m*3 -0.62 C 0 km/h
1177 31-01-2019 06:00:00 -0.41667 C 4.52 g/m*3 -0.42 C 0 km/h
1178 31-01-2019 07:00:00 -0.35833 C 4.54 g/m*3 -0.36 C 0 km/h
1179 31-01-2019 08:00:00 -0.29167 C 4.56 g/m*3 -0.29 C 0 km/h
1180 31-01-2019 09:00:00 0.15833 C 4.7 g/m*3 0.16 C 0.53333 km/h
1181 31-01-2019 10:00:00 0.725 C 4.85 g/m*3 0.73 C 2.275 km/h
1182 31-01-2019 11:00:00 1.39167 C 5.02 g/m*3 1.39 C 0.53333 km/h
1183 31-01-2019 12:00:00 1.81667 C 5.15 g/m*3 1.82 C 0.66667 km/h
1184 31-01-2019 13:00:00 1.53333 C 5.05 g/m*3 1.53 C 0.26667 km/h
1185 31-01-2019 14:00:00 1.83333 C 5.2 g/m*3 1.83 C 0 km/h
1186 31-01-2019 15:00:00 2.25 C 5.28 g/m*3 2.25 C 0 km/h
1187 31-01-2019 16:00:00 1.56667 C 5.03 g/m*3 1.57 C 0 km/h
1188 31-01-2019 17:00:00 0.93333 C 4.86 g/m*3 0.93 C 0 km/h
1189 31-01-2019 18:00:00 0.06667 C 4.58 g/m*3 0.07 C 3.33333 km/h
1190 31-01-2019 19:00:00 -1.11667 C 4.21 g/m*3 -1.12 C 2.13333 km/h
1191 31-01-2019 20:00:00 -1.95833 C 3.98 g/m*3 -1.96 C 0.93333 km/h
1192 31-01-2019 21:00:00 -2.00833 C 4 g/m*3 -2.01 C 0 km/h
1193 31-01-2019 22:00:00 -1.6 C 4.16 g/m*3 -1.6 C 0 km/h
1194 31-01-2019 23:00:00 -1.225 C 4.27 g/m*3 -1.23 C 0 km/h
1195 01-02-2019 00:00:00 -0.775 C 4.41 g/m*3 -0.78 C 0 km/h
1196 01-02-2019 01:00:00 -0.44167 C 4.51 g/m*3 -0.44 C 0 km/h
1197 01-02-2019 02:00:00 -0.125 C 4.61 g/m*3 -0.13 C 0 km/h
1198 01-02-2019 03:00:00 0.575 C 4.88 g/m*3 0.57 C 2.53333 km/h
1199 01-02-2019 04:00:00 1.08333 C 5.02 g/m*3 -0.52 C 5.35833 km/h
1200 01-02-2019 05:00:00 1.18333 C 5.04 g/m*3 1.18 C 2.54167 km/h
Sensor: Nr:Datum:Temp:Abs-Feuchte:Windchill:Wind:
Aussen-T/F 1201 01-02-2019 06:00:00 1.13333 C 5.02 g/m*3 1.13 C 1.2 km/h
1202 01-02-2019 07:00:00 1.2 C 5.05 g/m*3 1.2 C 1.73333 km/h
1203 01-02-2019 08:00:00 1.31667 C 5.1 g/m*3 1.32 C 2.66667 km/h
1204 01-02-2019 09:00:00 1.54167 C 5.17 g/m*3 1.54 C 1.60833 km/h
1205 01-02-2019 10:00:00 2.21667 C 5.41 g/m*3 2.22 C 3.06667 km/h
1206 01-02-2019 11:00:00 3.15833 C 5.71 g/m*3 3.16 C 1.46667 km/h
1207 01-02-2019 12:00:00 3.225 C 5.63 g/m*3 3.23 C 1.6 km/h
1208 01-02-2019 13:00:00 2.73333 C 5.51 g/m*3 2.73 C 3.06667 km/h
1209 01-02-2019 14:00:00 3.49167 C 5.83 g/m*3 3.49 C 3.06667 km/h
1210 01-02-2019 15:00:00 3.23333 C 5.67 g/m*3 3.23 C 3.6 km/h
1211 01-02-2019 16:00:00 2.86667 C 5.59 g/m*3 2.87 C 4.8 km/h
1212 01-02-2019 17:00:00 2.54167 C 5.5 g/m*3 2.54 C 4.66667 km/h
1213 01-02-2019 18:00:00 2.46667 C 5.51 g/m*3 2.47 C 4.26667 km/h
1214 01-02-2019 19:00:00 2.24167 C 5.42 g/m*3 2.24 C 3.86667 km/h
1215 01-02-2019 20:00:00 2.01667 C 5.34 g/m*3 2.02 C 2.93333 km/h
1216 01-02-2019 21:00:00 1.80833 C 5.27 g/m*3 1.81 C 0 km/h
1217 01-02-2019 22:00:00 1.675 C 5.22 g/m*3 1.68 C 0.13333 km/h
1218 01-02-2019 23:00:00 1.59167 C 5.23 g/m*3 1.59 C 0 km/h
1219 02-02-2019 00:00:00 1.74167 C 5.3 g/m*3 1.74 C 0 km/h
1220 02-02-2019 01:00:00 1.825 C 5.33 g/m*3 1.83 C 0 km/h
1221 02-02-2019 02:00:00 1.825 C 5.33 g/m*3 1.83 C 0 km/h
1222 02-02-2019 03:00:00 1.75833 C 5.3 g/m*3 1.76 C 0 km/h
1223 02-02-2019 04:00:00 1.81667 C 5.32 g/m*3 1.82 C 0 km/h
1224 02-02-2019 05:00:00 1.70833 C 5.28 g/m*3 1.71 C 0 km/h
1225 02-02-2019 06:00:00 1.725 C 5.29 g/m*3 1.73 C 0 km/h
Sensor: Nr:Datum:Temp:Abs-Feuchte:Windchill:Wind:
Aussen-T/F 1226 02-02-2019 07:00:00 1.73333 C 5.29 g/m*3 1.73 C 0 km/h
1227 02-02-2019 08:00:00 1.8 C 5.32 g/m*3 1.8 C 0 km/h
1228 02-02-2019 09:00:00 2.09167 C 5.42 g/m*3 2.09 C 0 km/h
1229 02-02-2019 10:00:00 2.71667 C 5.69 g/m*3 2.72 C 0.26667 km/h
1230 02-02-2019 11:00:00 3.05 C 5.79 g/m*3 3.05 C 0.26667 km/h
1231 02-02-2019 12:00:00 3.31667 C 5.89 g/m*3 3.32 C 0 km/h
1232 02-02-2019 13:00:00 3.675 C 6.03 g/m*3 3.68 C 0.53333 km/h
1233 02-02-2019 14:00:00 3.725 C 6.05 g/m*3 3.73 C 0 km/h
1234 02-02-2019 15:00:00 3.90833 C 6.13 g/m*3 3.91 C 0 km/h
1235 02-02-2019 16:00:00 3.675 C 6.03 g/m*3 3.68 C 0 km/h
1236 02-02-2019 17:00:00 3.25 C 5.86 g/m*3 3.25 C 0.53333 km/h
1237 02-02-2019 18:00:00 3.15833 C 5.83 g/m*3 1.96 C 5.075 km/h
1238 02-02-2019 19:00:00 2.625 C 5.6 g/m*3 2.63 C 3.60833 km/h
1239 02-02-2019 20:00:00 2.30833 C 5.46 g/m*3 2.31 C 4.81667 km/h
1240 02-02-2019 21:00:00 2.1 C 5.37 g/m*3 2.1 C 0.53333 km/h
1241 02-02-2019 22:00:00 1.875 C 5.29 g/m*3 0.07 C 6.15833 km/h
1242 02-02-2019 23:00:00 1.8 C 5.28 g/m*3 1.8 C 4.95 km/h
1243 03-02-2019 00:00:00 1.875 C 5.32 g/m*3 0.44 C 5.225 km/h
1244 03-02-2019 01:00:00 2.06667 C 5.36 g/m*3 -0.24 C 7.76667 km/h
1245 03-02-2019 02:00:00 2.15833 C 5.3 g/m*3 -1.21 C 12.09167 km/h
1246 03-02-2019 03:00:00 2.18333 C 5.23 g/m*3 -0.89 C 10.76667 km/h
1247 03-02-2019 04:00:00 2.1 C 5.23 g/m*3 -0.52 C 8.86667 km/h
1248 03-02-2019 05:00:00 2.18333 C 5.24 g/m*3 2.18 C 4 km/h
1249 03-02-2019 06:00:00 2.19167 C 5.21 g/m*3 -0.02 C 7.50833 km/h
1250 03-02-2019 07:00:00 1.9 C 5.13 g/m*3 -0.28 C 7.25833 km/h
Sensor: Nr:Datum:Temp:Abs-Feuchte:Windchill:Wind:
Aussen-T/F 1251 03-02-2019 08:00:00 1.875 C 5.12 g/m*3 1.88 C 4.96667 km/h
1252 03-02-2019 09:00:00 2.00833 C 5.18 g/m*3 2.01 C 2.54167 km/h
1253 03-02-2019 10:00:00 2.46667 C 5.24 g/m*3 -0.01 C 8.59167 km/h
1254 03-02-2019 11:00:00 3.10833 C 5.32 g/m*3 1.21 C 6.99167 km/h
1255 03-02-2019 12:00:00 3.58333 C 5.3 g/m*3 0.8 C 10.75 km/h
1256 03-02-2019 13:00:00 3.96667 C 5.29 g/m*3 0.91 C 12.5 km/h
1257 03-02-2019 14:00:00 4.1 C 5.32 g/m*3 1.12 C 12.23333 km/h
1258 03-02-2019 15:00:00 4.50833 C 5.05 g/m*3 1.82 C 11.16667 km/h
1259 03-02-2019 16:00:00 4.43333 C 4.98 g/m*3 3.3 C 5.35 km/h
1260 03-02-2019 17:00:00 4.26667 C 5.05 g/m*3 4.27 C 4.13333 km/h
1261 03-02-2019 18:00:00 3.875 C 5.19 g/m*3 3.88 C 3.34167 km/h
1262 03-02-2019 19:00:00 3.58333 C 5.25 g/m*3 3.58 C 2.13333 km/h
1263 03-02-2019 20:00:00 3.19167 C 5.25 g/m*3 3.19 C 2.4 km/h
1264 03-02-2019 21:00:00 1.925 C 4.92 g/m*3 1.93 C 1.46667 km/h
1265 03-02-2019 22:00:00 0.99167 C 4.73 g/m*3 0.99 C 0 km/h
1266 03-02-2019 23:00:00 0.25833 C 4.58 g/m*3 0.26 C 0.4 km/h
1267 04-02-2019 00:00:00 -0.31667 C 4.44 g/m*3 -0.32 C 1.06667 km/h
1268 04-02-2019 01:00:00 -0.05833 C 4.58 g/m*3 -0.06 C 1.73333 km/h
1269 04-02-2019 02:00:00 0 C 4.57 g/m*3 0 C 1.73333 km/h
1270 04-02-2019 03:00:00 -0.2 C 4.49 g/m*3 -2.81 C 7.50833 km/h
1271 04-02-2019 04:00:00 -0.475 C 4.41 g/m*3 -0.48 C 0.4 km/h
1272 04-02-2019 05:00:00 -0.03333 C 4.59 g/m*3 -0.03 C 0.4 km/h
1273 04-02-2019 06:00:00 0.36667 C 4.72 g/m*3 0.37 C 0 km/h
1274 04-02-2019 07:00:00 0.51667 C 4.77 g/m*3 0.52 C 0.26667 km/h
1275 04-02-2019 08:00:00 0.7 C 4.8 g/m*3 0.7 C 0.26667 km/h
Sensor: Nr:Datum:Temp:Abs-Feuchte:Windchill:Wind:
Aussen-T/F 1276 04-02-2019 09:00:00 0.60833 C 4.75 g/m*3 0.61 C 0.13333 km/h
1277 04-02-2019 10:00:00 0.9 C 4.85 g/m*3 0.9 C 0 km/h
1278 04-02-2019 11:00:00 2.04167 C 5.08 g/m*3 2.04 C 0 km/h
1279 04-02-2019 12:00:00 3.75 C 5.12 g/m*3 3.75 C 4.425 km/h
1280 04-02-2019 13:00:00 4.78333 C 4.86 g/m*3 2.8 C 8.325 km/h
1281 04-02-2019 14:00:00 5.30833 C 4.75 g/m*3 3.94 C 6.43333 km/h
1282 04-02-2019 15:00:00 5.325 C 4.63 g/m*3 5.33 C 4.55833 km/h
1283 04-02-2019 16:00:00 5 C 4.88 g/m*3 5 C 1.6 km/h
1284 04-02-2019 17:00:00 2.75 C 4.88 g/m*3 2.75 C 0.8 km/h
1285 04-02-2019 18:00:00 1.4 C 4.67 g/m*3 1.4 C 3.6 km/h
1286 04-02-2019 19:00:00 1.40833 C 4.78 g/m*3 1.41 C 1.6 km/h
1287 04-02-2019 20:00:00 2.00833 C 4.87 g/m*3 2.01 C 1.475 km/h
1288 04-02-2019 21:00:00 2.625 C 4.79 g/m*3 2.63 C 1.6 km/h
1289 04-02-2019 22:00:00 2.85 C 4.88 g/m*3 2.85 C 0.66667 km/h
1290 04-02-2019 23:00:00 2.71667 C 4.95 g/m*3 2.72 C 0.26667 km/h
1291 05-02-2019 00:00:00 2.99167 C 4.91 g/m*3 2.99 C 1.33333 km/h
1292 05-02-2019 01:00:00 3.31667 C 4.91 g/m*3 3.32 C 2.14167 km/h
1293 05-02-2019 02:00:00 3.41667 C 4.85 g/m*3 3.42 C 3.46667 km/h
1294 05-02-2019 03:00:00 3.6 C 4.82 g/m*3 3.6 C 1.06667 km/h
1295 05-02-2019 04:00:00 3.44167 C 4.83 g/m*3 3.44 C 3.75 km/h
1296 05-02-2019 05:00:00 3.65 C 4.76 g/m*3 2.36 C 5.49167 km/h
1297 05-02-2019 06:00:00 3.39167 C 4.97 g/m*3 3.39 C 0.93333 km/h
1298 05-02-2019 07:00:00 2.98333 C 5.04 g/m*3 2.98 C 0.13333 km/h
1299 05-02-2019 08:00:00 2.98333 C 5.05 g/m*3 2.98 C 0.53333 km/h
1300 05-02-2019 09:00:00 3.58333 C 4.97 g/m*3 2.23 C 5.61667 km/h
Sensor: Nr:Datum:Temp:Abs-Feuchte:Windchill:Wind:
Aussen-T/F 1301 05-02-2019 10:00:00 4.175 C 5.02 g/m*3 2.68 C 6.28333 km/h
1302 05-02-2019 11:00:00 5.00833 C 5.15 g/m*3 3.47 C 6.83333 km/h
1303 05-02-2019 12:00:00 5.85833 C 5.37 g/m*3 4.49 C 6.70833 km/h
1304 05-02-2019 13:00:00 6.30833 C 5.44 g/m*3 4.94 C 6.975 km/h
1305 05-02-2019 14:00:00 6.73333 C 5.55 g/m*3 5.47 C 6.85833 km/h
1306 05-02-2019 15:00:00 7.03333 C 5.71 g/m*3 7.03 C 4.8 km/h
1307 05-02-2019 16:00:00 6.83333 C 5.86 g/m*3 6.83 C 2 km/h
1308 05-02-2019 17:00:00 6.15833 C 6.08 g/m*3 6.16 C 0.4 km/h
1309 05-02-2019 18:00:00 5.15833 C 5.92 g/m*3 5.16 C 0.26667 km/h
1310 05-02-2019 19:00:00 4.75 C 5.85 g/m*3 4.75 C 0.53333 km/h
1311 05-02-2019 20:00:00 4.35 C 5.74 g/m*3 4.35 C 0.93333 km/h
1312 05-02-2019 21:00:00 4.10833 C 5.72 g/m*3 4.11 C 1.46667 km/h
1313 05-02-2019 22:00:00 2.69167 C 5.22 g/m*3 2.69 C 4.66667 km/h
1314 05-02-2019 23:00:00 1.725 C 5 g/m*3 1.73 C 2.66667 km/h
1315 06-02-2019 00:00:00 0.43333 C 4.62 g/m*3 0.43 C 0 km/h
1316 06-02-2019 01:00:00 -0.225 C 4.48 g/m*3 -0.23 C 0 km/h
1317 06-02-2019 02:00:00 -0.675 C 4.37 g/m*3 -0.68 C 0 km/h
1318 06-02-2019 03:00:00 -1.16667 C 4.24 g/m*3 -1.17 C 0 km/h
1319 06-02-2019 04:00:00 -1.425 C 4.17 g/m*3 -1.43 C 0 km/h
1320 06-02-2019 05:00:00 -1.59167 C 4.12 g/m*3 -1.59 C 0 km/h
1321 06-02-2019 06:00:00 -1.76667 C 4.07 g/m*3 -1.77 C 0 km/h
1322 06-02-2019 07:00:00 -1.975 C 4.01 g/m*3 -1.98 C 0.13333 km/h
1323 06-02-2019 08:00:00 -2.21667 C 3.97 g/m*3 -2.22 C 0.13333 km/h
1324 06-02-2019 09:00:00 -1.36667 C 4.23 g/m*3 -1.37 C 0 km/h
1325 06-02-2019 10:00:00 0.10833 C 4.69 g/m*3 0.11 C 0.66667 km/h
Sensor: Nr:Datum:Temp:Abs-Feuchte:Windchill:Wind:
Aussen-T/F 1326 06-02-2019 11:00:00 1.675 C 5.13 g/m*3 1.68 C 1.06667 km/h
1327 06-02-2019 12:00:00 2.98333 C 5.41 g/m*3 2.98 C 0.4 km/h
1328 06-02-2019 13:00:00 4.15 C 5.6 g/m*3 4.15 C 2.94167 km/h
1329 06-02-2019 14:00:00 5.675 C 5.05 g/m*3 3.45 C 10.08333 km/h
1330 06-02-2019 15:00:00 5.975 C 5.24 g/m*3 5.98 C 2.26667 km/h
1331 06-02-2019 16:00:00 5.13333 C 5.35 g/m*3 5.13 C 1.86667 km/h
1332 06-02-2019 17:00:00 3.79167 C 5.14 g/m*3 2.58 C 5.33333 km/h
1333 06-02-2019 18:00:00 2.64167 C 4.99 g/m*3 2.64 C 2.66667 km/h
1334 06-02-2019 19:00:00 2.14167 C 5.01 g/m*3 2.14 C 0 km/h
1335 06-02-2019 20:00:00 1.91667 C 4.95 g/m*3 1.92 C 0 km/h
1336 06-02-2019 21:00:00 1.53333 C 4.9 g/m*3 1.53 C 0 km/h
1337 06-02-2019 22:00:00 1.21667 C 4.83 g/m*3 1.22 C 0 km/h
1338 06-02-2019 23:00:00 1.26667 C 4.86 g/m*3 1.27 C 0 km/h
1339 07-02-2019 00:00:00 0.90833 C 4.73 g/m*3 0.91 C 0 km/h
1340 07-02-2019 01:00:00 1.20833 C 4.84 g/m*3 1.21 C 0 km/h
1341 07-02-2019 02:00:00 1.44167 C 4.89 g/m*3 1.44 C 0 km/h
1342 07-02-2019 03:00:00 1.73333 C 5 g/m*3 1.73 C 0.26667 km/h
1343 07-02-2019 04:00:00 2.33333 C 5.14 g/m*3 2.33 C 0.4 km/h
1344 07-02-2019 05:00:00 2.65833 C 5.29 g/m*3 2.66 C 4.01667 km/h
1345 07-02-2019 06:00:00 3.00833 C 5.26 g/m*3 3.01 C 3.06667 km/h
1346 07-02-2019 07:00:00 3.5 C 5.5 g/m*3 3.5 C 0.13333 km/h
1347 07-02-2019 08:00:00 3.99167 C 5.87 g/m*3 3.99 C 0.93333 km/h
1348 07-02-2019 09:00:00 4.53333 C 6.24 g/m*3 4.53 C 0.66667 km/h
1349 07-02-2019 10:00:00 5.175 C 6.54 g/m*3 5.18 C 0 km/h
1350 07-02-2019 11:00:00 5.675 C 6.8 g/m*3 5.68 C 3.475 km/h
Sensor: Nr:Datum:Temp:Abs-Feuchte:Windchill:Wind:
Aussen-T/F 1351 07-02-2019 12:00:00 6.775 C 7.26 g/m*3 4.34 C 12.36667 km/h
1352 07-02-2019 13:00:00 7.54167 C 7.3 g/m*3 4.77 C 15.83333 km/h
1353 07-02-2019 14:00:00 8.09167 C 7.08 g/m*3 5.49 C 15.56667 km/h
1354 07-02-2019 15:00:00 8.53333 C 6.92 g/m*3 5.95 C 16.23333 km/h
1355 07-02-2019 16:00:00 8.59167 C 6.81 g/m*3 6.68 C 11.56667 km/h
1356 07-02-2019 17:00:00 7.51667 C 6.58 g/m*3 7.52 C 4.41667 km/h
1357 07-02-2019 18:00:00 6.6 C 6.33 g/m*3 5.87 C 5.075 km/h
1358 07-02-2019 19:00:00 6.65 C 6.14 g/m*3 5.41 C 6.7 km/h
1359 07-02-2019 20:00:00 6.28333 C 6.14 g/m*3 6.28 C 4.275 km/h
1360 07-02-2019 21:00:00 6.9 C 6.33 g/m*3 4.86 C 10.35 km/h
1361 07-02-2019 22:00:00 6.44167 C 6.14 g/m*3 4.82 C 8.05 km/h
1362 07-02-2019 23:00:00 6.2 C 6.21 g/m*3 4.31 C 8.98333 km/h
1363 08-02-2019 00:00:00 5.525 C 6.14 g/m*3 3.91 C 7.39167 km/h
1364 08-02-2019 01:00:00 5.89167 C 6.23 g/m*3 4.58 C 6.55833 km/h
1365 08-02-2019 02:00:00 5.8 C 6.22 g/m*3 3.71 C 9.53333 km/h
1366 08-02-2019 03:00:00 5.75 C 6.25 g/m*3 4.62 C 5.9 km/h
1367 08-02-2019 04:00:00 6.28333 C 6.38 g/m*3 4.26 C 9.69167 km/h
1368 08-02-2019 05:00:00 6.4 C 6.41 g/m*3 5.2 C 6.44167 km/h
1369 08-02-2019 06:00:00 6.325 C 6.43 g/m*3 6.33 C 2.95 km/h
1370 08-02-2019 07:00:00 6.38333 C 6.46 g/m*3 5.39 C 5.75833 km/h
1371 08-02-2019 08:00:00 6.675 C 6.52 g/m*3 5.48 C 6.56667 km/h
1372 08-02-2019 09:00:00 7.05 C 6.65 g/m*3 7.05 C 4.41667 km/h
1373 08-02-2019 10:00:00 7.425 C 6.78 g/m*3 6 C 7.925 km/h
1374 08-02-2019 11:00:00 8.45 C 7.01 g/m*3 7.57 C 6.425 km/h
1375 08-02-2019 12:00:00 9.44167 C 7.21 g/m*3 8.07 C 9.425 km/h
Sensor: Nr:Datum:Temp:Abs-Feuchte:Windchill:Wind:
Aussen-T/F 1376 08-02-2019 13:00:00 9.21667 C 7.11 g/m*3 7.78 C 9.54167 km/h
1377 08-02-2019 14:00:00 8.40833 C 6.94 g/m*3 6.98 C 8.75 km/h
1378 08-02-2019 15:00:00 8.25 C 6.95 g/m*3 7.16 C 7.10833 km/h
1379 08-02-2019 16:00:00 8.28333 C 6.97 g/m*3 7.73 C 5.225 km/h
1380 08-02-2019 17:00:00 8.21667 C 6.87 g/m*3 7.66 C 5.225 km/h
1381 08-02-2019 18:00:00 8.06667 C 6.84 g/m*3 8.07 C 4.675 km/h
1382 08-02-2019 19:00:00 8.21667 C 6.79 g/m*3 7.7 C 5.1 km/h
1383 08-02-2019 20:00:00 8.23333 C 6.74 g/m*3 7.64 C 5.35 km/h
1384 08-02-2019 21:00:00 8.075 C 6.65 g/m*3 7.17 C 6.30833 km/h
1385 08-02-2019 22:00:00 7.75833 C 6.57 g/m*3 7.76 C 3.34167 km/h
1386 08-02-2019 23:00:00 8.1 C 6.59 g/m*3 7.24 C 6.16667 km/h
1387 09-02-2019 00:00:00 8.29167 C 6.56 g/m*3 7.62 C 5.61667 km/h
1388 09-02-2019 01:00:00 7.79167 C 6.64 g/m*3 7.79 C 3.2 km/h
1389 09-02-2019 02:00:00 7.475 C 6.83 g/m*3 5.43 C 10.98333 km/h
1390 09-02-2019 03:00:00 8.075 C 7 g/m*3 5.76 C 13.43333 km/h
1391 09-02-2019 04:00:00 8.90833 C 7.19 g/m*3 5.58 C 24.525 km/h
1392 09-02-2019 05:00:00 8.25833 C 7.03 g/m*3 5.89 C 14.09167 km/h
1393 09-02-2019 06:00:00 7.8 C 6.76 g/m*3 5.57 C 12.5 km/h
1394 09-02-2019 07:00:00 7.49167 C 6.85 g/m*3 4.8 C 15.16667 km/h
1395 09-02-2019 08:00:00 7.225 C 6.79 g/m*3 4.7 C 13.56667 km/h
1396 09-02-2019 09:00:00 7.73333 C 6.69 g/m*3 4.71 C 18.23333 km/h
1397 09-02-2019 10:00:00 8.85 C 6.93 g/m*3 6.14 C 17.96667 km/h
1398 09-02-2019 11:00:00 9.30833 C 6.98 g/m*3 6.89 C 16.36667 km/h
1399 09-02-2019 12:00:00 9.975 C 6.93 g/m*3 7.69 C 16.63333 km/h
1400 09-02-2019 13:00:00 10.73333 C 6.9 g/m*3 8.34 C 19.56667 km/h
Sensor: Nr:Datum:Temp:Abs-Feuchte:Windchill:Wind:
Aussen-T/F 1401 09-02-2019 14:00:00 11.125 C 6.83 g/m*3 11.13 C 20.51667 km/h
1402 09-02-2019 15:00:00 10.60833 C 6.68 g/m*3 8.6 C 15.56667 km/h
1403 09-02-2019 16:00:00 10.06667 C 6.79 g/m*3 7.94 C 15.43333 km/h
1404 09-02-2019 17:00:00 9.375 C 6.68 g/m*3 7.06 C 15.7 km/h
1405 09-02-2019 18:00:00 8.54167 C 6.69 g/m*3 6.24 C 14.1 km/h
1406 09-02-2019 19:00:00 7.86667 C 6.95 g/m*3 5.47 C 13.7 km/h
1407 09-02-2019 20:00:00 7.25 C 6.75 g/m*3 5.47 C 9.4 km/h
1408 09-02-2019 21:00:00 7.60833 C 6.93 g/m*3 5.07 C 14.23333 km/h
1409 09-02-2019 22:00:00 8.15833 C 6.99 g/m*3 5.84 C 13.56667 km/h
1410 09-02-2019 23:00:00 8.625 C 7.06 g/m*3 5.78 C 18.64167 km/h
1411 10-02-2019 00:00:00 8.61667 C 7.05 g/m*3 6.89 C 10.48333 km/h
1412 10-02-2019 01:00:00 7.85 C 6.87 g/m*3 7.85 C 2 km/h
1413 10-02-2019 02:00:00 7.41667 C 6.74 g/m*3 7.42 C 2.26667 km/h
1414 10-02-2019 03:00:00 7.60833 C 6.78 g/m*3 7.61 C 3.46667 km/h
1415 10-02-2019 04:00:00 6.98333 C 7 g/m*3 6.98 C 3.86667 km/h
1416 10-02-2019 05:00:00 6.95833 C 7.24 g/m*3 6.1 C 5.61667 km/h
1417 10-02-2019 06:00:00 7.625 C 7.59 g/m*3 6.33 C 7.50833 km/h
1418 10-02-2019 07:00:00 8.38333 C 7.91 g/m*3 6.84 C 9.26667 km/h
1419 10-02-2019 08:00:00 8.79167 C 7.98 g/m*3 7.13 C 10.34167 km/h
1420 10-02-2019 09:00:00 9.49167 C 8.1 g/m*3 7.61 C 12.625 km/h
1421 10-02-2019 10:00:00 10.05833 C 8.36 g/m*3 7.74 C 17.175 km/h
1422 10-02-2019 11:00:00 9.725 C 8.38 g/m*3 7.34 C 17.03333 km/h
1423 10-02-2019 12:00:00 9.65833 C 8.43 g/m*3 7.31 C 16.5 km/h
1424 10-02-2019 13:00:00 9.775 C 8.5 g/m*3 7.37 C 17.3 km/h
1425 10-02-2019 14:00:00 9.45833 C 8.22 g/m*3 7.05 C 16.63333 km/h
Sensor: Nr:Datum:Temp:Abs-Feuchte:Windchill:Wind:
Aussen-T/F 1426 10-02-2019 15:00:00 8.78333 C 7.53 g/m*3 5.67 C 21.7 km/h
1427 10-02-2019 16:00:00 8.48333 C 7.41 g/m*3 5.54 C 19.3 km/h
1428 10-02-2019 17:00:00 7.95 C 7.11 g/m*3 4.48 C 23.05833 km/h
1429 10-02-2019 18:00:00 6.475 C 6.75 g/m*3 3.66 C 14.36667 km/h
1430 10-02-2019 19:00:00 6.41667 C 6.58 g/m*3 3.32 C 16.23333 km/h
1431 10-02-2019 20:00:00 6.68333 C 6.65 g/m*3 3.4 C 18.24167 km/h
1432 10-02-2019 21:00:00 6.14167 C 6.49 g/m*3 2.93 C 16.63333 km/h
1433 10-02-2019 22:00:00 6.14167 C 6.14 g/m*3 2.08 C 23.99167 km/h
1434 10-02-2019 23:00:00 5.58333 C 6.03 g/m*3 1.58 C 21.975 km/h
1435 11-02-2019 00:00:00 4.96667 C 6.03 g/m*3 1.3 C 17.83333 km/h
1436 11-02-2019 01:00:00 4.3 C 5.99 g/m*3 1.31 C 12.5 km/h
1437 11-02-2019 02:00:00 3.93333 C 5.9 g/m*3 1.31 C 10.34167 km/h
1438 11-02-2019 03:00:00 3.8 C 5.86 g/m*3 1.5 C 8.85833 km/h
1439 11-02-2019 04:00:00 3.60833 C 5.81 g/m*3 2.02 C 6.29167 km/h
1440 11-02-2019 05:00:00 3.85 C 5.92 g/m*3 2.3 C 6.29167 km/h
1441 11-02-2019 06:00:00 3.825 C 5.91 g/m*3 2.14 C 6.69167 km/h
1442 11-02-2019 07:00:00 4.06667 C 5.92 g/m*3 2.06 C 7.93333 km/h
1443 11-02-2019 08:00:00 4.09167 C 5.82 g/m*3 3.02 C 5.075 km/h
1444 11-02-2019 09:00:00 4.20833 C 5.8 g/m*3 2.67 C 6.43333 km/h
1445 11-02-2019 10:00:00 4.98333 C 5.86 g/m*3 2.71 C 9.675 km/h
1446 11-02-2019 11:00:00 5.94167 C 5.93 g/m*3 3.41 C 11.95833 km/h
1447 11-02-2019 12:00:00 6.61667 C 5.93 g/m*3 4.15 C 12.36667 km/h
1448 11-02-2019 13:00:00 7.29167 C 5.88 g/m*3 4.57 C 15.03333 km/h
1449 11-02-2019 14:00:00 7.35833 C 5.78 g/m*3 5.23 C 11.3 km/h
1450 11-02-2019 15:00:00 7.35833 C 5.85 g/m*3 5.33 C 10.75833 km/h
Sensor: Nr:Datum:Temp:Abs-Feuchte:Windchill:Wind:
Aussen-T/F 1451 11-02-2019 16:00:00 6.90833 C 6.08 g/m*3 4.79 C 10.74167 km/h
1452 11-02-2019 17:00:00 6.2 C 6.16 g/m*3 4.85 C 6.83333 km/h
1453 11-02-2019 18:00:00 5.73333 C 5.66 g/m*3 3.76 C 8.99167 km/h
1454 11-02-2019 19:00:00 4.83333 C 5.69 g/m*3 3.61 C 5.75833 km/h
1455 11-02-2019 20:00:00 4.15833 C 5.62 g/m*3 4.16 C 3.875 km/h
1456 11-02-2019 21:00:00 3.45 C 5.43 g/m*3 3.45 C 3.6 km/h
1457 11-02-2019 22:00:00 2.76667 C 5.27 g/m*3 2.77 C 2.26667 km/h
1458 11-02-2019 23:00:00 2.56667 C 5.29 g/m*3 2.57 C 1.46667 km/h
1459 12-02-2019 00:00:00 3.125 C 5.39 g/m*3 3.13 C 2.66667 km/h
1460 12-02-2019 01:00:00 3.05833 C 5.36 g/m*3 3.06 C 0.66667 km/h
1461 12-02-2019 02:00:00 2.8 C 5.33 g/m*3 2.8 C 2.4 km/h
1462 12-02-2019 03:00:00 2.63333 C 5.26 g/m*3 2.63 C 3.33333 km/h
1463 12-02-2019 04:00:00 2.48333 C 5.24 g/m*3 2.48 C 3.06667 km/h
1464 12-02-2019 05:00:00 2.63333 C 5.25 g/m*3 2.63 C 3.20833 km/h
1465 12-02-2019 06:00:00 2.4 C 5.14 g/m*3 0.88 C 5.61667 km/h
1466 12-02-2019 07:00:00 2.41667 C 5.14 g/m*3 0.8 C 5.875 km/h
1467 12-02-2019 08:00:00 2.275 C 5.1 g/m*3 0.84 C 5.35 km/h
1468 12-02-2019 09:00:00 2.98333 C 5.27 g/m*3 1.55 C 5.60833 km/h
1469 12-02-2019 10:00:00 3.95833 C 5.47 g/m*3 1.89 C 8.08333 km/h
1470 12-02-2019 11:00:00 4.65833 C 5.59 g/m*3 2.9 C 7.39167 km/h
1471 12-02-2019 12:00:00 5.44167 C 5.75 g/m*3 3.74 C 7.65 km/h
1472 12-02-2019 13:00:00 6.30833 C 5.88 g/m*3 4.56 C 8.45833 km/h
1473 12-02-2019 14:00:00 6.875 C 5.9 g/m*3 4.68 C 11.16667 km/h
1474 12-02-2019 15:00:00 7.05 C 5.89 g/m*3 5.23 C 9.40833 km/h
1475 12-02-2019 16:00:00 7.425 C 5.96 g/m*3 5.56 C 9.95833 km/h
Sensor: Nr:Datum:Temp:Abs-Feuchte:Windchill:Wind:
Aussen-T/F 1476 12-02-2019 17:00:00 6.55833 C 5.82 g/m*3 5.68 C 5.49167 km/h
1477 12-02-2019 18:00:00 4.35833 C 5.51 g/m*3 4.36 C 4.13333 km/h
1478 12-02-2019 19:00:00 3.025 C 5.27 g/m*3 3.03 C 3.2 km/h
1479 12-02-2019 20:00:00 2.33333 C 5.13 g/m*3 2.33 C 3.33333 km/h
1480 12-02-2019 21:00:00 1.59167 C 4.95 g/m*3 1.59 C 3.2 km/h
1481 12-02-2019 22:00:00 1.41667 C 4.96 g/m*3 -0.3 C 5.75833 km/h
1482 12-02-2019 23:00:00 1.375 C 4.97 g/m*3 1.38 C 4.26667 km/h
1483 13-02-2019 00:00:00 1.25 C 4.91 g/m*3 1.25 C 4.13333 km/h
1484 13-02-2019 01:00:00 0.85833 C 4.79 g/m*3 0.86 C 2.4 km/h
1485 13-02-2019 02:00:00 0.125 C 4.57 g/m*3 0.13 C 2.26667 km/h
1486 13-02-2019 03:00:00 -0.31667 C 4.46 g/m*3 -0.32 C 2 km/h
1487 13-02-2019 04:00:00 -0.33333 C 4.48 g/m*3 -0.33 C 1.6 km/h
1488 13-02-2019 05:00:00 -0.46667 C 4.46 g/m*3 -0.47 C 2 km/h
1489 13-02-2019 06:00:00 -0.45 C 4.47 g/m*3 -0.45 C 1.33333 km/h
1490 13-02-2019 07:00:00 0.26667 C 4.74 g/m*3 0.27 C 0.53333 km/h
1491 13-02-2019 08:00:00 0.66667 C 4.85 g/m*3 0.67 C 0.8 km/h
1492 13-02-2019 09:00:00 1.00833 C 4.94 g/m*3 1.01 C 2 km/h
1493 13-02-2019 10:00:00 1.60833 C 5.07 g/m*3 1.61 C 2.8 km/h
1494 13-02-2019 11:00:00 2.325 C 5.19 g/m*3 2.33 C 0.8 km/h
1495 13-02-2019 12:00:00 3.58333 C 5.52 g/m*3 3.58 C 1.6 km/h
1496 13-02-2019 13:00:00 4.89167 C 5.71 g/m*3 4.89 C 4.13333 km/h
1497 13-02-2019 14:00:00 5.41667 C 5.8 g/m*3 5.42 C 4.4 km/h
1498 13-02-2019 15:00:00 5.6 C 5.88 g/m*3 5.6 C 2.66667 km/h
1499 13-02-2019 16:00:00 5.54167 C 6.04 g/m*3 5.54 C 0 km/h
1500 13-02-2019 17:00:00 4.69167 C 5.89 g/m*3 4.69 C 0.93333 km/h
Sensor: Nr:Datum:Temp:Abs-Feuchte:Windchill:Wind:
Aussen-T/F 1501 13-02-2019 18:00:00 3.20833 C 5.46 g/m*3 3.21 C 0.66667 km/h
1502 13-02-2019 19:00:00 1.85 C 5.04 g/m*3 1.85 C 0 km/h
1503 13-02-2019 20:00:00 1.15 C 4.87 g/m*3 1.15 C 0 km/h
1504 13-02-2019 21:00:00 0.55833 C 4.65 g/m*3 0.56 C 0.13333 km/h
1505 13-02-2019 22:00:00 0.125 C 4.55 g/m*3 0.13 C 0.13333 km/h
1506 13-02-2019 23:00:00 -0.45 C 4.37 g/m*3 -0.45 C 0 km/h
1507 14-02-2019 00:00:00 -0.71667 C 4.3 g/m*3 -0.72 C 0 km/h
1508 14-02-2019 01:00:00 -1.05833 C 4.23 g/m*3 -1.06 C 0 km/h
1509 14-02-2019 02:00:00 -1.1 C 4.23 g/m*3 -1.1 C 0 km/h
1510 14-02-2019 03:00:00 -1.53333 C 4.1 g/m*3 -1.53 C 0.13333 km/h
1511 14-02-2019 04:00:00 -1.775 C 4.06 g/m*3 -1.78 C 0 km/h
1512 14-02-2019 05:00:00 -1.96667 C 4.01 g/m*3 -1.97 C 0 km/h
1513 14-02-2019 06:00:00 -2.45 C 3.88 g/m*3 -2.45 C 0 km/h
1514 14-02-2019 07:00:00 -2.65 C 3.83 g/m*3 -2.65 C 0 km/h
1515 14-02-2019 08:00:00 -2.43333 C 3.91 g/m*3 -2.43 C 0.4 km/h
1516 14-02-2019 09:00:00 -2.08333 C 4.02 g/m*3 -2.08 C 0.53333 km/h
1517 14-02-2019 10:00:00 -1.69167 C 4.14 g/m*3 -1.69 C 0.4 km/h
1518 14-02-2019 11:00:00 -0.9 C 4.39 g/m*3 -0.9 C 0.26667 km/h
1519 14-02-2019 12:00:00 0.675 C 4.92 g/m*3 0.68 C 0.66667 km/h
1520 14-02-2019 13:00:00 2.75833 C 5.67 g/m*3 2.76 C 0.4 km/h
1521 14-02-2019 14:00:00 4.65833 C 6.28 g/m*3 4.66 C 0.53333 km/h
1522 14-02-2019 15:00:00 6.48333 C 6.77 g/m*3 6.48 C 1.2 km/h
1523 14-02-2019 16:00:00 6.08333 C 6.43 g/m*3 6.08 C 0 km/h
1524 14-02-2019 17:00:00 5.625 C 6.22 g/m*3 5.63 C 0 km/h
1525 14-02-2019 18:00:00 4.58333 C 5.72 g/m*3 4.58 C 0 km/h
Sensor: Nr:Datum:Temp:Abs-Feuchte:Windchill:Wind:
Aussen-T/F 1526 14-02-2019 19:00:00 3.30833 C 5.17 g/m*3 3.31 C 0 km/h
1527 14-02-2019 20:00:00 2.78333 C 5.09 g/m*3 2.78 C 0 km/h
1528 14-02-2019 21:00:00 1.55 C 4.82 g/m*3 1.55 C 0 km/h
1529 14-02-2019 22:00:00 0.49167 C 4.57 g/m*3 0.49 C 0 km/h
1530 14-02-2019 23:00:00 -0.05833 C 4.48 g/m*3 -0.06 C 0 km/h
1531 15-02-2019 00:00:00 -0.55 C 4.37 g/m*3 -0.55 C 0 km/h
1532 15-02-2019 01:00:00 -0.93333 C 4.28 g/m*3 -0.93 C 0 km/h
1533 15-02-2019 02:00:00 -1.15 C 4.24 g/m*3 -1.15 C 0 km/h
1534 15-02-2019 03:00:00 -1.40833 C 4.17 g/m*3 -1.41 C 0 km/h
1535 15-02-2019 04:00:00 -1.50833 C 4.14 g/m*3 -1.51 C 0 km/h
1536 15-02-2019 05:00:00 -1.88333 C 4.04 g/m*3 -1.88 C 0 km/h
1537 15-02-2019 06:00:00 -2.075 C 3.99 g/m*3 -2.08 C 0 km/h
1538 15-02-2019 07:00:00 -2.4 C 3.89 g/m*3 -2.4 C 0 km/h
1539 15-02-2019 08:00:00 -2.2 C 3.99 g/m*3 -2.2 C 0 km/h
1540 15-02-2019 09:00:00 -1.69167 C 4.14 g/m*3 -1.69 C 0 km/h
1541 15-02-2019 10:00:00 -0.7 C 4.44 g/m*3 -0.7 C 0 km/h
1542 15-02-2019 11:00:00 1.26667 C 5.13 g/m*3 1.27 C 0 km/h
1543 15-02-2019 12:00:00 3.41667 C 5.91 g/m*3 3.42 C 0 km/h
1544 15-02-2019 13:00:00 5.93333 C 6.62 g/m*3 5.93 C 2.4 km/h
1545 15-02-2019 14:00:00 8.25833 C 6.95 g/m*3 7.71 C 5.2 km/h
1546 15-02-2019 15:00:00 9.58333 C 7.08 g/m*3 9.14 C 5.46667 km/h
1547 15-02-2019 16:00:00 10.65833 C 6.75 g/m*3 10.19 C 6.13333 km/h
1548 15-02-2019 17:00:00 9.35833 C 6.46 g/m*3 8.56 C 6.68333 km/h
1549 15-02-2019 18:00:00 7.275 C 6 g/m*3 6.38 C 5.86667 km/h
1550 15-02-2019 19:00:00 6.16667 C 5.85 g/m*3 6.17 C 4.26667 km/h
Sensor: Nr:Datum:Temp:Abs-Feuchte:Windchill:Wind:
Aussen-T/F 1551 15-02-2019 20:00:00 4.46667 C 5.54 g/m*3 4.47 C 0.53333 km/h
1552 15-02-2019 21:00:00 3.15833 C 5.3 g/m*3 3.16 C 0 km/h
1553 15-02-2019 22:00:00 1.85 C 4.97 g/m*3 1.85 C 0 km/h
1554 15-02-2019 23:00:00 1.23333 C 4.86 g/m*3 1.23 C 0 km/h
1555 16-02-2019 00:00:00 0.41667 C 4.63 g/m*3 0.42 C 0 km/h
1556 16-02-2019 01:00:00 -0.15 C 4.5 g/m*3 -0.15 C 0 km/h
1557 16-02-2019 02:00:00 -0.48333 C 4.42 g/m*3 -0.48 C 0.53333 km/h
1558 16-02-2019 03:00:00 -0.75833 C 4.36 g/m*3 -0.76 C 0.13333 km/h
1559 16-02-2019 04:00:00 -0.925 C 4.32 g/m*3 -0.93 C 0.13333 km/h
1560 16-02-2019 05:00:00 -1.11667 C 4.27 g/m*3 -1.12 C 1.06667 km/h
1561 16-02-2019 06:00:00 -1.20833 C 4.25 g/m*3 -1.21 C 0.8 km/h
1562 16-02-2019 07:00:00 -1.64167 C 4.11 g/m*3 -1.64 C 0.13333 km/h
1563 16-02-2019 08:00:00 -1.78333 C 4.09 g/m*3 -1.78 C 0.13333 km/h
1564 16-02-2019 09:00:00 -1.09167 C 4.31 g/m*3 -1.09 C 0 km/h
1565 16-02-2019 10:00:00 -0.225 C 4.6 g/m*3 -0.23 C 0 km/h
1566 16-02-2019 11:00:00 2.175 C 5.45 g/m*3 2.17 C 0.53333 km/h
1567 16-02-2019 12:00:00 4.96667 C 6.57 g/m*3 4.97 C 1.06667 km/h
1568 16-02-2019 13:00:00 7.85833 C 7.37 g/m*3 7.86 C 2.26667 km/h
1569 16-02-2019 14:00:00 10.66667 C 7.56 g/m*3 10.67 C 0 km/h
1570 16-02-2019 15:00:00 11.75833 C 7.33 g/m*3 11.76 C 4 km/h
1571 16-02-2019 16:00:00 11.88333 C 7.11 g/m*3 11.88 C 2.4 km/h
1572 16-02-2019 17:00:00 10.69167 C 6.87 g/m*3 10.69 C 4 km/h
1573 16-02-2019 18:00:00 8.74167 C 6.63 g/m*3 8.02 C 6 km/h
1574 16-02-2019 19:00:00 7.29167 C 6.4 g/m*3 7.29 C 2 km/h
1575 16-02-2019 20:00:00 5.41667 C 5.88 g/m*3 5.42 C 0 km/h
Sensor: Nr:Datum:Temp:Abs-Feuchte:Windchill:Wind:
Aussen-T/F 1576 16-02-2019 21:00:00 3.75833 C 5.54 g/m*3 3.76 C 0 km/h
1577 16-02-2019 22:00:00 2.8 C 5.35 g/m*3 2.8 C 0 km/h
1578 16-02-2019 23:00:00 1.95833 C 5.15 g/m*3 1.96 C 0 km/h
1579 17-02-2019 00:00:00 1.55 C 5.07 g/m*3 1.55 C 0 km/h
1580 17-02-2019 01:00:00 0.86667 C 4.85 g/m*3 0.87 C 0 km/h
1581 17-02-2019 02:00:00 0.34167 C 4.71 g/m*3 0.34 C 0 km/h
1582 17-02-2019 03:00:00 0.09167 C 4.65 g/m*3 0.09 C 0 km/h
1583 17-02-2019 04:00:00 -0.36667 C 4.5 g/m*3 -0.37 C 0 km/h
1584 17-02-2019 05:00:00 -0.85833 C 4.36 g/m*3 -0.86 C 0 km/h
1585 17-02-2019 06:00:00 -0.975 C 4.35 g/m*3 -0.98 C 0.13333 km/h
1586 17-02-2019 07:00:00 -1.25 C 4.26 g/m*3 -1.25 C 0 km/h
1587 17-02-2019 08:00:00 -1.33333 C 4.24 g/m*3 -1.33 C 0 km/h
1588 17-02-2019 09:00:00 -0.81667 C 4.4 g/m*3 -0.82 C 0 km/h
1589 17-02-2019 10:00:00 -0.16667 C 4.63 g/m*3 -0.17 C 0 km/h
1590 17-02-2019 11:00:00 1.93333 C 5.37 g/m*3 1.93 C 0.13333 km/h
1591 17-02-2019 12:00:00 4.73333 C 6.5 g/m*3 4.73 C 0.13333 km/h
1592 17-02-2019 13:00:00 7.51667 C 7.74 g/m*3 7.52 C 0.53333 km/h
1593 17-02-2019 14:00:00 9.76667 C 7.99 g/m*3 9.77 C 1.33333 km/h
1594 17-02-2019 15:00:00 11.19167 C 7.83 g/m*3 11.19 C 3.06667 km/h
1595 17-02-2019 16:00:00 11.94167 C 7.56 g/m*3 11.94 C 2.26667 km/h
1596 17-02-2019 17:00:00 11 C 7.26 g/m*3 10.59 C 6.13333 km/h
1597 17-02-2019 18:00:00 8.59167 C 6.56 g/m*3 8.59 C 4.8 km/h
1598 17-02-2019 19:00:00 6.73333 C 6.1 g/m*3 6.73 C 1.86667 km/h
1599 17-02-2019 20:00:00 4.69167 C 5.63 g/m*3 4.69 C 0 km/h
1600 17-02-2019 21:00:00 3.65 C 5.43 g/m*3 3.65 C 0.13333 km/h
Sensor: Nr:Datum:Temp:Abs-Feuchte:Windchill:Wind:
Aussen-T/F 1601 17-02-2019 22:00:00 2.375 C 5.11 g/m*3 2.38 C 0 km/h
1602 17-02-2019 23:00:00 1.7 C 4.99 g/m*3 1.7 C 0 km/h
1603 18-02-2019 00:00:00 1.46667 C 4.91 g/m*3 1.47 C 0 km/h
1604 18-02-2019 01:00:00 0.49167 C 4.64 g/m*3 0.49 C 0 km/h
1605 18-02-2019 02:00:00 0.08333 C 4.57 g/m*3 0.08 C 0.13333 km/h
1606 18-02-2019 03:00:00 -0.41667 C 4.43 g/m*3 -0.42 C 0 km/h
1607 18-02-2019 04:00:00 -0.775 C 4.34 g/m*3 -0.78 C 0 km/h
1608 18-02-2019 05:00:00 -1.21667 C 4.23 g/m*3 -1.22 C 0 km/h
1609 18-02-2019 06:00:00 -1.475 C 4.15 g/m*3 -1.48 C 0 km/h
1610 18-02-2019 07:00:00 -1.65 C 4.11 g/m*3 -1.65 C 0 km/h
1611 18-02-2019 08:00:00 -1.63333 C 4.13 g/m*3 -1.63 C 0.13333 km/h
1612 18-02-2019 09:00:00 -0.56667 C 4.47 g/m*3 -0.57 C 0.66667 km/h
1613 18-02-2019 10:00:00 0.19167 C 4.72 g/m*3 0.19 C 0.8 km/h
1614 18-02-2019 11:00:00 2.84167 C 5.69 g/m*3 2.84 C 0 km/h
1615 18-02-2019 12:00:00 6.04167 C 6.76 g/m*3 6.04 C 0 km/h
1616 18-02-2019 13:00:00 9.59167 C 7.36 g/m*3 9.59 C 0 km/h
1617 18-02-2019 14:00:00 11.34167 C 7.36 g/m*3 11.34 C 0 km/h
1618 18-02-2019 15:00:00 12.05833 C 7.16 g/m*3 12.06 C 0 km/h
1619 18-02-2019 16:00:00 11.84167 C 6.81 g/m*3 11.84 C 0 km/h
1620 18-02-2019 17:00:00 10.425 C 6.72 g/m*3 10.43 C 0 km/h
1621 18-02-2019 18:00:00 8.41667 C 6.35 g/m*3 8.42 C 0 km/h
1622 18-02-2019 19:00:00 7 C 6.2 g/m*3 7 C 0 km/h
1623 18-02-2019 20:00:00 5.65833 C 5.77 g/m*3 5.66 C 0.4 km/h
1624 18-02-2019 21:00:00 4.1 C 5.5 g/m*3 4.1 C 0 km/h
1625 18-02-2019 22:00:00 2.76667 C 5.19 g/m*3 2.77 C 0 km/h
Sensor: Nr:Datum:Temp:Abs-Feuchte:Windchill:Wind:
Aussen-T/F 1626 18-02-2019 23:00:00 2.13333 C 5.09 g/m*3 2.13 C 0 km/h
1627 19-02-2019 00:00:00 1.725 C 5.02 g/m*3 1.73 C 0 km/h
1628 19-02-2019 01:00:00 1.83333 C 5.1 g/m*3 1.83 C 0 km/h
1629 19-02-2019 02:00:00 1.85 C 5.13 g/m*3 1.85 C 0 km/h
1630 19-02-2019 03:00:00 2.34167 C 5.37 g/m*3 2.34 C 0.93333 km/h
1631 19-02-2019 04:00:00 3.7 C 5.86 g/m*3 3.7 C 4.41667 km/h
1632 19-02-2019 05:00:00 4.04167 C 5.79 g/m*3 4.04 C 2.93333 km/h
1633 19-02-2019 06:00:00 4.99167 C 5.96 g/m*3 4.99 C 4.41667 km/h
1634 19-02-2019 07:00:00 5.2 C 6.21 g/m*3 5.2 C 2.93333 km/h
1635 19-02-2019 08:00:00 4.89167 C 6.27 g/m*3 4.89 C 1.06667 km/h
1636 19-02-2019 09:00:00 5.25 C 6.55 g/m*3 4.28 C 5.225 km/h
1637 19-02-2019 10:00:00 6.34167 C 7 g/m*3 4.59 C 8.48333 km/h
1638 19-02-2019 11:00:00 7.28333 C 7.31 g/m*3 5.93 C 7.53333 km/h
1639 19-02-2019 12:00:00 8.71667 C 7.61 g/m*3 8.07 C 5.75833 km/h
1640 19-02-2019 13:00:00 9.94167 C 7.5 g/m*3 8.69 C 9.29167 km/h
1641 19-02-2019 14:00:00 10.65 C 7.29 g/m*3 9.26 C 10.9 km/h
1642 19-02-2019 15:00:00 10.94167 C 7.23 g/m*3 10.05 C 8.34167 km/h
1643 19-02-2019 16:00:00 10.9 C 7.18 g/m*3 10.28 C 6.98333 km/h
1644 19-02-2019 17:00:00 9.69167 C 6.87 g/m*3 9.69 C 4.15833 km/h
1645 19-02-2019 18:00:00 7.28333 C 6.56 g/m*3 7.28 C 4.54167 km/h
1646 19-02-2019 19:00:00 6.225 C 6.41 g/m*3 6.23 C 4.13333 km/h
1647 19-02-2019 20:00:00 5.44167 C 6.24 g/m*3 5.44 C 3.33333 km/h
1648 19-02-2019 21:00:00 4.85 C 6.03 g/m*3 4.85 C 0.53333 km/h
1649 19-02-2019 22:00:00 3.46667 C 5.6 g/m*3 3.47 C 0.66667 km/h
1650 19-02-2019 23:00:00 3.05 C 5.53 g/m*3 3.05 C 0.66667 km/h
Sensor: Nr:Datum:Temp:Abs-Feuchte:Windchill:Wind:
Aussen-T/F 1651 20-02-2019 00:00:00 2.6 C 5.4 g/m*3 2.6 C 0.8 km/h
1652 20-02-2019 01:00:00 1.78333 C 5.11 g/m*3 1.78 C 0 km/h
1653 20-02-2019 02:00:00 1.19167 C 4.96 g/m*3 1.19 C 0.13333 km/h
1654 20-02-2019 03:00:00 1.1 C 4.96 g/m*3 1.1 C 1.2 km/h
1655 20-02-2019 04:00:00 0.875 C 4.89 g/m*3 0.88 C 0.66667 km/h
1656 20-02-2019 05:00:00 1 C 4.96 g/m*3 1 C 1.06667 km/h
1657 20-02-2019 06:00:00 0.86667 C 4.92 g/m*3 0.87 C 0.4 km/h
1658 20-02-2019 07:00:00 0.73333 C 4.89 g/m*3 0.73 C 1.2 km/h
1659 20-02-2019 08:00:00 1.30833 C 5.11 g/m*3 1.31 C 2.41667 km/h
1660 20-02-2019 09:00:00 3.09167 C 5.78 g/m*3 0.06 C 11.43333 km/h
1661 20-02-2019 10:00:00 4.40833 C 6.25 g/m*3 1.7 C 11.16667 km/h
1662 20-02-2019 11:00:00 6.075 C 6.72 g/m*3 3.9 C 10.225 km/h
1663 20-02-2019 12:00:00 7.49167 C 7.04 g/m*3 6.21 C 7.36667 km/h
1664 20-02-2019 13:00:00 9.86667 C 7.29 g/m*3 8.2 C 11.7 km/h
1665 20-02-2019 14:00:00 10.85833 C 7.37 g/m*3 9.95 C 8.325 km/h
1666 20-02-2019 15:00:00 11.08333 C 7.35 g/m*3 11.08 C 6.15833 km/h
1667 20-02-2019 16:00:00 11.375 C 7.3 g/m*3 11.38 C 6.84167 km/h
1668 20-02-2019 17:00:00 10.35 C 7.12 g/m*3 10.35 C 3.875 km/h
1669 20-02-2019 18:00:00 7.29167 C 6.63 g/m*3 7.29 C 3.86667 km/h
1670 20-02-2019 19:00:00 6.16667 C 6.43 g/m*3 6.17 C 2.53333 km/h
1671 20-02-2019 20:00:00 4.86667 C 6.04 g/m*3 4.87 C 0.26667 km/h
1672 20-02-2019 21:00:00 3.775 C 5.73 g/m*3 3.78 C 0 km/h
1673 20-02-2019 22:00:00 2.7 C 5.41 g/m*3 2.7 C 0 km/h
1674 20-02-2019 23:00:00 2.10833 C 5.28 g/m*3 2.11 C 0.13333 km/h
1675 21-02-2019 00:00:00 1.575 C 5.1 g/m*3 1.58 C 0 km/h
Sensor: Nr:Datum:Temp:Abs-Feuchte:Windchill:Wind:
Aussen-T/F 1676 21-02-2019 01:00:00 1.58333 C 5.14 g/m*3 1.58 C 0.26667 km/h
1677 21-02-2019 02:00:00 1.06667 C 4.96 g/m*3 1.07 C 0 km/h
1678 21-02-2019 03:00:00 0.74167 C 4.89 g/m*3 0.74 C 0.26667 km/h
1679 21-02-2019 04:00:00 0.91667 C 4.95 g/m*3 0.92 C 1.33333 km/h
1680 21-02-2019 05:00:00 1.06667 C 5.02 g/m*3 1.07 C 1.2 km/h
1681 21-02-2019 06:00:00 1.25 C 5.08 g/m*3 1.25 C 0.93333 km/h
1682 21-02-2019 07:00:00 1.21667 C 5.08 g/m*3 1.22 C 0.4 km/h
1683 21-02-2019 08:00:00 2.10833 C 5.43 g/m*3 2.11 C 0.4 km/h
1684 21-02-2019 09:00:00 2.84167 C 5.71 g/m*3 2.84 C 0.66667 km/h
1685 21-02-2019 10:00:00 3.91667 C 6.13 g/m*3 3.92 C 1.2 km/h
1686 21-02-2019 11:00:00 5.725 C 6.76 g/m*3 5.73 C 0.93333 km/h
1687 21-02-2019 12:00:00 8.33333 C 7.59 g/m*3 8.33 C 2.94167 km/h
1688 21-02-2019 13:00:00 11.3 C 8.35 g/m*3 11.3 C 6.29167 km/h
1689 21-02-2019 14:00:00 12.6 C 8.52 g/m*3 12.6 C 6.30833 km/h
1690 21-02-2019 15:00:00 13.325 C 8.59 g/m*3 13.33 C 6.44167 km/h
1691 21-02-2019 16:00:00 13.34167 C 8.58 g/m*3 13.34 C 5.49167 km/h
1692 21-02-2019 17:00:00 12.48333 C 8.77 g/m*3 12.48 C 2.13333 km/h
1693 21-02-2019 18:00:00 10.56667 C 8.39 g/m*3 10.57 C 2.4 km/h
1694 21-02-2019 19:00:00 9.74167 C 8.06 g/m*3 9.74 C 3.46667 km/h
1695 21-02-2019 20:00:00 9.18333 C 7.98 g/m*3 9.18 C 0.53333 km/h
1696 21-02-2019 21:00:00 9.325 C 8.15 g/m*3 9.32 C 0.66667 km/h
1697 21-02-2019 22:00:00 9.275 C 8.01 g/m*3 9.28 C 0.13333 km/h
1698 21-02-2019 23:00:00 9.21667 C 7.99 g/m*3 9.22 C 1.6 km/h
1699 22-02-2019 00:00:00 9.575 C 8.12 g/m*3 9.57 C 2.675 km/h
1700 22-02-2019 01:00:00 9.76667 C 8.17 g/m*3 9.77 C 0.4 km/h
Sensor: Nr:Datum:Temp:Abs-Feuchte:Windchill:Wind:
Aussen-T/F 1701 22-02-2019 02:00:00 9.325 C 8.12 g/m*3 9.32 C 0.53333 km/h
1702 22-02-2019 03:00:00 9.55 C 8.41 g/m*3 9.55 C 0.53333 km/h
1703 22-02-2019 04:00:00 9.66667 C 8.55 g/m*3 9.67 C 0.53333 km/h
1704 22-02-2019 05:00:00 9.34167 C 8.49 g/m*3 9.34 C 0.53333 km/h
1705 22-02-2019 06:00:00 9.34167 C 8.56 g/m*3 9.34 C 2.13333 km/h
1706 22-02-2019 07:00:00 9.225 C 8.53 g/m*3 9.23 C 0.53333 km/h
1707 22-02-2019 08:00:00 9.16667 C 8.55 g/m*3 9.17 C 0.66667 km/h
1708 22-02-2019 09:00:00 9.50833 C 8.74 g/m*3 9.51 C 0.13333 km/h
1709 22-02-2019 10:00:00 9.93333 C 8.98 g/m*3 9.93 C 0 km/h
1710 22-02-2019 11:00:00 10.64167 C 9.28 g/m*3 10.64 C 1.86667 km/h
1711 22-02-2019 12:00:00 11.6 C 9.14 g/m*3 11.6 C 5.1 km/h
1712 22-02-2019 13:00:00 12.46667 C 9.01 g/m*3 12.47 C 4.26667 km/h
1713 22-02-2019 14:00:00 12.83333 C 8.75 g/m*3 12.83 C 2.8 km/h
1714 22-02-2019 15:00:00 13.275 C 8.57 g/m*3 13.28 C 1.33333 km/h
1715 22-02-2019 16:00:00 12.84167 C 8.24 g/m*3 12.84 C 1.86667 km/h
1716 22-02-2019 17:00:00 11.825 C 8.03 g/m*3 11.83 C 0.26667 km/h
1717 22-02-2019 18:00:00 9.075 C 7.36 g/m*3 9.07 C 1.73333 km/h
1718 22-02-2019 19:00:00 8.55 C 7.38 g/m*3 8.55 C 4.13333 km/h
1719 22-02-2019 20:00:00 8.99167 C 7.52 g/m*3 8.99 C 1.46667 km/h
1720 22-02-2019 21:00:00 8.475 C 7.35 g/m*3 8.48 C 2.53333 km/h
1721 22-02-2019 22:00:00 6.94167 C 6.86 g/m*3 6.94 C 3.06667 km/h
1722 22-02-2019 23:00:00 5.95 C 6.63 g/m*3 5.95 C 2.66667 km/h
1723 23-02-2019 00:00:00 5.31667 C 6.41 g/m*3 5.32 C 0.8 km/h
1724 23-02-2019 01:00:00 4.55 C 6.15 g/m*3 4.55 C 0 km/h
1725 23-02-2019 02:00:00 4.18333 C 6.05 g/m*3 4.18 C 0 km/h
Sensor: Nr:Datum:Temp:Abs-Feuchte:Windchill:Wind:
Aussen-T/F 1726 23-02-2019 03:00:00 3.81667 C 5.96 g/m*3 3.82 C 0.93333 km/h
1727 23-02-2019 04:00:00 4.26667 C 6.15 g/m*3 4.27 C 1.33333 km/h
1728 23-02-2019 05:00:00 4.525 C 6.16 g/m*3 4.53 C 4.025 km/h
1729 23-02-2019 06:00:00 4.83333 C 6.04 g/m*3 4.83 C 0.93333 km/h
1730 23-02-2019 07:00:00 4.79167 C 5.83 g/m*3 4.79 C 1.6 km/h
1731 23-02-2019 08:00:00 4.85 C 5.72 g/m*3 4.85 C 3.74167 km/h
1732 23-02-2019 09:00:00 4.775 C 5.58 g/m*3 2.75 C 8.48333 km/h
1733 23-02-2019 10:00:00 4.95 C 5.54 g/m*3 3.9 C 5.34167 km/h
1734 23-02-2019 11:00:00 6.125 C 5.78 g/m*3 5.05 C 5.89167 km/h
1735 23-02-2019 12:00:00 7.625 C 5.84 g/m*3 6.17 C 8.20833 km/h
1736 23-02-2019 13:00:00 9.05833 C 5.91 g/m*3 7.61 C 9.41667 km/h
1737 23-02-2019 14:00:00 10.01667 C 5.59 g/m*3 9.38 C 6.43333 km/h
1738 23-02-2019 15:00:00 10.78333 C 4.42 g/m*3 10.58 C 5.21667 km/h
1739 23-02-2019 16:00:00 10.71667 C 4.63 g/m*3 10.72 C 3.2 km/h
1740 23-02-2019 17:00:00 7.99167 C 5.22 g/m*3 7.99 C 2.13333 km/h
1741 23-02-2019 18:00:00 5.45833 C 4.97 g/m*3 5.46 C 0 km/h
1742 23-02-2019 19:00:00 4.36667 C 4.82 g/m*3 4.37 C 0 km/h
1743 23-02-2019 20:00:00 3.38333 C 4.64 g/m*3 3.38 C 0 km/h
1744 23-02-2019 21:00:00 2.03333 C 4.42 g/m*3 2.03 C 0 km/h
1745 23-02-2019 22:00:00 0.98333 C 4.29 g/m*3 0.98 C 0 km/h
1746 23-02-2019 23:00:00 0.45833 C 4.18 g/m*3 0.46 C 0 km/h
1747 24-02-2019 00:00:00 -0.25833 C 4.07 g/m*3 -0.26 C 0 km/h
1748 24-02-2019 01:00:00 -0.66667 C 4.03 g/m*3 -0.67 C 0 km/h
1749 24-02-2019 02:00:00 -1.16667 C 3.93 g/m*3 -1.17 C 0 km/h
1750 24-02-2019 03:00:00 -1.5 C 3.89 g/m*3 -1.5 C 0 km/h
Sensor: Nr:Datum:Temp:Abs-Feuchte:Windchill:Wind:
Aussen-T/F 1751 24-02-2019 04:00:00 -1.73333 C 3.87 g/m*3 -1.73 C 0 km/h
1752 24-02-2019 05:00:00 -1.875 C 3.83 g/m*3 -1.88 C 0 km/h
1753 24-02-2019 06:00:00 -2.06667 C 3.8 g/m*3 -2.07 C 0 km/h
1754 24-02-2019 07:00:00 -2.35833 C 3.75 g/m*3 -2.36 C 0 km/h
1755 24-02-2019 08:00:00 -2.10833 C 3.85 g/m*3 -2.11 C 0 km/h
1756 24-02-2019 09:00:00 -1.49167 C 4.01 g/m*3 -1.49 C 0 km/h
1757 24-02-2019 10:00:00 0.36667 C 4.41 g/m*3 0.37 C 0 km/h
1758 24-02-2019 11:00:00 4.09167 C 4.98 g/m*3 4.09 C 0 km/h
1759 24-02-2019 12:00:00 7.35 C 5.24 g/m*3 7.35 C 0 km/h
1760 24-02-2019 13:00:00 10.45833 C 4.27 g/m*3 10.46 C 4.40833 km/h
1761 24-02-2019 14:00:00 11.89167 C 3.86 g/m*3 11.89 C 6.7 km/h
1762 24-02-2019 15:00:00 12.41667 C 4.27 g/m*3 12.42 C 2.8 km/h
1763 24-02-2019 16:00:00 11.80833 C 4.9 g/m*3 11.81 C 3.2 km/h
1764 24-02-2019 17:00:00 10.3 C 5.02 g/m*3 10.3 C 0.4 km/h
1765 24-02-2019 18:00:00 8.44167 C 4.82 g/m*3 8.44 C 4 km/h
1766 24-02-2019 19:00:00 6.86667 C 4.69 g/m*3 6.87 C 3.73333 km/h
1767 24-02-2019 20:00:00 4.93333 C 4.49 g/m*3 4.93 C 0.26667 km/h
1768 24-02-2019 21:00:00 3.36667 C 4.36 g/m*3 3.37 C 0 km/h
1769 24-02-2019 22:00:00 2.54167 C 4.29 g/m*3 2.54 C 0 km/h
1770 24-02-2019 23:00:00 1.81667 C 4.23 g/m*3 1.82 C 0 km/h
1771 25-02-2019 00:00:00 1.175 C 4.15 g/m*3 1.18 C 0 km/h
1772 25-02-2019 01:00:00 0.925 C 4.18 g/m*3 0.93 C 0 km/h
1773 25-02-2019 02:00:00 0.13333 C 4.09 g/m*3 0.13 C 0 km/h
1774 25-02-2019 03:00:00 -0.00833 C 4.07 g/m*3 -0.01 C 0 km/h
1775 25-02-2019 04:00:00 -0.58333 C 4.01 g/m*3 -0.58 C 0 km/h
Sensor: Nr:Datum:Temp:Abs-Feuchte:Windchill:Wind:
Aussen-T/F 1776 25-02-2019 05:00:00 -0.70833 C 4.02 g/m*3 -0.71 C 0.66667 km/h
1777 25-02-2019 06:00:00 -0.86667 C 4.01 g/m*3 -0.87 C 0.13333 km/h
1778 25-02-2019 07:00:00 -1.21667 C 3.93 g/m*3 -1.22 C 0 km/h
1779 25-02-2019 08:00:00 -1.2 C 4 g/m*3 -1.2 C 0 km/h
1780 25-02-2019 09:00:00 -0.69167 C 4.1 g/m*3 -0.69 C 0 km/h
1781 25-02-2019 10:00:00 0.81667 C 4.46 g/m*3 0.82 C 0 km/h
1782 25-02-2019 11:00:00 4.675 C 5.17 g/m*3 4.68 C 1.06667 km/h
1783 25-02-2019 12:00:00 8.70833 C 5.81 g/m*3 8.71 C 1.06667 km/h
1784 25-02-2019 13:00:00 12.55 C 5.88 g/m*3 12.55 C 0.26667 km/h
1785 25-02-2019 14:00:00 14.74167 C 5.89 g/m*3 14.74 C 1.86667 km/h
1786 25-02-2019 15:00:00 14.175 C 6.05 g/m*3 14.18 C 1.73333 km/h
1787 25-02-2019 16:00:00 14.375 C 6.12 g/m*3 14.38 C 2.13333 km/h
1788 25-02-2019 17:00:00 13.64167 C 6.24 g/m*3 13.64 C 5.6 km/h
1789 25-02-2019 18:00:00 11.1 C 6.03 g/m*3 11.1 C 5.6 km/h
1790 25-02-2019 19:00:00 9.075 C 5.92 g/m*3 9.07 C 0.4 km/h
1791 25-02-2019 20:00:00 7.04167 C 5.67 g/m*3 7.04 C 0 km/h
1792 25-02-2019 21:00:00 5.575 C 5.41 g/m*3 5.58 C 0 km/h
1793 25-02-2019 22:00:00 4.55 C 5.24 g/m*3 4.55 C 0 km/h
1794 25-02-2019 23:00:00 3.25 C 5.05 g/m*3 3.25 C 0 km/h
1795 26-02-2019 00:00:00 2.425 C 4.92 g/m*3 2.42 C 0 km/h
1796 26-02-2019 01:00:00 1.93333 C 4.91 g/m*3 1.93 C 0 km/h
1797 26-02-2019 02:00:00 1.39167 C 4.78 g/m*3 1.39 C 0 km/h
1798 26-02-2019 03:00:00 0.63333 C 4.61 g/m*3 0.63 C 0 km/h
1799 26-02-2019 04:00:00 0.325 C 4.56 g/m*3 0.33 C 0 km/h
1800 26-02-2019 05:00:00 0.21667 C 4.58 g/m*3 0.22 C 0.8 km/h
Sensor: Nr:Datum:Temp:Abs-Feuchte:Windchill:Wind:
Aussen-T/F 1801 26-02-2019 06:00:00 -0.31667 C 4.4 g/m*3 -0.32 C 0.13333 km/h
1802 26-02-2019 07:00:00 -0.48333 C 4.39 g/m*3 -0.48 C 0.13333 km/h
1803 26-02-2019 08:00:00 -0.10833 C 4.54 g/m*3 -0.11 C 0.53333 km/h
1804 26-02-2019 09:00:00 0.80833 C 4.85 g/m*3 0.81 C 0.13333 km/h
1805 26-02-2019 10:00:00 2.60833 C 5.47 g/m*3 2.61 C 0.13333 km/h
1806 26-02-2019 11:00:00 5.75 C 6.19 g/m*3 5.75 C 0 km/h
1807 26-02-2019 12:00:00 9.50833 C 6.6 g/m*3 9.51 C 0 km/h
1808 26-02-2019 13:00:00 13.85833 C 7.8 g/m*3 13.86 C 0 km/h
1809 26-02-2019 14:00:00 16.15833 C 7.61 g/m*3 16.16 C 0 km/h
1810 26-02-2019 15:00:00 15.49167 C 7.3 g/m*3 15.49 C 0 km/h
1811 26-02-2019 16:00:00 15.44167 C 7.31 g/m*3 15.44 C 3.33333 km/h
1812 26-02-2019 17:00:00 14.75833 C 7.39 g/m*3 14.76 C 6.13333 km/h
1813 26-02-2019 18:00:00 12.56667 C 7.02 g/m*3 12.57 C 4.93333 km/h
1814 26-02-2019 19:00:00 10.34167 C 6.85 g/m*3 10.34 C 0.53333 km/h
1815 26-02-2019 20:00:00 8.18333 C 6.39 g/m*3 8.18 C 0 km/h
1816 26-02-2019 21:00:00 6.8 C 6.19 g/m*3 6.8 C 0 km/h
1817 26-02-2019 22:00:00 5.61667 C 5.93 g/m*3 5.62 C 0 km/h
1818 26-02-2019 23:00:00 4.56667 C 5.74 g/m*3 4.57 C 0 km/h
1819 27-02-2019 00:00:00 3.55833 C 5.51 g/m*3 3.56 C 0 km/h
1820 27-02-2019 01:00:00 2.85 C 5.36 g/m*3 2.85 C 0 km/h
1821 27-02-2019 02:00:00 2.25 C 5.22 g/m*3 2.25 C 0 km/h
1822 27-02-2019 03:00:00 1.45833 C 4.98 g/m*3 1.46 C 0 km/h
1823 27-02-2019 04:00:00 0.78333 C 4.8 g/m*3 0.78 C 0 km/h
1824 27-02-2019 05:00:00 0.5 C 4.74 g/m*3 0.5 C 0 km/h
1825 27-02-2019 06:00:00 0.125 C 4.64 g/m*3 0.13 C 0 km/h
Sensor: Nr:Datum:Temp:Abs-Feuchte:Windchill:Wind:
Aussen-T/F 1826 27-02-2019 07:00:00 -0.375 C 4.49 g/m*3 -0.38 C 0 km/h
1827 27-02-2019 08:00:00 -0.25833 C 4.55 g/m*3 -0.26 C 0 km/h
1828 27-02-2019 09:00:00 0.41667 C 4.79 g/m*3 0.42 C 0 km/h
1829 27-02-2019 10:00:00 2.4 C 5.52 g/m*3 2.4 C 0 km/h
1830 27-02-2019 11:00:00 5.5 C 6.68 g/m*3 5.5 C 0 km/h
1831 27-02-2019 12:00:00 9.75833 C 7.66 g/m*3 9.76 C 0 km/h
1832 27-02-2019 13:00:00 14.69167 C 8.26 g/m*3 14.69 C 0 km/h
1833 27-02-2019 14:00:00 17.19167 C 7.64 g/m*3 17.19 C 0 km/h
1834 27-02-2019 15:00:00 16.10833 C 7.05 g/m*3 16.11 C 0.93333 km/h
1835 27-02-2019 16:00:00 16.25 C 7 g/m*3 16.25 C 4.4 km/h
1836 27-02-2019 17:00:00 15.71667 C 6.83 g/m*3 15.72 C 6.13333 km/h
1837 27-02-2019 18:00:00 13.55833 C 6.44 g/m*3 13.56 C 4.55833 km/h
1838 27-02-2019 19:00:00 10.89167 C 6.35 g/m*3 10.89 C 0 km/h
1839 27-02-2019 20:00:00 8.7 C 6.09 g/m*3 8.7 C 0 km/h
1840 27-02-2019 21:00:00 6.8 C 5.79 g/m*3 6.8 C 0 km/h
1841 27-02-2019 22:00:00 5.55 C 5.67 g/m*3 5.55 C 0 km/h
1842 27-02-2019 23:00:00 4.83333 C 5.55 g/m*3 4.83 C 0 km/h
1843 28-02-2019 00:00:00 5.35 C 5.77 g/m*3 5.35 C 2.4 km/h
1844 28-02-2019 01:00:00 4.93333 C 5.54 g/m*3 4.93 C 0.4 km/h
1845 28-02-2019 02:00:00 3.675 C 5.4 g/m*3 3.68 C 3.20833 km/h
1846 28-02-2019 03:00:00 2.94167 C 5.27 g/m*3 2.94 C 2.66667 km/h
1847 28-02-2019 04:00:00 2.275 C 5.11 g/m*3 2.28 C 2.53333 km/h
1848 28-02-2019 05:00:00 2.35833 C 5.18 g/m*3 2.36 C 3.35 km/h
1849 28-02-2019 06:00:00 3.21667 C 5.45 g/m*3 1.38 C 6.85833 km/h
1850 28-02-2019 07:00:00 3.75 C 5.43 g/m*3 2.47 C 5.5 km/h
Sensor: Nr:Datum:Temp:Abs-Feuchte:Windchill:Wind:
Aussen-T/F 1851 28-02-2019 08:00:00 3.075 C 5.38 g/m*3 3.08 C 3.075 km/h
1852 28-02-2019 09:00:00 4.68333 C 5.92 g/m*3 4.68 C 3.34167 km/h
1853 28-02-2019 10:00:00 7.65833 C 6.83 g/m*3 6.03 C 9.01667 km/h
1854 28-02-2019 11:00:00 11.56667 C 7.5 g/m*3 11.57 C 12.63333 km/h
1855 28-02-2019 12:00:00 13.26667 C 7.75 g/m*3 13.27 C 11.16667 km/h
1856 28-02-2019 13:00:00 14.95833 C 8.12 g/m*3 14.96 C 11.56667 km/h
1857 28-02-2019 14:00:00 16.61667 C 8.6 g/m*3 16.62 C 12.89167 km/h
1858 28-02-2019 15:00:00 16.76667 C 8.7 g/m*3 16.77 C 11.15 km/h
1859 28-02-2019 16:00:00 15.20833 C 8.3 g/m*3 15.21 C 17.175 km/h
1860 28-02-2019 17:00:00 12.73333 C 7.56 g/m*3 12.73 C 18.10833 km/h
1861 28-02-2019 18:00:00 12.13333 C 7.68 g/m*3 12.13 C 9.425 km/h
1862 28-02-2019 19:00:00 11.26667 C 7.7 g/m*3 11.27 C 8.86667 km/h
1863 28-02-2019 20:00:00 11.09167 C 7.91 g/m*3 11.09 C 11.43333 km/h
1864 28-02-2019 21:00:00 10.975 C 8.07 g/m*3 9.52 C 11.83333 km/h
1865 28-02-2019 22:00:00 10.84167 C 8.1 g/m*3 9.6 C 10.20833 km/h
1866 28-02-2019 23:00:00 10.26667 C 8.27 g/m*3 9.03 C 9.525 km/h
1867 01-03-2019 00:00:00 9.075 C 8.14 g/m*3 9.07 C 4.68333 km/h
1868 01-03-2019 01:00:00 8.68333 C 8.1 g/m*3 8.68 C 4.675 km/h
1869 01-03-2019 02:00:00 8.69167 C 8.07 g/m*3 7.15 C 9.55 km/h
1870 01-03-2019 03:00:00 8.8 C 7.96 g/m*3 7.33 C 9.275 km/h
1871 01-03-2019 04:00:00 8.75833 C 7.9 g/m*3 8.12 C 5.75 km/h
1872 01-03-2019 05:00:00 8.63333 C 7.9 g/m*3 8.63 C 3.60833 km/h
1873 01-03-2019 06:00:00 8.20833 C 7.84 g/m*3 8.21 C 3.475 km/h
1874 01-03-2019 07:00:00 8.21667 C 7.96 g/m*3 8.22 C 3.60833 km/h
1875 01-03-2019 08:00:00 8.53333 C 8.13 g/m*3 8.53 C 2.8 km/h
Sensor: Nr:Datum:Temp:Abs-Feuchte:Windchill:Wind:
Aussen-T/F 1876 01-03-2019 09:00:00 8.68333 C 8.21 g/m*3 8.68 C 0.8 km/h
1877 01-03-2019 10:00:00 8.66667 C 8.28 g/m*3 8.67 C 0.26667 km/h
1878 01-03-2019 11:00:00 8.75833 C 8.25 g/m*3 8.76 C 2.66667 km/h
1879 01-03-2019 12:00:00 9.01667 C 8.07 g/m*3 7.09 C 12.21667 km/h
1880 01-03-2019 13:00:00 8.49167 C 7.81 g/m*3 6.79 C 10.19167 km/h
1881 01-03-2019 14:00:00 8.38333 C 7.66 g/m*3 7 C 8.475 km/h
1882 01-03-2019 15:00:00 8.325 C 7.57 g/m*3 7.65 C 5.63333 km/h
1883 01-03-2019 16:00:00 8.34167 C 7.65 g/m*3 8.34 C 4.68333 km/h
1884 01-03-2019 17:00:00 8.28333 C 7.66 g/m*3 8.28 C 3.21667 km/h
1885 01-03-2019 18:00:00 7.61667 C 7.21 g/m*3 5.35 C 12.5 km/h
1886 01-03-2019 19:00:00 6.9 C 6.92 g/m*3 5.29 C 8.31667 km/h
1887 01-03-2019 20:00:00 6.625 C 6.88 g/m*3 6.63 C 1.73333 km/h
1888 01-03-2019 21:00:00 6.45 C 6.78 g/m*3 6.45 C 1.2 km/h
1889 01-03-2019 22:00:00 6.375 C 6.71 g/m*3 6.38 C 1.73333 km/h
1890 01-03-2019 23:00:00 6.53333 C 6.66 g/m*3 6.53 C 0.93333 km/h
1891 02-03-2019 00:00:00 6.19167 C 6.55 g/m*3 6.19 C 4.30833 km/h
1892 02-03-2019 01:00:00 5.85 C 6.4 g/m*3 5.85 C 1.6 km/h
1893 02-03-2019 02:00:00 5.64167 C 6.43 g/m*3 5.64 C 0.93333 km/h
1894 02-03-2019 03:00:00 5.65 C 6.43 g/m*3 5.65 C 1.46667 km/h
1895 02-03-2019 04:00:00 5.7 C 6.47 g/m*3 5.7 C 0.26667 km/h
1896 02-03-2019 05:00:00 6.10833 C 6.65 g/m*3 6.11 C 4.80833 km/h
1897 02-03-2019 06:00:00 6.30833 C 6.74 g/m*3 6.31 C 3.73333 km/h
1898 02-03-2019 07:00:00 6.65 C 6.89 g/m*3 6.65 C 4.68333 km/h
1899 02-03-2019 08:00:00 7.01667 C 7.01 g/m*3 7.02 C 4.94167 km/h
1900 02-03-2019 09:00:00 7.66667 C 7.19 g/m*3 5.96 C 9.41667 km/h
Sensor: Nr:Datum:Temp:Abs-Feuchte:Windchill:Wind:
Aussen-T/F 1901 02-03-2019 10:00:00 8.05 C 7.28 g/m*3 6.73 C 7.925 km/h
1902 02-03-2019 11:00:00 8.99167 C 7.53 g/m*3 7.61 C 9.025 km/h
1903 02-03-2019 12:00:00 9.94167 C 7.75 g/m*3 8.71 C 9.16667 km/h
1904 02-03-2019 13:00:00 10.63333 C 7.82 g/m*3 9.66 C 8.475 km/h
1905 02-03-2019 14:00:00 11.40833 C 7.76 g/m*3 11.41 C 6.975 km/h
1906 02-03-2019 15:00:00 11.925 C 7.67 g/m*3 11.93 C 8.75 km/h
1907 02-03-2019 16:00:00 12.35 C 7.67 g/m*3 12.35 C 10.625 km/h
1908 02-03-2019 17:00:00 11.35833 C 7.73 g/m*3 11.36 C 14.5 km/h
1909 02-03-2019 18:00:00 10.55 C 7.84 g/m*3 9.09 C 11.28333 km/h
1910 02-03-2019 19:00:00 9.84167 C 8 g/m*3 8.11 C 12.1 km/h
1911 02-03-2019 20:00:00 9.53333 C 7.96 g/m*3 7.84 C 11.41667 km/h
1912 02-03-2019 21:00:00 9.83333 C 8.13 g/m*3 7.98 C 12.9 km/h
1913 02-03-2019 22:00:00 10.25 C 8.11 g/m*3 8.53 C 12.61667 km/h
1914 02-03-2019 23:00:00 9.96667 C 7.8 g/m*3 8.58 C 10.08333 km/h
1915 03-03-2019 00:00:00 9.05833 C 7.33 g/m*3 8.49 C 5.63333 km/h
1916 03-03-2019 01:00:00 9.175 C 7.6 g/m*3 7.47 C 11.00833 km/h
1917 03-03-2019 02:00:00 9.98333 C 7.63 g/m*3 8.19 C 12.74167 km/h
1918 03-03-2019 03:00:00 10 C 7.61 g/m*3 8.3 C 12.09167 km/h
1919 03-03-2019 04:00:00 10.225 C 7.71 g/m*3 8.5 C 12.63333 km/h
1920 03-03-2019 05:00:00 10.20833 C 7.6 g/m*3 8.39 C 13.28333 km/h
1921 03-03-2019 06:00:00 10.10833 C 7.65 g/m*3 8.51 C 11.55 km/h
1922 03-03-2019 07:00:00 10.13333 C 7.68 g/m*3 8.28 C 13.425 km/h
1923 03-03-2019 08:00:00 10.31667 C 7.81 g/m*3 7.58 C 22.11667 km/h
1924 03-03-2019 09:00:00 10.875 C 8.06 g/m*3 8.13 C 24.125 km/h
1925 03-03-2019 10:00:00 11.15833 C 8.19 g/m*3 11.16 C 26.01667 km/h
Sensor: Nr:Datum:Temp:Abs-Feuchte:Windchill:Wind:
Aussen-T/F 1926 03-03-2019 11:00:00 11.00833 C 8.21 g/m*3 11.01 C 15.16667 km/h
1927 03-03-2019 12:00:00 11.225 C 8.33 g/m*3 11.23 C 16.36667 km/h
1928 03-03-2019 13:00:00 11.73333 C 8.44 g/m*3 11.73 C 11.15833 km/h
1929 03-03-2019 14:00:00 11.79167 C 8.42 g/m*3 11.79 C 13.15833 km/h
1930 03-03-2019 15:00:00 11.7 C 8.5 g/m*3 11.7 C 14.625 km/h
1931 03-03-2019 16:00:00 11.7 C 8.52 g/m*3 11.7 C 14.36667 km/h
1932 03-03-2019 17:00:00 11.9 C 8.41 g/m*3 11.9 C 13.43333 km/h
1933 03-03-2019 18:00:00 12.18333 C 8.35 g/m*3 12.18 C 14.5 km/h
1934 03-03-2019 19:00:00 12.28333 C 8.23 g/m*3 12.28 C 13.83333 km/h
1935 03-03-2019 20:00:00 12.33333 C 8.27 g/m*3 12.33 C 14.36667 km/h
1936 03-03-2019 21:00:00 12.33333 C 8.39 g/m*3 12.33 C 21.05 km/h
1937 03-03-2019 22:00:00 12.525 C 8.43 g/m*3 12.53 C 18.36667 km/h
1938 03-03-2019 23:00:00 12.75833 C 8.24 g/m*3 12.76 C 6.43333 km/h
1939 04-03-2019 00:00:00 13.10833 C 8.13 g/m*3 13.11 C 8.33333 km/h
1940 04-03-2019 01:00:00 13.50833 C 8.02 g/m*3 13.51 C 13.54167 km/h
1941 04-03-2019 02:00:00 12.66667 C 8.38 g/m*3 12.67 C 27.74167 km/h
1942 04-03-2019 03:00:00 11.79167 C 8.46 g/m*3 11.79 C 18.10833 km/h
1943 04-03-2019 04:00:00 11.675 C 8.51 g/m*3 11.68 C 10.75 km/h
1944 04-03-2019 05:00:00 11.63333 C 8.34 g/m*3 11.63 C 9.26667 km/h
1945 04-03-2019 06:00:00 11.45 C 8.13 g/m*3 11.45 C 12.20833 km/h
1946 04-03-2019 07:00:00 12 C 7.87 g/m*3 12 C 16.9 km/h
1947 04-03-2019 08:00:00 11.49167 C 7.55 g/m*3 11.49 C 31.91667 km/h
1948 04-03-2019 09:00:00 9.39167 C 6.9 g/m*3 6.12 C 25.475 km/h
1949 04-03-2019 10:00:00 9.90833 C 7.15 g/m*3 6.92 C 23.85833 km/h
1950 04-03-2019 11:00:00 11.23333 C 7.03 g/m*3 11.23 C 27.36667 km/h
Sensor: Nr:Datum:Temp:Abs-Feuchte:Windchill:Wind:
Aussen-T/F 1951 04-03-2019 12:00:00 10.98333 C 7.29 g/m*3 8.02 C 27.63333 km/h
1952 04-03-2019 13:00:00 9.73333 C 7.77 g/m*3 6.6 C 24.925 km/h
1953 04-03-2019 14:00:00 9.44167 C 7.56 g/m*3 6.35 C 23.44167 km/h
1954 04-03-2019 15:00:00 7.1 C 6.58 g/m*3 4.35 C 14.9 km/h
1955 04-03-2019 16:00:00 7.54167 C 6.39 g/m*3 4.79 C 15.7 km/h
1956 04-03-2019 17:00:00 7.4 C 6.26 g/m*3 5.15 C 12.1 km/h
1957 04-03-2019 18:00:00 6.96667 C 6.22 g/m*3 4.79 C 11.15 km/h
1958 04-03-2019 19:00:00 6.86667 C 6.25 g/m*3 4.1 C 14.63333 km/h
1959 04-03-2019 20:00:00 6.95 C 6.29 g/m*3 4.51 C 12.625 km/h
1960 04-03-2019 21:00:00 6.61667 C 6.29 g/m*3 4.54 C 10.225 km/h
1961 04-03-2019 22:00:00 7.09167 C 6.45 g/m*3 4.2 C 15.96667 km/h
1962 04-03-2019 23:00:00 6.7 C 6.36 g/m*3 4.47 C 11.13333 km/h
1963 05-03-2019 00:00:00 6.875 C 6.26 g/m*3 4.45 C 12.475 km/h
1964 05-03-2019 01:00:00 6.875 C 6.19 g/m*3 4.38 C 12.9 km/h
1965 05-03-2019 02:00:00 6.79167 C 6.11 g/m*3 3.57 C 17.96667 km/h
1966 05-03-2019 03:00:00 6.74167 C 6.13 g/m*3 3.6 C 17.16667 km/h
1967 05-03-2019 04:00:00 6.425 C 6.04 g/m*3 3.58 C 14.49167 km/h
1968 05-03-2019 05:00:00 6.35 C 6.01 g/m*3 3.45 C 14.76667 km/h
1969 05-03-2019 06:00:00 6.24167 C 5.88 g/m*3 3.46 C 13.83333 km/h
1970 05-03-2019 07:00:00 6.475 C 5.93 g/m*3 3.06 C 18.90833 km/h
1971 05-03-2019 08:00:00 6.64167 C 6.07 g/m*3 3.23 C 19.16667 km/h
1972 05-03-2019 09:00:00 6.50833 C 6.25 g/m*3 3.51 C 15.7 km/h
1973 05-03-2019 10:00:00 6.625 C 6.44 g/m*3 4.3 C 11.56667 km/h
1974 05-03-2019 11:00:00 6.99167 C 6.53 g/m*3 4.61 C 12.36667 km/h
1975 05-03-2019 12:00:00 7.3 C 6.45 g/m*3 4.77 C 13.7 km/h
Sensor: Nr:Datum:Temp:Abs-Feuchte:Windchill:Wind:
Aussen-T/F 1976 05-03-2019 13:00:00 7.96667 C 6.58 g/m*3 5.81 C 12.23333 km/h
1977 05-03-2019 14:00:00 8.65 C 6.68 g/m*3 6.48 C 13.3 km/h
1978 05-03-2019 15:00:00 8.95833 C 6.59 g/m*3 7.12 C 11.55833 km/h
1979 05-03-2019 16:00:00 9.81667 C 6.76 g/m*3 8.31 C 10.625 km/h
1980 05-03-2019 17:00:00 9.34167 C 6.68 g/m*3 7.93 C 9.54167 km/h
1981 05-03-2019 18:00:00 7.13333 C 6.3 g/m*3 6.21 C 5.89167 km/h
1982 05-03-2019 19:00:00 6.55 C 6.21 g/m*3 5.54 C 5.88333 km/h
1983 05-03-2019 20:00:00 5.46667 C 5.97 g/m*3 5.47 C 1.46667 km/h
1984 05-03-2019 21:00:00 4.275 C 5.8 g/m*3 4.28 C 0.66667 km/h
1985 05-03-2019 22:00:00 4.70833 C 6.13 g/m*3 4.71 C 0.26667 km/h
1986 05-03-2019 23:00:00 5.26667 C 6.36 g/m*3 5.27 C 0 km/h
1987 06-03-2019 00:00:00 5.65 C 6.5 g/m*3 5.65 C 0.66667 km/h
1988 06-03-2019 01:00:00 6.15 C 6.71 g/m*3 6.15 C 0.4 km/h
1989 06-03-2019 02:00:00 7.03333 C 6.98 g/m*3 7.03 C 3.46667 km/h
1990 06-03-2019 03:00:00 7 C 6.93 g/m*3 7 C 0.26667 km/h
1991 06-03-2019 04:00:00 6.81667 C 6.97 g/m*3 6.82 C 2.675 km/h
1992 06-03-2019 05:00:00 7.175 C 6.99 g/m*3 6.1 C 6.43333 km/h
1993 06-03-2019 06:00:00 6.40833 C 6.68 g/m*3 6.41 C 2.675 km/h
1994 06-03-2019 07:00:00 5.44167 C 6.38 g/m*3 5.44 C 1.2 km/h
1995 06-03-2019 08:00:00 6.43333 C 6.8 g/m*3 6.43 C 2.93333 km/h
1996 06-03-2019 09:00:00 8.15833 C 7.04 g/m*3 8.16 C 2.66667 km/h
1997 06-03-2019 10:00:00 10.00833 C 7.18 g/m*3 10.01 C 4.025 km/h
1998 06-03-2019 11:00:00 12.275 C 7.09 g/m*3 12.28 C 7.24167 km/h
1999 06-03-2019 12:00:00 13.31667 C 6.85 g/m*3 13.32 C 6.58333 km/h
2000 06-03-2019 13:00:00 13.375 C 7.08 g/m*3 13.38 C 5.35 km/h
Sensor: Nr:Datum:Temp:Abs-Feuchte:Windchill:Wind:
Aussen-T/F 2001 06-03-2019 14:00:00 13.7 C 7.31 g/m*3 13.7 C 2.66667 km/h
2002 06-03-2019 15:00:00 14.56667 C 7.34 g/m*3 14.57 C 3.875 km/h
2003 06-03-2019 16:00:00 15.19167 C 7.45 g/m*3 15.19 C 4.14167 km/h
2004 06-03-2019 17:00:00 13.93333 C 8.2 g/m*3 13.93 C 3.475 km/h
2005 06-03-2019 18:00:00 13.00833 C 8.24 g/m*3 13.01 C 4.26667 km/h
2006 06-03-2019 19:00:00 11.65833 C 8.48 g/m*3 11.66 C 1.86667 km/h
2007 06-03-2019 20:00:00 10.65 C 8.31 g/m*3 10.65 C 0.4 km/h
2008 06-03-2019 21:00:00 10.675 C 8.25 g/m*3 10.68 C 0.4 km/h
2009 06-03-2019 22:00:00 10.66667 C 8.25 g/m*3 10.67 C 1.33333 km/h
2010 06-03-2019 23:00:00 11.175 C 8.23 g/m*3 11.18 C 3.475 km/h
2011 07-03-2019 00:00:00 11.05833 C 8.41 g/m*3 11.06 C 3.33333 km/h
2012 07-03-2019 01:00:00 10.93333 C 8.72 g/m*3 10.93 C 2.26667 km/h
2013 07-03-2019 02:00:00 10.025 C 8.63 g/m*3 10.03 C 0.53333 km/h
2014 07-03-2019 03:00:00 9.58333 C 8.47 g/m*3 9.58 C 1.33333 km/h
2015 07-03-2019 04:00:00 10.08333 C 8.37 g/m*3 10.08 C 3.46667 km/h
2016 07-03-2019 05:00:00 11.45 C 8.2 g/m*3 11.45 C 9.40833 km/h
2017 07-03-2019 06:00:00 12.05833 C 7.91 g/m*3 12.06 C 17.16667 km/h
2018 07-03-2019 07:00:00 11.325 C 7.59 g/m*3 11.33 C 24.53333 km/h
2019 07-03-2019 08:00:00 10.69167 C 7.45 g/m*3 7.94 C 23.58333 km/h
2020 07-03-2019 09:00:00 10.06667 C 7.8 g/m*3 7.2 C 22.90833 km/h
2021 07-03-2019 10:00:00 10.225 C 7.83 g/m*3 7.22 C 25.19167 km/h
2022 07-03-2019 11:00:00 9.8 C 7.79 g/m*3 6.61 C 25.88333 km/h
2023 07-03-2019 12:00:00 10.78333 C 7.37 g/m*3 8.11 C 22.94167 km/h
2024 07-03-2019 13:00:00 12 C 7.32 g/m*3 12 C 19.70833 km/h
2025 07-03-2019 14:00:00 10.40833 C 7.53 g/m*3 8.26 C 16.36667 km/h
Sensor: Nr:Datum:Temp:Abs-Feuchte:Windchill:Wind:
Aussen-T/F 2026 07-03-2019 15:00:00 10.825 C 7.33 g/m*3 8.72 C 16.9 km/h
2027 07-03-2019 16:00:00 9.88333 C 7.38 g/m*3 7.88 C 14.09167 km/h
2028 07-03-2019 17:00:00 10.14167 C 7.11 g/m*3 8.18 C 14.23333 km/h
2029 07-03-2019 18:00:00 9.45 C 6.57 g/m*3 7.2 C 15.3 km/h
2030 07-03-2019 19:00:00 8.46667 C 6.77 g/m*3 6.09 C 14.5 km/h
2031 07-03-2019 20:00:00 8.64167 C 6.6 g/m*3 5.82 C 18.5 km/h
2032 07-03-2019 21:00:00 9.23333 C 6.67 g/m*3 6.58 C 18.36667 km/h
2033 07-03-2019 22:00:00 9.2 C 6.67 g/m*3 6.59 C 17.83333 km/h
2034 07-03-2019 23:00:00 8.64167 C 6.63 g/m*3 6.51 C 13.03333 km/h
2035 08-03-2019 00:00:00 7.65833 C 6.81 g/m*3 5.87 C 9.80833 km/h
2036 08-03-2019 01:00:00 7.05833 C 6.68 g/m*3 4.88 C 11.275 km/h
2037 08-03-2019 02:00:00 8.15833 C 6.46 g/m*3 5.35 C 17.3 km/h
2038 08-03-2019 03:00:00 8.15 C 6.27 g/m*3 5.34 C 17.3 km/h
2039 08-03-2019 04:00:00 8.05 C 6.32 g/m*3 5.45 C 15.43333 km/h
2040 08-03-2019 05:00:00 7.8 C 6.38 g/m*3 4.91 C 17.3 km/h
2041 08-03-2019 06:00:00 7.60833 C 6.44 g/m*3 4.49 C 18.775 km/h
2042 08-03-2019 07:00:00 7.7 C 6.52 g/m*3 4.39 C 20.775 km/h
2043 08-03-2019 08:00:00 7.85 C 6.69 g/m*3 5.2 C 15.43333 km/h
2044 08-03-2019 09:00:00 7.68333 C 6.91 g/m*3 5.2 C 13.96667 km/h
2045 08-03-2019 10:00:00 7.75 C 6.92 g/m*3 5.57 C 12.1 km/h
2046 08-03-2019 11:00:00 8.65833 C 6.84 g/m*3 6.53 C 13.03333 km/h
2047 08-03-2019 12:00:00 9.21667 C 6.44 g/m*3 7.03 C 14.36667 km/h
2048 08-03-2019 13:00:00 9.8 C 6.39 g/m*3 7.63 C 15.3 km/h
2049 08-03-2019 14:00:00 10.34167 C 6.17 g/m*3 8.32 C 15.16667 km/h
2050 08-03-2019 15:00:00 11.25 C 6.3 g/m*3 11.25 C 14.5 km/h
Sensor: Nr:Datum:Temp:Abs-Feuchte:Windchill:Wind:
Aussen-T/F 2051 08-03-2019 16:00:00 10.26667 C 6.7 g/m*3 8.71 C 11.53333 km/h
2052 08-03-2019 17:00:00 9.15833 C 6.91 g/m*3 7.81 C 9.00833 km/h
2053 08-03-2019 18:00:00 7.425 C 6.79 g/m*3 6.63 C 5.625 km/h
2054 08-03-2019 19:00:00 6.83333 C 6.73 g/m*3 6.83 C 1.06667 km/h
2055 08-03-2019 20:00:00 6.3 C 6.63 g/m*3 6.3 C 0 km/h
2056 08-03-2019 21:00:00 6.525 C 6.71 g/m*3 6.53 C 2.54167 km/h
2057 08-03-2019 22:00:00 7.025 C 6.63 g/m*3 7.03 C 4.41667 km/h
2058 08-03-2019 23:00:00 8.25833 C 6.55 g/m*3 7.31 C 6.56667 km/h
2059 09-03-2019 00:00:00 8.56667 C 6.47 g/m*3 6.58 C 11.96667 km/h
2060 09-03-2019 01:00:00 9.15833 C 6.47 g/m*3 6.65 C 16.9 km/h
2061 09-03-2019 02:00:00 9.375 C 6.54 g/m*3 6.32 C 22.91667 km/h
2062 09-03-2019 03:00:00 9.03333 C 6.75 g/m*3 5.29 C 30.29167 km/h
2063 09-03-2019 04:00:00 7.95833 C 7 g/m*3 4.14 C 27.08333 km/h
2064 09-03-2019 05:00:00 7.775 C 7.12 g/m*3 4.54 C 20.24167 km/h
2065 09-03-2019 06:00:00 8.08333 C 7.31 g/m*3 5.71 C 13.83333 km/h
2066 09-03-2019 07:00:00 8.63333 C 7.51 g/m*3 6.69 C 11.83333 km/h
2067 09-03-2019 08:00:00 9.45 C 7.73 g/m*3 7.42 C 13.55833 km/h
2068 09-03-2019 09:00:00 10.15833 C 7.94 g/m*3 7.91 C 16.76667 km/h
2069 09-03-2019 10:00:00 10.50833 C 7.9 g/m*3 8.79 C 13.03333 km/h
2070 09-03-2019 11:00:00 10.925 C 7.95 g/m*3 9.07 C 14.9 km/h
2071 09-03-2019 12:00:00 11.71667 C 8.03 g/m*3 11.72 C 19.98333 km/h
2072 09-03-2019 13:00:00 12.525 C 8.21 g/m*3 12.53 C 17.7 km/h
2073 09-03-2019 14:00:00 13.48333 C 8.15 g/m*3 13.48 C 25.86667 km/h
2074 09-03-2019 15:00:00 13.30833 C 7.96 g/m*3 13.31 C 26.675 km/h
2075 09-03-2019 16:00:00 13.39167 C 7.37 g/m*3 13.39 C 29.625 km/h
Sensor: Nr:Datum:Temp:Abs-Feuchte:Windchill:Wind:
Aussen-T/F 2076 09-03-2019 17:00:00 13.05833 C 6.9 g/m*3 13.06 C 23.46667 km/h
2077 09-03-2019 18:00:00 12.01667 C 6.68 g/m*3 12.02 C 23.46667 km/h
2078 09-03-2019 19:00:00 10.65833 C 7.27 g/m*3 8.99 C 12.89167 km/h
2079 09-03-2019 20:00:00 9.45 C 7.46 g/m*3 9.45 C 3.89167 km/h
2080 09-03-2019 21:00:00 9.66667 C 7.56 g/m*3 8.81 C 7.11667 km/h
2081 09-03-2019 22:00:00 9.60833 C 7.33 g/m*3 8.74 C 7.125 km/h
2082 09-03-2019 23:00:00 10.34167 C 6.85 g/m*3 8.48 C 13.83333 km/h
2083 10-03-2019 00:00:00 10.11667 C 6.59 g/m*3 8.44 C 12.08333 km/h
2084 10-03-2019 01:00:00 9.66667 C 6.48 g/m*3 8.91 C 6.70833 km/h
2085 10-03-2019 02:00:00 9.40833 C 6.66 g/m*3 8.71 C 6.29167 km/h
2086 10-03-2019 03:00:00 9.1 C 6.86 g/m*3 9.1 C 1.06667 km/h
2087 10-03-2019 04:00:00 8.325 C 7.18 g/m*3 8.32 C 0 km/h
2088 10-03-2019 05:00:00 7.8 C 7.42 g/m*3 7.8 C 0 km/h
2089 10-03-2019 06:00:00 7.475 C 7.47 g/m*3 7.48 C 0 km/h
2090 10-03-2019 07:00:00 7.675 C 7.68 g/m*3 7.68 C 0 km/h
2091 10-03-2019 08:00:00 8.86667 C 8.38 g/m*3 7.69 C 7.925 km/h
2092 10-03-2019 09:00:00 10.58333 C 9.28 g/m*3 9.25 C 10.475 km/h
2093 10-03-2019 10:00:00 11.95833 C 9.92 g/m*3 11.96 C 9.825 km/h
2094 10-03-2019 11:00:00 13.14167 C 9.01 g/m*3 13.14 C 21.175 km/h
2095 10-03-2019 12:00:00 14.125 C 8.78 g/m*3 14.13 C 24.65833 km/h
2096 10-03-2019 13:00:00 14.4 C 7.98 g/m*3 14.4 C 30.575 km/h
2097 10-03-2019 14:00:00 14.40833 C 6.43 g/m*3 14.41 C 39.13333 km/h
2098 10-03-2019 15:00:00 13.55833 C 5.9 g/m*3 13.56 C 37 km/h
2099 10-03-2019 16:00:00 12.53333 C 5.53 g/m*3 12.53 C 36.475 km/h
2100 10-03-2019 17:00:00 10.38333 C 6.06 g/m*3 7.75 C 21.19167 km/h
Sensor: Nr:Datum:Temp:Abs-Feuchte:Windchill:Wind:
Aussen-T/F 2101 10-03-2019 18:00:00 7.69167 C 6.5 g/m*3 4.44 C 20.25 km/h
2102 10-03-2019 19:00:00 6.94167 C 6.07 g/m*3 3.5 C 20.10833 km/h
2103 10-03-2019 20:00:00 6.075 C 5.5 g/m*3 1.97 C 24.26667 km/h
2104 10-03-2019 21:00:00 5.21667 C 5.46 g/m*3 2.27 C 13.43333 km/h
2105 10-03-2019 22:00:00 5.05833 C 5.45 g/m*3 2.79 C 9.7 km/h
2106 10-03-2019 23:00:00 4.85833 C 5.41 g/m*3 2.72 C 8.99167 km/h
2107 11-03-2019 00:00:00 4.34167 C 5.27 g/m*3 3.1 C 5.61667 km/h
2108 11-03-2019 01:00:00 4.50833 C 5.24 g/m*3 2.11 C 9.80833 km/h
2109 11-03-2019 02:00:00 5.10833 C 5.4 g/m*3 1.94 C 14.63333 km/h
2110 11-03-2019 03:00:00 3.65833 C 5.3 g/m*3 0.78 C 11.26667 km/h
2111 11-03-2019 04:00:00 2.36667 C 5.27 g/m*3 2.37 C 1.86667 km/h
2112 11-03-2019 05:00:00 2.20833 C 5.23 g/m*3 -1.96 C 16.63333 km/h
2113 11-03-2019 06:00:00 1.74167 C 5.05 g/m*3 -0.9 C 8.71667 km/h
2114 11-03-2019 07:00:00 1.525 C 5.07 g/m*3 1.53 C 3.33333 km/h
2115 11-03-2019 08:00:00 2.31667 C 5.39 g/m*3 2.32 C 4.28333 km/h
2116 11-03-2019 09:00:00 3.34167 C 5.44 g/m*3 -0.07 C 13.7 km/h
2117 11-03-2019 10:00:00 3.925 C 5.59 g/m*3 0.76 C 13.03333 km/h
2118 11-03-2019 11:00:00 4.875 C 5.55 g/m*3 1.72 C 14.23333 km/h
2119 11-03-2019 12:00:00 5.60833 C 5.4 g/m*3 2.36 C 15.96667 km/h
2120 11-03-2019 13:00:00 6.575 C 5.41 g/m*3 3.23 C 18.5 km/h
2121 11-03-2019 14:00:00 7.04167 C 5.45 g/m*3 3.75 C 19.04167 km/h
2122 11-03-2019 15:00:00 7.63333 C 5.39 g/m*3 4.12 C 22.64167 km/h
2123 11-03-2019 16:00:00 7.26667 C 5.38 g/m*3 4.04 C 19.03333 km/h
2124 11-03-2019 17:00:00 7.175 C 5.5 g/m*3 4.88 C 12.08333 km/h
2125 11-03-2019 18:00:00 6.93333 C 5.3 g/m*3 4.6 C 11.96667 km/h
Sensor: Nr:Datum:Temp:Abs-Feuchte:Windchill:Wind:
Aussen-T/F 2126 11-03-2019 19:00:00 5.83333 C 5.22 g/m*3 2.89 C 14.23333 km/h
2127 11-03-2019 20:00:00 5.68333 C 5.22 g/m*3 2.75 C 13.96667 km/h
2128 11-03-2019 21:00:00 5.28333 C 5.19 g/m*3 3.06 C 9.69167 km/h
2129 11-03-2019 22:00:00 5.34167 C 5.17 g/m*3 3.32 C 8.86667 km/h
2130 11-03-2019 23:00:00 4.75 C 5.08 g/m*3 3.52 C 5.75833 km/h
2131 12-03-2019 00:00:00 4.19167 C 5.16 g/m*3 2.61 C 6.55833 km/h
2132 12-03-2019 01:00:00 3.225 C 5.08 g/m*3 3.23 C 4.41667 km/h
2133 12-03-2019 02:00:00 2.15833 C 4.89 g/m*3 2.16 C 3.875 km/h
2134 12-03-2019 03:00:00 1.65833 C 4.82 g/m*3 1.66 C 4.41667 km/h
2135 12-03-2019 04:00:00 1.33333 C 4.75 g/m*3 1.33 C 4.40833 km/h
2136 12-03-2019 05:00:00 1.625 C 4.88 g/m*3 1.63 C 3.6 km/h
2137 12-03-2019 06:00:00 1.76667 C 4.9 g/m*3 1.77 C 2.93333 km/h
2138 12-03-2019 07:00:00 1.93333 C 5.02 g/m*3 1.93 C 0 km/h
2139 12-03-2019 08:00:00 3.25 C 5.38 g/m*3 3.25 C 1.33333 km/h
2140 12-03-2019 09:00:00 5.20833 C 5.68 g/m*3 5.21 C 2.28333 km/h
2141 12-03-2019 10:00:00 7.4 C 5.75 g/m*3 5.31 C 11.16667 km/h
2142 12-03-2019 11:00:00 8.78333 C 5.53 g/m*3 6.67 C 13.16667 km/h
2143 12-03-2019 12:00:00 9.40833 C 5.54 g/m*3 7.58 C 12.09167 km/h
2144 12-03-2019 13:00:00 9.74167 C 5.49 g/m*3 8.26 C 10.35 km/h
2145 12-03-2019 14:00:00 10.18333 C 5.48 g/m*3 9.15 C 8.34167 km/h
2146 12-03-2019 15:00:00 10.56667 C 5.26 g/m*3 9.15 C 11.025 km/h
2147 12-03-2019 16:00:00 10.33333 C 4.82 g/m*3 9.47 C 7.65833 km/h
2148 12-03-2019 17:00:00 9.34167 C 5 g/m*3 9.34 C 1.6 km/h
2149 12-03-2019 18:00:00 8.1 C 5.1 g/m*3 8.1 C 2.275 km/h
2150 12-03-2019 19:00:00 8.725 C 4.69 g/m*3 8.73 C 4.01667 km/h
Sensor: Nr:Datum:Temp:Abs-Feuchte:Windchill:Wind:
Aussen-T/F 2151 12-03-2019 20:00:00 9.425 C 4.21 g/m*3 8.69 C 6.45 km/h
2152 12-03-2019 21:00:00 10.74167 C 4.5 g/m*3 9.26 C 11.68333 km/h
2153 12-03-2019 22:00:00 11.14167 C 5.45 g/m*3 11.14 C 22.93333 km/h
2154 12-03-2019 23:00:00 8.53333 C 6.56 g/m*3 5.7 C 18.36667 km/h
2155 13-03-2019 00:00:00 6.53333 C 6.06 g/m*3 3.69 C 14.63333 km/h
2156 13-03-2019 01:00:00 5.74167 C 5.67 g/m*3 2.62 C 15.3 km/h
2157 13-03-2019 02:00:00 5.425 C 5.6 g/m*3 3.01 C 10.75833 km/h
2158 13-03-2019 03:00:00 5.74167 C 5.51 g/m*3 3.16 C 11.95 km/h
2159 13-03-2019 04:00:00 5.53333 C 5.61 g/m*3 3.01 C 11.40833 km/h
2160 13-03-2019 05:00:00 5.34167 C 5.77 g/m*3 2.33 C 13.95833 km/h
2161 13-03-2019 06:00:00 5.16667 C 5.69 g/m*3 1.53 C 17.96667 km/h
2162 13-03-2019 07:00:00 5.46667 C 5.65 g/m*3 1.69 C 19.71667 km/h
2163 13-03-2019 08:00:00 6.08333 C 5.85 g/m*3 2.68 C 17.96667 km/h
2164 13-03-2019 09:00:00 6.5 C 5.84 g/m*3 2.96 C 19.975 km/h
2165 13-03-2019 10:00:00 6.94167 C 5.96 g/m*3 3.09 C 24.125 km/h
2166 13-03-2019 11:00:00 7.81667 C 6.14 g/m*3 4.23 C 23.98333 km/h
2167 13-03-2019 12:00:00 8.15833 C 6.22 g/m*3 4.85 C 21.975 km/h
2168 13-03-2019 13:00:00 7.95833 C 6.31 g/m*3 4.31 C 25.075 km/h
2169 13-03-2019 14:00:00 8.05 C 6.48 g/m*3 4.83 C 20.775 km/h
2170 13-03-2019 15:00:00 7.79167 C 6.54 g/m*3 4.68 C 19.175 km/h
2171 13-03-2019 16:00:00 6.825 C 6.69 g/m*3 4.15 C 13.96667 km/h
2172 13-03-2019 17:00:00 6.65833 C 6.66 g/m*3 3.48 C 17.3 km/h
2173 13-03-2019 18:00:00 6.55 C 6.6 g/m*3 3.45 C 16.5 km/h
2174 13-03-2019 19:00:00 4.95833 C 6.23 g/m*3 2.34 C 11.29167 km/h
2175 13-03-2019 20:00:00 4.94167 C 6.24 g/m*3 1.91 C 13.56667 km/h
Sensor: Nr:Datum:Temp:Abs-Feuchte:Windchill:Wind:
Aussen-T/F 2176 13-03-2019 21:00:00 4.94167 C 6.27 g/m*3 2.24 C 11.7 km/h
2177 13-03-2019 22:00:00 5.04167 C 6.34 g/m*3 2.97 C 8.86667 km/h
2178 13-03-2019 23:00:00 4.725 C 6.18 g/m*3 2.91 C 7.65 km/h
2179 14-03-2019 00:00:00 4.65 C 6.14 g/m*3 1.57 C 13.43333 km/h
2180 14-03-2019 01:00:00 5.13333 C 6.21 g/m*3 2.95 C 9.39167 km/h
2181 14-03-2019 02:00:00 4.81667 C 6.17 g/m*3 3.01 C 7.66667 km/h
2182 14-03-2019 03:00:00 4.46667 C 6.1 g/m*3 2.97 C 6.43333 km/h
2183 14-03-2019 04:00:00 5.05 C 6.36 g/m*3 3.25 C 7.78333 km/h
2184 14-03-2019 05:00:00 5.73333 C 6.54 g/m*3 3.75 C 9 km/h
2185 14-03-2019 06:00:00 6.13333 C 6.53 g/m*3 4.26 C 8.85833 km/h
2186 14-03-2019 07:00:00 6.35 C 6.48 g/m*3 3.55 C 14.1 km/h
2187 14-03-2019 08:00:00 6.70833 C 6.51 g/m*3 4.22 C 12.625 km/h
2188 14-03-2019 09:00:00 6.41667 C 6.63 g/m*3 3.93 C 12.23333 km/h
2189 14-03-2019 10:00:00 6.55 C 6.64 g/m*3 3.62 C 15.3 km/h
2190 14-03-2019 11:00:00 6.55833 C 6.71 g/m*3 3.74 C 14.5 km/h
2191 14-03-2019 12:00:00 7.15 C 6.94 g/m*3 3.89 C 19.03333 km/h
2192 14-03-2019 13:00:00 7.30833 C 7 g/m*3 3.32 C 26.825 km/h
2193 14-03-2019 14:00:00 7.33333 C 6.96 g/m*3 3.57 C 24.39167 km/h
2194 14-03-2019 15:00:00 7.69167 C 7.31 g/m*3 4.45 C 20.1 km/h
2195 14-03-2019 16:00:00 8.875 C 7.54 g/m*3 6.19 C 17.84167 km/h
2196 14-03-2019 17:00:00 9.85833 C 7.88 g/m*3 7.53 C 16.76667 km/h
2197 14-03-2019 18:00:00 9.875 C 7.7 g/m*3 8.54 C 9.68333 km/h
2198 14-03-2019 19:00:00 9.54167 C 7.07 g/m*3 7.4 C 14.61667 km/h
2199 14-03-2019 20:00:00 7.96667 C 7.02 g/m*3 6.37 C 9.13333 km/h
2200 14-03-2019 21:00:00 8.2 C 6.95 g/m*3 7.35 C 6.16667 km/h
Sensor: Nr:Datum:Temp:Abs-Feuchte:Windchill:Wind:
Aussen-T/F 2201 14-03-2019 22:00:00 8.38333 C 6.76 g/m*3 6.4 C 11.7 km/h
2202 14-03-2019 23:00:00 8.11667 C 6.6 g/m*3 6.08 C 11.69167 km/h
2203 15-03-2019 00:00:00 7.11667 C 6.48 g/m*3 5.42 C 8.88333 km/h
2204 15-03-2019 01:00:00 6.38333 C 6.39 g/m*3 4.55 C 8.86667 km/h
2205 15-03-2019 02:00:00 6.86667 C 6.57 g/m*3 5.62 C 6.84167 km/h
2206 15-03-2019 03:00:00 6.40833 C 6.49 g/m*3 6.41 C 4.81667 km/h
2207 15-03-2019 04:00:00 6.04167 C 6.5 g/m*3 6.04 C 4 km/h
2208 15-03-2019 05:00:00 7.00833 C 6.79 g/m*3 5.24 C 9.13333 km/h
2209 15-03-2019 06:00:00 7.225 C 7.08 g/m*3 7.23 C 4.16667 km/h
2210 15-03-2019 07:00:00 7.125 C 7.25 g/m*3 5.43 C 8.85833 km/h
2211 15-03-2019 08:00:00 7.49167 C 7.52 g/m*3 6.02 C 8.19167 km/h
2212 15-03-2019 09:00:00 8.2 C 7.87 g/m*3 5.67 C 15.16667 km/h
2213 15-03-2019 10:00:00 9.375 C 8.49 g/m*3 6.96 C 16.5 km/h
2214 15-03-2019 11:00:00 11.05 C 9.2 g/m*3 11.05 C 18.63333 km/h
2215 15-03-2019 12:00:00 12.38333 C 9.66 g/m*3 12.38 C 17.03333 km/h
2216 15-03-2019 13:00:00 13.11667 C 9.66 g/m*3 13.12 C 18.9 km/h
2217 15-03-2019 14:00:00 13.66667 C 9.56 g/m*3 13.67 C 21.43333 km/h
2218 15-03-2019 15:00:00 13.51667 C 9.69 g/m*3 13.52 C 17.70833 km/h
2219 15-03-2019 16:00:00 13.38333 C 9.52 g/m*3 13.38 C 19.03333 km/h
2220 15-03-2019 17:00:00 13.03333 C 9.4 g/m*3 13.03 C 16.23333 km/h
2221 15-03-2019 18:00:00 12.70833 C 9.38 g/m*3 12.71 C 20.10833 km/h
2222 15-03-2019 19:00:00 12.64167 C 9.38 g/m*3 12.64 C 14.63333 km/h
2223 15-03-2019 20:00:00 12.10833 C 9.45 g/m*3 12.11 C 14.23333 km/h
2224 15-03-2019 21:00:00 12.25 C 9.38 g/m*3 12.25 C 14.23333 km/h
2225 15-03-2019 22:00:00 12.4 C 9.31 g/m*3 12.4 C 12.61667 km/h
Sensor: Nr:Datum:Temp:Abs-Feuchte:Windchill:Wind:
Aussen-T/F 2226 15-03-2019 23:00:00 11.85833 C 9.28 g/m*3 11.86 C 7.78333 km/h
2227 16-03-2019 00:00:00 11.575 C 9.18 g/m*3 11.58 C 13.29167 km/h
2228 16-03-2019 01:00:00 9.79167 C 8.51 g/m*3 7.84 C 13.56667 km/h
2229 16-03-2019 02:00:00 8.93333 C 8.09 g/m*3 7.29 C 10.35 km/h
2230 16-03-2019 03:00:00 8.41667 C 7.96 g/m*3 8.42 C 1.86667 km/h
2231 16-03-2019 04:00:00 8.3 C 8.01 g/m*3 8.3 C 0 km/h
2232 16-03-2019 05:00:00 8.3 C 8.01 g/m*3 8.3 C 0 km/h
2233 16-03-2019 06:00:00 8.73333 C 8.35 g/m*3 8.73 C 4.7 km/h
2234 16-03-2019 07:00:00 9.88333 C 8.87 g/m*3 7.65 C 15.96667 km/h
2235 16-03-2019 08:00:00 10.375 C 8.96 g/m*3 8.85 C 11.41667 km/h
2236 16-03-2019 09:00:00 10.71667 C 9.02 g/m*3 8.87 C 14.35833 km/h
2237 16-03-2019 10:00:00 10.84167 C 8.92 g/m*3 9.04 C 14.23333 km/h
2238 16-03-2019 11:00:00 10.825 C 8.84 g/m*3 8.69 C 17.16667 km/h
2239 16-03-2019 12:00:00 11.46667 C 8.66 g/m*3 11.47 C 19.18333 km/h
2240 16-03-2019 13:00:00 11.75833 C 8.4 g/m*3 11.76 C 17.7 km/h
2241 16-03-2019 14:00:00 11.125 C 8.15 g/m*3 11.13 C 19.30833 km/h
2242 16-03-2019 15:00:00 10.94167 C 7.84 g/m*3 9.32 C 13.025 km/h
2243 16-03-2019 16:00:00 10.99167 C 7.75 g/m*3 9.43 C 12.625 km/h
2244 16-03-2019 17:00:00 10.9 C 7.58 g/m*3 9.28 C 12.9 km/h
2245 16-03-2019 18:00:00 10.69167 C 7.5 g/m*3 9.12 C 12.225 km/h
2246 16-03-2019 19:00:00 10.43333 C 7.34 g/m*3 8.53 C 14.36667 km/h
2247 16-03-2019 20:00:00 10.31667 C 7.24 g/m*3 8.57 C 12.88333 km/h
2248 16-03-2019 21:00:00 10.10833 C 7.39 g/m*3 8 C 15.43333 km/h
2249 16-03-2019 22:00:00 10.09167 C 7.47 g/m*3 7.57 C 19.16667 km/h
2250 16-03-2019 23:00:00 10.11667 C 7.48 g/m*3 7.68 C 18.36667 km/h
Sensor: Nr:Datum:Temp:Abs-Feuchte:Windchill:Wind:
Aussen-T/F 2251 17-03-2019 00:00:00 10.29167 C 7.45 g/m*3 7.92 C 18.23333 km/h
2252 17-03-2019 01:00:00 10.425 C 7.43 g/m*3 7.84 C 20.775 km/h
2253 17-03-2019 02:00:00 10.20833 C 7.39 g/m*3 8.06 C 15.96667 km/h
2254 17-03-2019 03:00:00 10.19167 C 7.32 g/m*3 8.37 C 13.3 km/h
2255 17-03-2019 04:00:00 10.11667 C 7.2 g/m*3 7.99 C 15.56667 km/h
2256 17-03-2019 05:00:00 10.28333 C 7.15 g/m*3 7.99 C 17.43333 km/h
2257 17-03-2019 06:00:00 10.23333 C 7.08 g/m*3 8.12 C 15.69167 km/h
2258 17-03-2019 07:00:00 10.24167 C 7.25 g/m*3 7.88 C 17.975 km/h
2259 17-03-2019 08:00:00 10.2 C 7.5 g/m*3 8.11 C 15.43333 km/h
2260 17-03-2019 09:00:00 10.26667 C 7.61 g/m*3 7.97 C 17.43333 km/h
2261 17-03-2019 10:00:00 9.89167 C 7.71 g/m*3 7.65 C 16.1 km/h
2262 17-03-2019 11:00:00 8.075 C 6.98 g/m*3 5.88 C 12.63333 km/h
2263 17-03-2019 12:00:00 8.78333 C 6.87 g/m*3 6.59 C 13.7 km/h
2264 17-03-2019 13:00:00 9.80833 C 7.03 g/m*3 8.07 C 12.1 km/h
2265 17-03-2019 14:00:00 10.71667 C 6.35 g/m*3 8.59 C 16.9 km/h
2266 17-03-2019 15:00:00 11.01667 C 6.55 g/m*3 11.02 C 15.03333 km/h
2267 17-03-2019 16:00:00 10.05 C 6.09 g/m*3 7.78 C 16.64167 km/h
2268 17-03-2019 17:00:00 7.89167 C 5.7 g/m*3 5.48 C 13.81667 km/h
2269 17-03-2019 18:00:00 7.01667 C 5.86 g/m*3 4.53 C 13.03333 km/h
2270 17-03-2019 19:00:00 5.95833 C 5.83 g/m*3 3.9 C 9.53333 km/h
2271 17-03-2019 20:00:00 4.51667 C 5.85 g/m*3 2.52 C 8.19167 km/h
2272 17-03-2019 21:00:00 4.025 C 5.76 g/m*3 2.33 C 6.825 km/h
2273 17-03-2019 22:00:00 3.875 C 5.66 g/m*3 1.39 C 9.68333 km/h
2274 17-03-2019 23:00:00 3.83333 C 5.53 g/m*3 1.71 C 8.20833 km/h
2275 18-03-2019 00:00:00 2.95 C 5.33 g/m*3 1.35 C 6.04167 km/h
Sensor: Nr:Datum:Temp:Abs-Feuchte:Windchill:Wind:
Aussen-T/F 2276 18-03-2019 01:00:00 2.55 C 5.29 g/m*3 0.4 C 7.50833 km/h
2277 18-03-2019 02:00:00 3.225 C 5.49 g/m*3 -0.07 C 12.89167 km/h
2278 18-03-2019 03:00:00 3.61667 C 5.47 g/m*3 1.77 C 7.1 km/h
2279 18-03-2019 04:00:00 3.25 C 5.41 g/m*3 2.02 C 5.2 km/h
2280 18-03-2019 05:00:00 3.10833 C 5.37 g/m*3 0.82 C 8.33333 km/h
2281 18-03-2019 06:00:00 3.95833 C 5.48 g/m*3 0.95 C 12.23333 km/h
2282 18-03-2019 07:00:00 4.225 C 5.58 g/m*3 1.35 C 11.825 km/h
2283 18-03-2019 08:00:00 5.04167 C 5.84 g/m*3 2.19 C 12.63333 km/h
2284 18-03-2019 09:00:00 5.06667 C 6.11 g/m*3 2.84 C 9.54167 km/h
2285 18-03-2019 10:00:00 6.36667 C 6.37 g/m*3 3.99 C 11.55 km/h
2286 18-03-2019 11:00:00 7.74167 C 6.29 g/m*3 5.14 C 14.9 km/h
2287 18-03-2019 12:00:00 8.06667 C 5.97 g/m*3 5.44 C 15.7 km/h
2288 18-03-2019 13:00:00 6.66667 C 6.43 g/m*3 5.21 C 7.51667 km/h
2289 18-03-2019 14:00:00 8.43333 C 6.18 g/m*3 6.72 C 10.21667 km/h
2290 18-03-2019 15:00:00 6.71667 C 6.54 g/m*3 6.72 C 4.55 km/h
2291 18-03-2019 16:00:00 6.875 C 6.62 g/m*3 6.88 C 3.75 km/h
2292 18-03-2019 17:00:00 7.95833 C 6.13 g/m*3 6.97 C 6.56667 km/h
2293 18-03-2019 18:00:00 7.49167 C 6.03 g/m*3 7.49 C 2.66667 km/h
2294 18-03-2019 19:00:00 5.20833 C 5.88 g/m*3 5.21 C 4.53333 km/h
2295 18-03-2019 20:00:00 4.01667 C 5.47 g/m*3 4.02 C 3.86667 km/h
2296 18-03-2019 21:00:00 3.09167 C 5.26 g/m*3 3.09 C 1.6 km/h
2297 18-03-2019 22:00:00 2.04167 C 5 g/m*3 2.04 C 0.66667 km/h
2298 18-03-2019 23:00:00 1.48333 C 4.93 g/m*3 1.48 C 0 km/h
2299 19-03-2019 00:00:00 0.93333 C 4.77 g/m*3 0.93 C 0 km/h
2300 19-03-2019 01:00:00 0.35833 C 4.62 g/m*3 0.36 C 0 km/h
Sensor: Nr:Datum:Temp:Abs-Feuchte:Windchill:Wind:
Aussen-T/F 2301 19-03-2019 02:00:00 -0.04167 C 4.53 g/m*3 -0.04 C 0 km/h
2302 19-03-2019 03:00:00 -0.3 C 4.46 g/m*3 -0.3 C 0 km/h
2303 19-03-2019 04:00:00 -0.70833 C 4.34 g/m*3 -0.71 C 0 km/h
2304 19-03-2019 05:00:00 -1.03333 C 4.25 g/m*3 -1.03 C 0 km/h
2305 19-03-2019 06:00:00 -1.2 C 4.22 g/m*3 -1.2 C 0 km/h
2306 19-03-2019 07:00:00 -0.375 C 4.49 g/m*3 -0.38 C 0.8 km/h
2307 19-03-2019 08:00:00 -0.04167 C 4.59 g/m*3 -0.04 C 0 km/h
2308 19-03-2019 09:00:00 0.675 C 4.83 g/m*3 0.68 C 0.13333 km/h
2309 19-03-2019 10:00:00 2.36667 C 5.39 g/m*3 2.37 C 0 km/h
2310 19-03-2019 11:00:00 5.125 C 5.92 g/m*3 5.13 C 1.60833 km/h
2311 19-03-2019 12:00:00 7.29167 C 5.42 g/m*3 7.29 C 3.75 km/h
2312 19-03-2019 13:00:00 8.93333 C 5.14 g/m*3 7.8 C 7.78333 km/h
2313 19-03-2019 14:00:00 9.975 C 5.3 g/m*3 9.7 C 5.09167 km/h
2314 19-03-2019 15:00:00 10.15 C 5.05 g/m*3 9.12 C 8.33333 km/h
2315 19-03-2019 16:00:00 11.51667 C 5.01 g/m*3 11.52 C 4.96667 km/h
2316 19-03-2019 17:00:00 12.00833 C 4.83 g/m*3 12.01 C 6.85 km/h
2317 19-03-2019 18:00:00 9.65 C 5.58 g/m*3 9.65 C 0 km/h
2318 19-03-2019 19:00:00 5.6 C 5.46 g/m*3 5.6 C 0 km/h
2319 19-03-2019 20:00:00 4.4 C 5.32 g/m*3 4.4 C 0 km/h
2320 19-03-2019 21:00:00 3.1 C 5.09 g/m*3 3.1 C 0 km/h
2321 19-03-2019 22:00:00 2.025 C 4.84 g/m*3 2.03 C 0 km/h
2322 19-03-2019 23:00:00 1.68333 C 4.77 g/m*3 1.68 C 0.13333 km/h
2323 20-03-2019 00:00:00 0.8 C 4.56 g/m*3 0.8 C 0 km/h
2324 20-03-2019 01:00:00 0.35833 C 4.51 g/m*3 0.36 C 0 km/h
2325 20-03-2019 02:00:00 -0.16667 C 4.38 g/m*3 -0.17 C 0 km/h
Sensor: Nr:Datum:Temp:Abs-Feuchte:Windchill:Wind:
Aussen-T/F 2326 20-03-2019 03:00:00 -0.55 C 4.29 g/m*3 -0.55 C 0 km/h
2327 20-03-2019 04:00:00 -0.90833 C 4.22 g/m*3 -0.91 C 0 km/h
2328 20-03-2019 05:00:00 -1.10833 C 4.18 g/m*3 -1.11 C 0 km/h
2329 20-03-2019 06:00:00 -1.225 C 4.17 g/m*3 -1.23 C 0 km/h
2330 20-03-2019 07:00:00 -1.08333 C 4.22 g/m*3 -1.08 C 0 km/h
2331 20-03-2019 08:00:00 -0.675 C 4.37 g/m*3 -0.68 C 0 km/h
2332 20-03-2019 09:00:00 0.575 C 4.79 g/m*3 0.57 C 0 km/h
2333 20-03-2019 10:00:00 4.26667 C 5.82 g/m*3 4.27 C 0 km/h
2334 20-03-2019 11:00:00 8.875 C 6.06 g/m*3 8.88 C 1.73333 km/h
2335 20-03-2019 12:00:00 11.63333 C 5.89 g/m*3 11.63 C 5.9 km/h
2336 20-03-2019 13:00:00 13.15833 C 5.54 g/m*3 13.16 C 6.70833 km/h
2337 20-03-2019 14:00:00 13.75833 C 5.52 g/m*3 13.76 C 6.55833 km/h
2338 20-03-2019 15:00:00 13.64167 C 5.61 g/m*3 13.64 C 6.85833 km/h
2339 20-03-2019 16:00:00 14.11667 C 5.86 g/m*3 14.12 C 8.075 km/h
2340 20-03-2019 17:00:00 14.83333 C 6.28 g/m*3 14.83 C 1.6 km/h
2341 20-03-2019 18:00:00 11.88333 C 6.7 g/m*3 11.88 C 0 km/h
2342 20-03-2019 19:00:00 8.5 C 6.26 g/m*3 8.5 C 0 km/h
2343 20-03-2019 20:00:00 6.85 C 6.08 g/m*3 6.85 C 0 km/h
2344 20-03-2019 21:00:00 5.43333 C 5.85 g/m*3 5.43 C 0 km/h
2345 20-03-2019 22:00:00 4.725 C 5.7 g/m*3 4.72 C 0 km/h
2346 20-03-2019 23:00:00 3.81667 C 5.49 g/m*3 3.82 C 0 km/h
2347 21-03-2019 00:00:00 3.31667 C 5.39 g/m*3 3.32 C 0.13333 km/h
2348 21-03-2019 01:00:00 2.55 C 5.14 g/m*3 2.55 C 0 km/h
2349 21-03-2019 02:00:00 1.81667 C 4.99 g/m*3 1.82 C 0 km/h
2350 21-03-2019 03:00:00 1.30833 C 4.87 g/m*3 1.31 C 0 km/h
Sensor: Nr:Datum:Temp:Abs-Feuchte:Windchill:Wind:
Aussen-T/F 2351 21-03-2019 04:00:00 0.99167 C 4.82 g/m*3 0.99 C 0 km/h
2352 21-03-2019 05:00:00 0.61667 C 4.72 g/m*3 0.62 C 0 km/h
2353 21-03-2019 06:00:00 0.33333 C 4.66 g/m*3 0.33 C 0 km/h
2354 21-03-2019 07:00:00 0.6 C 4.76 g/m*3 0.6 C 0 km/h
2355 21-03-2019 08:00:00 1.24167 C 5.01 g/m*3 1.24 C 0 km/h
2356 21-03-2019 09:00:00 2.50833 C 5.46 g/m*3 2.51 C 0 km/h
2357 21-03-2019 10:00:00 5.54167 C 6.37 g/m*3 5.54 C 0.13333 km/h
2358 21-03-2019 11:00:00 9.275 C 6.78 g/m*3 9.28 C 0.26667 km/h
2359 21-03-2019 12:00:00 12.99167 C 6.11 g/m*3 12.99 C 7.525 km/h
2360 21-03-2019 13:00:00 15.43333 C 5.73 g/m*3 15.43 C 4.95833 km/h
2361 21-03-2019 14:00:00 16.23333 C 5.45 g/m*3 16.23 C 5.89167 km/h
2362 21-03-2019 15:00:00 16.43333 C 5.45 g/m*3 16.43 C 5.625 km/h
2363 21-03-2019 16:00:00 17.625 C 5.67 g/m*3 17.63 C 7.775 km/h
2364 21-03-2019 17:00:00 18.01667 C 5.84 g/m*3 18.02 C 6.575 km/h
2365 21-03-2019 18:00:00 14.68333 C 6.62 g/m*3 14.68 C 5.2 km/h
2366 21-03-2019 19:00:00 10.96667 C 6.42 g/m*3 10.97 C 3.33333 km/h
2367 21-03-2019 20:00:00 9.20833 C 6.41 g/m*3 9.21 C 0.66667 km/h
2368 21-03-2019 21:00:00 7.65 C 6.05 g/m*3 7.65 C 0 km/h
2369 21-03-2019 22:00:00 6.15833 C 5.77 g/m*3 6.16 C 0 km/h
2370 21-03-2019 23:00:00 5.26667 C 5.67 g/m*3 5.27 C 0 km/h
2371 22-03-2019 00:00:00 4.425 C 5.54 g/m*3 4.43 C 0 km/h
2372 22-03-2019 01:00:00 3.69167 C 5.43 g/m*3 3.69 C 0 km/h
2373 22-03-2019 02:00:00 3.03333 C 5.27 g/m*3 3.03 C 0 km/h
2374 22-03-2019 03:00:00 2.20833 C 5.08 g/m*3 2.21 C 0 km/h
2375 22-03-2019 04:00:00 1.74167 C 5.02 g/m*3 1.74 C 0 km/h
Sensor: Nr:Datum:Temp:Abs-Feuchte:Windchill:Wind:
Aussen-T/F 2376 22-03-2019 05:00:00 1.53333 C 5 g/m*3 1.53 C 0 km/h
2377 22-03-2019 06:00:00 1.06667 C 4.86 g/m*3 1.07 C 0 km/h
2378 22-03-2019 07:00:00 1.24167 C 4.96 g/m*3 1.24 C 0 km/h
2379 22-03-2019 08:00:00 1.95833 C 5.26 g/m*3 1.96 C 0 km/h
2380 22-03-2019 09:00:00 3.70833 C 5.94 g/m*3 3.71 C 0 km/h
2381 22-03-2019 10:00:00 7.06667 C 7.02 g/m*3 7.07 C 0 km/h
2382 22-03-2019 11:00:00 11.70833 C 7.63 g/m*3 11.71 C 0 km/h
2383 22-03-2019 12:00:00 15.65 C 7.08 g/m*3 15.65 C 3.225 km/h
2384 22-03-2019 13:00:00 18.11667 C 6.47 g/m*3 18.12 C 10.20833 km/h
2385 22-03-2019 14:00:00 19.29167 C 5.97 g/m*3 19.29 C 7.38333 km/h
2386 22-03-2019 15:00:00 19.26667 C 6.4 g/m*3 19.27 C 9.55 km/h
2387 22-03-2019 16:00:00 19.83333 C 6.46 g/m*3 19.83 C 5.75833 km/h
2388 22-03-2019 17:00:00 20.95833 C 6.47 g/m*3 20.96 C 6.16667 km/h
2389 22-03-2019 18:00:00 16.7 C 7.19 g/m*3 16.7 C 4.53333 km/h
2390 22-03-2019 19:00:00 12.225 C 6.86 g/m*3 12.23 C 5.46667 km/h
2391 22-03-2019 20:00:00 10.825 C 6.74 g/m*3 10.83 C 4.66667 km/h
2392 22-03-2019 21:00:00 9.1 C 6.45 g/m*3 9.1 C 0.4 km/h
2393 22-03-2019 22:00:00 7.775 C 6.35 g/m*3 7.78 C 1.06667 km/h
2394 22-03-2019 23:00:00 6.66667 C 6.08 g/m*3 6.67 C 0 km/h
2395 23-03-2019 00:00:00 5.5 C 5.83 g/m*3 5.5 C 0 km/h
2396 23-03-2019 01:00:00 4.74167 C 5.71 g/m*3 4.74 C 0 km/h
2397 23-03-2019 02:00:00 4.05 C 5.62 g/m*3 4.05 C 0 km/h
2398 23-03-2019 03:00:00 3.69167 C 5.54 g/m*3 3.69 C 0 km/h
2399 23-03-2019 04:00:00 3.425 C 5.51 g/m*3 3.43 C 0 km/h
2400 23-03-2019 05:00:00 3.28333 C 5.44 g/m*3 3.28 C 0 km/h
Sensor: Nr:Datum:Temp:Abs-Feuchte:Windchill:Wind:
Aussen-T/F 2401 23-03-2019 06:00:00 2.525 C 5.25 g/m*3 2.53 C 0 km/h
2402 23-03-2019 07:00:00 4.06667 C 6.02 g/m*3 4.07 C 3.08333 km/h
2403 23-03-2019 08:00:00 6.20833 C 6.99 g/m*3 6.21 C 3.075 km/h
2404 23-03-2019 09:00:00 6.63333 C 7.14 g/m*3 6.63 C 0 km/h
2405 23-03-2019 10:00:00 7.18333 C 7.35 g/m*3 6.31 C 5.75 km/h
2406 23-03-2019 11:00:00 7.53333 C 7.43 g/m*3 6.67 C 5.89167 km/h
2407 23-03-2019 12:00:00 8.125 C 7.5 g/m*3 7.23 C 6.3 km/h
2408 23-03-2019 13:00:00 8.775 C 7.5 g/m*3 7.74 C 7.25833 km/h
2409 23-03-2019 14:00:00 9.45 C 7.39 g/m*3 8.03 C 9.7 km/h
2410 23-03-2019 15:00:00 10.08333 C 7.32 g/m*3 8.9 C 9.025 km/h
2411 23-03-2019 16:00:00 10.425 C 7.21 g/m*3 9.29 C 9.15833 km/h
2412 23-03-2019 17:00:00 10.425 C 7.16 g/m*3 9.64 C 7.375 km/h
2413 23-03-2019 18:00:00 9.175 C 6.9 g/m*3 9.18 C 2.4 km/h
2414 23-03-2019 19:00:00 6.80833 C 6.51 g/m*3 6.81 C 3.2 km/h
2415 23-03-2019 20:00:00 5.38333 C 6.19 g/m*3 5.38 C 0.13333 km/h
2416 23-03-2019 21:00:00 4.33333 C 5.93 g/m*3 4.33 C 0 km/h
2417 23-03-2019 22:00:00 3.55833 C 5.74 g/m*3 3.56 C 0 km/h
2418 23-03-2019 23:00:00 3.075 C 5.62 g/m*3 3.08 C 0 km/h
2419 24-03-2019 00:00:00 2.4 C 5.39 g/m*3 2.4 C 0 km/h
2420 24-03-2019 01:00:00 1.9 C 5.23 g/m*3 1.9 C 0 km/h
2421 24-03-2019 02:00:00 1.425 C 5.08 g/m*3 1.43 C 0 km/h
2422 24-03-2019 03:00:00 0.96667 C 4.92 g/m*3 0.97 C 0 km/h
2423 24-03-2019 04:00:00 0.89167 C 4.94 g/m*3 0.89 C 0 km/h
2424 24-03-2019 05:00:00 1.725 C 5.24 g/m*3 1.73 C 0.4 km/h
2425 24-03-2019 07:00:00 2.78182 C 5.62 g/m*3 2.78 C 0.29091 km/h
Sensor: Nr:Datum:Temp:Abs-Feuchte:Windchill:Wind:
Aussen-T/F 2426 24-03-2019 08:00:00 3.66667 C 6.02 g/m*3 3.67 C 0.13333 km/h
2427 24-03-2019 09:00:00 4.85 C 6.44 g/m*3 4.85 C 2.53333 km/h
2428 24-03-2019 10:00:00 6.875 C 7.1 g/m*3 6.88 C 3.46667 km/h
2429 24-03-2019 11:00:00 9.54167 C 7.8 g/m*3 9.54 C 4.81667 km/h
2430 24-03-2019 12:00:00 11.74167 C 8.07 g/m*3 11.74 C 9.53333 km/h
2431 24-03-2019 13:00:00 10.88333 C 8.07 g/m*3 9.16 C 13.7 km/h
2432 24-03-2019 14:00:00 10.64167 C 8.08 g/m*3 9.95 C 7.10833 km/h
2433 24-03-2019 15:00:00 11.09167 C 7.88 g/m*3 11.09 C 8.74167 km/h
2434 24-03-2019 16:00:00 12.03333 C 7.65 g/m*3 12.03 C 9.80833 km/h
2435 24-03-2019 17:00:00 12.28333 C 7.05 g/m*3 12.28 C 10.625 km/h
2436 24-03-2019 18:00:00 11.30833 C 6.37 g/m*3 11.31 C 8.6 km/h
2437 24-03-2019 19:00:00 9.075 C 5.77 g/m*3 8.47 C 5.775 km/h
2438 24-03-2019 20:00:00 7.18333 C 5.55 g/m*3 7.18 C 4.4 km/h
2439 24-03-2019 21:00:00 5.59167 C 5.39 g/m*3 5.59 C 0.93333 km/h
2440 24-03-2019 22:00:00 4.23333 C 5.21 g/m*3 4.23 C 0.8 km/h
2441 24-03-2019 23:00:00 3.56667 C 5.11 g/m*3 3.57 C 2.53333 km/h
2442 25-03-2019 00:00:00 3.35 C 5.02 g/m*3 3.35 C 2.93333 km/h
2443 25-03-2019 01:00:00 1.875 C 4.76 g/m*3 1.88 C 0.53333 km/h
2444 25-03-2019 02:00:00 1.89167 C 4.9 g/m*3 0.46 C 5.225 km/h
2445 25-03-2019 03:00:00 2.29167 C 4.99 g/m*3 0.45 C 6.43333 km/h
2446 25-03-2019 04:00:00 2.85833 C 5.07 g/m*3 0.76 C 7.50833 km/h
2447 25-03-2019 05:00:00 3.675 C 5.13 g/m*3 0.61 C 12.23333 km/h
2448 25-03-2019 06:00:00 3.74167 C 5.19 g/m*3 1.46 C 8.75 km/h
2449 25-03-2019 07:00:00 4.38333 C 5.53 g/m*3 2.15 C 9.01667 km/h
2450 25-03-2019 08:00:00 4.56667 C 6.01 g/m*3 2.83 C 7.25 km/h
Sensor: Nr:Datum:Temp:Abs-Feuchte:Windchill:Wind:
Aussen-T/F 2451 25-03-2019 09:00:00 6.15 C 6.25 g/m*3 3.41 C 13.43333 km/h
2452 25-03-2019 10:00:00 7.41667 C 5.92 g/m*3 4.58 C 16.1 km/h
2453 25-03-2019 11:00:00 7.375 C 6.01 g/m*3 4.62 C 15.43333 km/h
2454 25-03-2019 12:00:00 7.725 C 6.31 g/m*3 4.41 C 20.90833 km/h
2455 25-03-2019 13:00:00 7.55 C 6.48 g/m*3 4.34 C 19.45 km/h
2456 25-03-2019 14:00:00 7.65833 C 6.21 g/m*3 4.6 C 18.38333 km/h
2457 25-03-2019 15:00:00 7.18333 C 6.57 g/m*3 4.89 C 12.08333 km/h
2458 25-03-2019 16:00:00 7.29167 C 6.64 g/m*3 5.02 C 12.08333 km/h
2459 25-03-2019 17:00:00 5.71667 C 6.41 g/m*3 3.83 C 8.58333 km/h
2460 25-03-2019 18:00:00 5.3 C 6.46 g/m*3 5.3 C 3.20833 km/h
2461 25-03-2019 19:00:00 5.04167 C 6.39 g/m*3 5.04 C 2.53333 km/h
2462 25-03-2019 20:00:00 5.1 C 6.48 g/m*3 5.1 C 2.26667 km/h
2463 25-03-2019 21:00:00 5.24167 C 6.56 g/m*3 5.24 C 4.29167 km/h
2464 25-03-2019 22:00:00 5.15833 C 6.39 g/m*3 5.16 C 4.675 km/h
2465 25-03-2019 23:00:00 4.65 C 6.2 g/m*3 4.65 C 1.06667 km/h
2466 26-03-2019 00:00:00 4.49167 C 6.21 g/m*3 4.49 C 2 km/h
2467 26-03-2019 01:00:00 4.525 C 6.19 g/m*3 4.53 C 0.53333 km/h
2468 26-03-2019 02:00:00 4.375 C 6.19 g/m*3 4.38 C 0.13333 km/h
2469 26-03-2019 03:00:00 4.64167 C 6.3 g/m*3 4.64 C 0.66667 km/h
2470 26-03-2019 04:00:00 4.91667 C 6.42 g/m*3 4.92 C 1.33333 km/h
2471 26-03-2019 05:00:00 5.00833 C 6.37 g/m*3 5.01 C 2.93333 km/h
2472 26-03-2019 06:00:00 4.99167 C 6.23 g/m*3 4.99 C 2.94167 km/h
2473 26-03-2019 07:00:00 5.06667 C 6.15 g/m*3 5.07 C 2.13333 km/h
2474 26-03-2019 08:00:00 5.55 C 6 g/m*3 5.55 C 4.95 km/h
2475 26-03-2019 09:00:00 6.225 C 5.91 g/m*3 4.69 C 7.53333 km/h
Sensor: Nr:Datum:Temp:Abs-Feuchte:Windchill:Wind:
Aussen-T/F 2476 26-03-2019 10:00:00 6.98333 C 5.91 g/m*3 4.78 C 11.29167 km/h
2477 26-03-2019 11:00:00 7.26667 C 5.66 g/m*3 5.69 C 8.46667 km/h
2478 26-03-2019 12:00:00 8.46667 C 5.93 g/m*3 6.59 C 11.16667 km/h
2479 26-03-2019 13:00:00 8.85 C 5.76 g/m*3 7.15 C 10.625 km/h
2480 26-03-2019 14:00:00 8.875 C 5.68 g/m*3 6.88 C 12.49167 km/h
2481 26-03-2019 15:00:00 9.03333 C 5.88 g/m*3 7.8 C 8.34167 km/h
2482 26-03-2019 16:00:00 9.49167 C 5.89 g/m*3 7.62 C 12.5 km/h
2483 26-03-2019 17:00:00 8.43333 C 6.05 g/m*3 7.16 C 8.05 km/h
2484 26-03-2019 18:00:00 8.11667 C 6.16 g/m*3 7.38 C 5.75833 km/h
2485 26-03-2019 19:00:00 7.59167 C 6.33 g/m*3 7.59 C 0.8 km/h
2486 26-03-2019 20:00:00 7.075 C 6.4 g/m*3 7.08 C 0.4 km/h
2487 26-03-2019 21:00:00 6.81667 C 6.44 g/m*3 6.82 C 0.13333 km/h
2488 26-03-2019 22:00:00 6.51667 C 6.48 g/m*3 6.52 C 0 km/h
2489 26-03-2019 23:00:00 6.24167 C 6.42 g/m*3 6.24 C 0.26667 km/h
2490 27-03-2019 00:00:00 6.10833 C 6.4 g/m*3 6.11 C 0.8 km/h
2491 27-03-2019 01:00:00 5.575 C 6.29 g/m*3 5.58 C 0 km/h
2492 27-03-2019 02:00:00 5.25 C 6.25 g/m*3 5.25 C 0 km/h
2493 27-03-2019 03:00:00 4.9 C 6.12 g/m*3 4.9 C 0 km/h
2494 27-03-2019 04:00:00 4.05833 C 5.81 g/m*3 4.06 C 0.13333 km/h
2495 27-03-2019 05:00:00 2.91667 C 5.43 g/m*3 2.92 C 0.53333 km/h
2496 27-03-2019 06:00:00 2.1 C 5.23 g/m*3 2.1 C 0 km/h
2497 27-03-2019 07:00:00 2.6 C 5.47 g/m*3 2.6 C 0.26667 km/h
2498 27-03-2019 08:00:00 3.88333 C 5.97 g/m*3 3.88 C 0.53333 km/h
2499 27-03-2019 09:00:00 5.8 C 6.58 g/m*3 5.8 C 1.6 km/h
2500 27-03-2019 10:00:00 8.16667 C 7 g/m*3 8.17 C 2.93333 km/h
Sensor: Nr:Datum:Temp:Abs-Feuchte:Windchill:Wind:
Aussen-T/F 2501 27-03-2019 11:00:00 9.13333 C 6.8 g/m*3 8.58 C 5.625 km/h
2502 27-03-2019 12:00:00 10.05 C 6.55 g/m*3 9.49 C 6.16667 km/h
2503 27-03-2019 13:00:00 10.8 C 6.28 g/m*3 9.64 C 9.68333 km/h
2504 27-03-2019 14:00:00 11.05 C 6.13 g/m*3 11.05 C 6.44167 km/h
2505 27-03-2019 15:00:00 11.10833 C 6.07 g/m*3 11.11 C 7.51667 km/h
2506 27-03-2019 16:00:00 11.23333 C 6.02 g/m*3 11.23 C 6.3 km/h
2507 27-03-2019 17:00:00 10.975 C 5.99 g/m*3 10.77 C 5.33333 km/h
2508 27-03-2019 18:00:00 9.83333 C 6.38 g/m*3 9.83 C 0.8 km/h
2509 27-03-2019 19:00:00 7.64167 C 6.24 g/m*3 7.64 C 3.46667 km/h
2510 27-03-2019 20:00:00 6.49167 C 6.12 g/m*3 6.49 C 3.86667 km/h
2511 27-03-2019 21:00:00 5.69167 C 6.04 g/m*3 5.69 C 1.33333 km/h
2512 27-03-2019 22:00:00 4.725 C 5.79 g/m*3 4.72 C 0.4 km/h
2513 27-03-2019 23:00:00 3.475 C 5.52 g/m*3 3.48 C 0 km/h
2514 28-03-2019 00:00:00 2.925 C 5.43 g/m*3 2.93 C 0.53333 km/h
2515 28-03-2019 01:00:00 2.475 C 5.3 g/m*3 2.48 C 0 km/h
2516 28-03-2019 02:00:00 1.975 C 5.16 g/m*3 1.98 C 0 km/h
2517 28-03-2019 03:00:00 1.60833 C 5.07 g/m*3 1.61 C 0 km/h
2518 28-03-2019 04:00:00 1.375 C 5.01 g/m*3 1.38 C 0.13333 km/h
2519 28-03-2019 05:00:00 1.13333 C 4.95 g/m*3 1.13 C 0 km/h
2520 28-03-2019 06:00:00 1.59167 C 5.13 g/m*3 1.59 C 0 km/h
2521 28-03-2019 07:00:00 2.11667 C 5.32 g/m*3 2.12 C 0.26667 km/h
2522 28-03-2019 08:00:00 2.79167 C 5.55 g/m*3 2.79 C 1.33333 km/h
2523 28-03-2019 09:00:00 4.425 C 6.07 g/m*3 4.43 C 2.66667 km/h
2524 28-03-2019 10:00:00 7.30833 C 6.69 g/m*3 7.31 C 0.4 km/h
2525 28-03-2019 11:00:00 10.325 C 7.27 g/m*3 10.33 C 3.475 km/h
Sensor: Nr:Datum:Temp:Abs-Feuchte:Windchill:Wind:
Aussen-T/F 2526 28-03-2019 12:00:00 12.53333 C 7.36 g/m*3 12.53 C 8.33333 km/h
2527 28-03-2019 13:00:00 13.21667 C 7.57 g/m*3 13.22 C 8.33333 km/h
2528 28-03-2019 14:00:00 13.5 C 7.52 g/m*3 13.5 C 10.75833 km/h
2529 28-03-2019 15:00:00 13.4 C 7.4 g/m*3 13.4 C 8.60833 km/h
2530 28-03-2019 16:00:00 13.45833 C 7.32 g/m*3 13.46 C 9.01667 km/h
2531 28-03-2019 17:00:00 13.19167 C 7.32 g/m*3 13.19 C 6.70833 km/h
2532 28-03-2019 18:00:00 12.16667 C 7.58 g/m*3 12.17 C 2.53333 km/h
2533 28-03-2019 19:00:00 10.36667 C 7.52 g/m*3 10.37 C 0.93333 km/h
2534 28-03-2019 20:00:00 10.23333 C 7.49 g/m*3 10.23 C 0.53333 km/h
2535 28-03-2019 21:00:00 9.50833 C 7.27 g/m*3 9.51 C 0 km/h
2536 28-03-2019 22:00:00 7.88333 C 6.88 g/m*3 7.88 C 0.53333 km/h
2537 28-03-2019 23:00:00 6.3 C 6.5 g/m*3 6.3 C 0 km/h
2538 29-03-2019 00:00:00 5.28333 C 6.27 g/m*3 5.28 C 0 km/h
2539 29-03-2019 01:00:00 4.35 C 6 g/m*3 4.35 C 0 km/h
2540 29-03-2019 02:00:00 3.85833 C 5.89 g/m*3 3.86 C 0 km/h
2541 29-03-2019 03:00:00 3.05833 C 5.61 g/m*3 3.06 C 0 km/h
2542 29-03-2019 04:00:00 2.89167 C 5.61 g/m*3 2.89 C 0 km/h
2543 29-03-2019 05:00:00 2.18333 C 5.34 g/m*3 2.18 C 0 km/h
2544 29-03-2019 06:00:00 2.075 C 5.31 g/m*3 2.08 C 0 km/h
2545 29-03-2019 07:00:00 2.175 C 5.39 g/m*3 2.17 C 0 km/h
2546 29-03-2019 08:00:00 2.93333 C 5.69 g/m*3 2.93 C 0 km/h
2547 29-03-2019 09:00:00 4.94167 C 6.56 g/m*3 4.94 C 0 km/h
2548 29-03-2019 10:00:00 8.09167 C 7.98 g/m*3 8.09 C 0.53333 km/h
2549 29-03-2019 11:00:00 12.48333 C 8.54 g/m*3 12.48 C 9.79167 km/h
2550 29-03-2019 12:00:00 14.475 C 8.29 g/m*3 14.48 C 8.46667 km/h
Sensor: Nr:Datum:Temp:Abs-Feuchte:Windchill:Wind:
Aussen-T/F 2551 29-03-2019 13:00:00 15.93333 C 8.14 g/m*3 15.93 C 10.225 km/h
2552 29-03-2019 14:00:00 16.83333 C 7.91 g/m*3 16.83 C 10.89167 km/h
2553 29-03-2019 15:00:00 17.475 C 7.8 g/m*3 17.48 C 9.68333 km/h
2554 29-03-2019 16:00:00 18.41667 C 7.82 g/m*3 18.42 C 8.71667 km/h
2555 29-03-2019 17:00:00 18.94167 C 7.7 g/m*3 18.94 C 4.53333 km/h
2556 29-03-2019 18:00:00 16.95833 C 7.77 g/m*3 16.96 C 2.675 km/h
2557 29-03-2019 19:00:00 11.55 C 7.26 g/m*3 11.55 C 5.46667 km/h
2558 29-03-2019 20:00:00 9.86667 C 7.1 g/m*3 9.87 C 1.6 km/h
2559 29-03-2019 21:00:00 8.10833 C 6.77 g/m*3 8.11 C 0 km/h
2560 29-03-2019 22:00:00 6.7 C 6.42 g/m*3 6.7 C 0 km/h
2561 29-03-2019 23:00:00 5.575 C 6.15 g/m*3 5.58 C 0 km/h
2562 30-03-2019 00:00:00 4.59167 C 5.94 g/m*3 4.59 C 0 km/h
2563 30-03-2019 01:00:00 4 C 5.82 g/m*3 4 C 0 km/h
2564 30-03-2019 02:00:00 3.45 C 5.66 g/m*3 3.45 C 0 km/h
2565 30-03-2019 03:00:00 2.8 C 5.49 g/m*3 2.8 C 0 km/h
2566 30-03-2019 04:00:00 2.48333 C 5.4 g/m*3 2.48 C 0 km/h
2567 30-03-2019 05:00:00 1.875 C 5.19 g/m*3 1.88 C 0 km/h
2568 30-03-2019 06:00:00 1.73333 C 5.18 g/m*3 1.73 C 0 km/h
2569 30-03-2019 07:00:00 2.11667 C 5.36 g/m*3 2.12 C 0.13333 km/h
2570 30-03-2019 08:00:00 3.35833 C 5.85 g/m*3 3.36 C 0.26667 km/h
2571 30-03-2019 09:00:00 5.45 C 6.77 g/m*3 5.45 C 0 km/h
2572 30-03-2019 10:00:00 8.84167 C 7.93 g/m*3 8.84 C 0 km/h
2573 30-03-2019 11:00:00 13.74167 C 8.36 g/m*3 13.74 C 5.225 km/h
2574 30-03-2019 12:00:00 17.6 C 7.5 g/m*3 17.6 C 14.76667 km/h
2575 30-03-2019 13:00:00 19.30833 C 6.85 g/m*3 19.31 C 14.76667 km/h
Sensor: Nr:Datum:Temp:Abs-Feuchte:Windchill:Wind:
Aussen-T/F 2576 30-03-2019 14:00:00 19.93333 C 6.57 g/m*3 19.93 C 16.63333 km/h
2577 30-03-2019 15:00:00 20.41667 C 6.55 g/m*3 20.42 C 13.96667 km/h
2578 30-03-2019 16:00:00 20.54167 C 6.94 g/m*3 20.54 C 8.85 km/h
2579 30-03-2019 17:00:00 19.46667 C 7.22 g/m*3 19.47 C 4.29167 km/h
2580 30-03-2019 18:00:00 17.30833 C 7.89 g/m*3 17.31 C 1.86667 km/h
2581 30-03-2019 19:00:00 14.88333 C 7.55 g/m*3 14.88 C 0.8 km/h
2582 30-03-2019 20:00:00 13.79167 C 7.66 g/m*3 13.79 C 2.66667 km/h
2583 30-03-2019 21:00:00 12.4 C 7.6 g/m*3 12.4 C 0.93333 km/h
2584 30-03-2019 22:00:00 11.125 C 7.57 g/m*3 11.13 C 0 km/h
2585 30-03-2019 23:00:00 10.80833 C 7.47 g/m*3 10.81 C 0 km/h
2586 31-03-2019 00:00:00 9.55833 C 7.04 g/m*3 9.56 C 0.4 km/h
2587 31-03-2019 01:00:00 8.38333 C 6.93 g/m*3 8.38 C 0 km/h
2588 31-03-2019 02:00:00 7.30833 C 6.64 g/m*3 7.31 C 0.4 km/h
2589 31-03-2019 04:00:00 6.45 C 6.42 g/m*3 6.45 C 0.13333 km/h
2590 31-03-2019 05:00:00 5.15 C 6.1 g/m*3 5.15 C 0.13333 km/h
2591 31-03-2019 06:00:00 4.95 C 6.13 g/m*3 4.95 C 0.4 km/h
2592 31-03-2019 07:00:00 4.78333 C 6.08 g/m*3 4.78 C 0.4 km/h
2593 31-03-2019 08:00:00 4.70833 C 6.13 g/m*3 4.71 C 0 km/h
2594 31-03-2019 09:00:00 5.50833 C 6.53 g/m*3 5.51 C 0 km/h
2595 31-03-2019 10:00:00 8 C 7.54 g/m*3 8 C 0 km/h
2596 31-03-2019 11:00:00 11.51667 C 8.13 g/m*3 11.52 C 0.26667 km/h
2597 31-03-2019 12:00:00 14.56667 C 8.23 g/m*3 14.57 C 3.2 km/h
2598 31-03-2019 13:00:00 16.74167 C 7.93 g/m*3 16.74 C 5.76667 km/h
2599 31-03-2019 14:00:00 18.34167 C 7.9 g/m*3 18.34 C 7.91667 km/h
2600 31-03-2019 15:00:00 18.825 C 7.77 g/m*3 18.83 C 9.81667 km/h
Sensor: Nr:Datum:Temp:Abs-Feuchte:Windchill:Wind:
Aussen-T/F 2601 31-03-2019 16:00:00 15.925 C 9.88 g/m*3 15.93 C 6.96667 km/h
2602 31-03-2019 17:00:00 14.2 C 10.95 g/m*3 14.2 C 1.86667 km/h
2603 31-03-2019 18:00:00 15.28333 C 9.93 g/m*3 15.28 C 4.95 km/h
2604 31-03-2019 19:00:00 12.74167 C 9 g/m*3 12.74 C 2.93333 km/h
2605 31-03-2019 20:00:00 10.11667 C 8.24 g/m*3 10.12 C 4.4 km/h
2606 31-03-2019 21:00:00 8.95 C 7.72 g/m*3 8.95 C 2.13333 km/h
2607 31-03-2019 22:00:00 8.04167 C 7.27 g/m*3 8.04 C 2 km/h
2608 31-03-2019 23:00:00 7.21667 C 6.92 g/m*3 7.22 C 0.8 km/h
2609 01-04-2019 00:00:00 6.36667 C 6.62 g/m*3 6.37 C 0 km/h
2610 01-04-2019 01:00:00 5.74167 C 6.37 g/m*3 5.74 C 0.26667 km/h
2611 01-04-2019 02:00:00 5.25 C 6.22 g/m*3 5.25 C 1.86667 km/h
2612 01-04-2019 03:00:00 4.69167 C 6.04 g/m*3 4.69 C 2.8 km/h
2613 01-04-2019 04:00:00 4.31667 C 5.9 g/m*3 4.32 C 1.73333 km/h
2614 01-04-2019 05:00:00 3.975 C 5.78 g/m*3 3.98 C 0.8 km/h
2615 01-04-2019 06:00:00 3.56667 C 5.67 g/m*3 3.57 C 0.4 km/h
2616 01-04-2019 07:00:00 3.15 C 5.54 g/m*3 3.15 C 0.8 km/h
2617 01-04-2019 08:00:00 3.16667 C 5.61 g/m*3 3.17 C 0 km/h
2618 01-04-2019 09:00:00 4.29167 C 6.01 g/m*3 4.29 C 0.66667 km/h
2619 01-04-2019 10:00:00 6.65 C 6.32 g/m*3 5.52 C 6.31667 km/h
2620 01-04-2019 11:00:00 9.53333 C 6.5 g/m*3 8.18 C 9.40833 km/h
2621 01-04-2019 12:00:00 11.28333 C 6.7 g/m*3 11.28 C 10.08333 km/h
2622 01-04-2019 13:00:00 13.00833 C 6.96 g/m*3 13.01 C 9.15833 km/h
2623 01-04-2019 14:00:00 14.91667 C 7.26 g/m*3 14.92 C 10.63333 km/h
2624 01-04-2019 15:00:00 16.39167 C 7.5 g/m*3 16.39 C 8.73333 km/h
2625 01-04-2019 16:00:00 17.5 C 7.53 g/m*3 17.5 C 6.15833 km/h
Sensor: Nr:Datum:Temp:Abs-Feuchte:Windchill:Wind:
Aussen-T/F 2626 01-04-2019 17:00:00 18.275 C 7.44 g/m*3 18.27 C 8.46667 km/h
2627 01-04-2019 18:00:00 17.875 C 7.22 g/m*3 17.88 C 7.65833 km/h
2628 01-04-2019 19:00:00 16 C 7.62 g/m*3 16 C 4.01667 km/h
2629 01-04-2019 20:00:00 11.775 C 7.41 g/m*3 11.78 C 5.2 km/h
2630 01-04-2019 21:00:00 10.15833 C 7.18 g/m*3 10.16 C 4.66667 km/h
2631 01-04-2019 22:00:00 9.35 C 6.95 g/m*3 9.35 C 2.26667 km/h
2632 01-04-2019 23:00:00 8.79167 C 6.73 g/m*3 8.79 C 1.86667 km/h
2633 02-04-2019 00:00:00 7.93333 C 6.63 g/m*3 7.93 C 0 km/h
2634 02-04-2019 01:00:00 7.04167 C 6.46 g/m*3 7.04 C 0 km/h
2635 02-04-2019 02:00:00 6.3 C 6.27 g/m*3 6.3 C 0 km/h
2636 02-04-2019 03:00:00 5.09167 C 5.98 g/m*3 5.09 C 0 km/h
2637 02-04-2019 04:00:00 4.39167 C 5.88 g/m*3 4.39 C 0 km/h
2638 02-04-2019 05:00:00 3.96667 C 5.78 g/m*3 3.97 C 0 km/h
2639 02-04-2019 06:00:00 3.88333 C 5.81 g/m*3 3.88 C 0 km/h
2640 02-04-2019 07:00:00 4.00833 C 5.91 g/m*3 4.01 C 0 km/h
2641 02-04-2019 08:00:00 4.98333 C 6.31 g/m*3 4.98 C 0 km/h
2642 02-04-2019 09:00:00 6.53333 C 6.71 g/m*3 6.53 C 0 km/h
2643 02-04-2019 10:00:00 8.71667 C 7.1 g/m*3 8.72 C 0 km/h
2644 02-04-2019 11:00:00 11.95 C 7.96 g/m*3 11.95 C 2.8 km/h
2645 02-04-2019 12:00:00 15.01667 C 8.57 g/m*3 15.02 C 4.01667 km/h
2646 02-04-2019 13:00:00 16.80833 C 8.7 g/m*3 16.81 C 6.175 km/h
2647 02-04-2019 14:00:00 17.975 C 8.91 g/m*3 17.98 C 9.55833 km/h
2648 02-04-2019 15:00:00 16.725 C 9.1 g/m*3 16.73 C 12.625 km/h
2649 02-04-2019 16:00:00 17.46667 C 8.58 g/m*3 17.47 C 16.36667 km/h
2650 02-04-2019 17:00:00 16.00833 C 8.99 g/m*3 16.01 C 9.15 km/h
Sensor: Nr:Datum:Temp:Abs-Feuchte:Windchill:Wind:
Aussen-T/F 2651 02-04-2019 18:00:00 16.08333 C 8.71 g/m*3 16.08 C 6.71667 km/h
2652 02-04-2019 19:00:00 15.35833 C 8.65 g/m*3 15.36 C 4.00833 km/h
2653 02-04-2019 20:00:00 14.03333 C 8.59 g/m*3 14.03 C 7.11667 km/h
2654 02-04-2019 21:00:00 13.50833 C 8.12 g/m*3 13.51 C 8.325 km/h
2655 02-04-2019 22:00:00 12.66667 C 7.79 g/m*3 12.67 C 6.84167 km/h
2656 02-04-2019 23:00:00 11.4 C 7.6 g/m*3 11.4 C 0.66667 km/h
2657 03-04-2019 00:00:00 10.50833 C 7.64 g/m*3 10.51 C 0.66667 km/h
2658 03-04-2019 01:00:00 10.275 C 7.62 g/m*3 10.28 C 0 km/h
2659 03-04-2019 02:00:00 9.90833 C 7.61 g/m*3 9.91 C 0 km/h
2660 03-04-2019 03:00:00 8.91667 C 7.43 g/m*3 8.92 C 0 km/h
2661 03-04-2019 04:00:00 8.875 C 7.54 g/m*3 8.88 C 0 km/h
2662 03-04-2019 05:00:00 8.6 C 7.44 g/m*3 8.6 C 0 km/h
2663 03-04-2019 06:00:00 8.075 C 7.3 g/m*3 8.07 C 0.53333 km/h
2664 03-04-2019 07:00:00 8.64167 C 7.32 g/m*3 8.64 C 0.53333 km/h
2665 03-04-2019 08:00:00 8.86667 C 7.52 g/m*3 8.87 C 3.35833 km/h
2666 03-04-2019 09:00:00 7.66667 C 7.32 g/m*3 5.96 C 9.4 km/h
2667 03-04-2019 10:00:00 7.025 C 7.11 g/m*3 7.03 C 2.80833 km/h
2668 03-04-2019 11:00:00 7.44167 C 7.33 g/m*3 7.44 C 1.2 km/h
2669 03-04-2019 12:00:00 8.33333 C 7.51 g/m*3 8.33 C 3.60833 km/h
2670 03-04-2019 13:00:00 9.475 C 7.56 g/m*3 9.48 C 3.6 km/h
2671 03-04-2019 14:00:00 9.43333 C 7.37 g/m*3 9.43 C 4.54167 km/h
2672 03-04-2019 15:00:00 10.05 C 7.52 g/m*3 9.35 C 6.7 km/h
2673 03-04-2019 16:00:00 10.2 C 7.47 g/m*3 10.2 C 4.675 km/h
2674 03-04-2019 17:00:00 9.45833 C 7.47 g/m*3 9.46 C 2.93333 km/h
2675 03-04-2019 18:00:00 7.93333 C 7.42 g/m*3 7.93 C 1.6 km/h
Sensor: Nr:Datum:Temp:Abs-Feuchte:Windchill:Wind:
Aussen-T/F 2676 03-04-2019 19:00:00 7.025 C 7.2 g/m*3 7.03 C 0.26667 km/h
2677 03-04-2019 20:00:00 6.45 C 7 g/m*3 6.45 C 0 km/h
2678 03-04-2019 21:00:00 6.23333 C 6.98 g/m*3 6.23 C 0 km/h
2679 03-04-2019 22:00:00 5.875 C 6.84 g/m*3 5.88 C 0.13333 km/h
2680 03-04-2019 23:00:00 5.63333 C 6.73 g/m*3 5.63 C 0.13333 km/h
2681 04-04-2019 00:00:00 5.65 C 6.77 g/m*3 5.65 C 0.4 km/h
2682 04-04-2019 01:00:00 5.325 C 6.64 g/m*3 5.33 C 1.06667 km/h
2683 04-04-2019 02:00:00 5.41667 C 6.71 g/m*3 5.42 C 2.13333 km/h
2684 04-04-2019 03:00:00 5.6 C 6.79 g/m*3 5.6 C 0 km/h
2685 04-04-2019 04:00:00 5.54167 C 6.76 g/m*3 5.54 C 0 km/h
2686 04-04-2019 05:00:00 5.60833 C 6.79 g/m*3 5.61 C 0 km/h
2687 04-04-2019 06:00:00 5.475 C 6.73 g/m*3 5.48 C 0 km/h
2688 04-04-2019 07:00:00 5.34167 C 6.67 g/m*3 5.34 C 0 km/h
2689 04-04-2019 08:00:00 5.61667 C 6.79 g/m*3 5.62 C 0 km/h
2690 04-04-2019 09:00:00 5.93333 C 6.97 g/m*3 5.93 C 0.66667 km/h
2691 04-04-2019 10:00:00 6.075 C 7 g/m*3 6.08 C 1.46667 km/h
2692 04-04-2019 11:00:00 6.65833 C 7.07 g/m*3 6.66 C 2.26667 km/h
2693 04-04-2019 12:00:00 6.95 C 6.91 g/m*3 6.17 C 5.375 km/h
2694 04-04-2019 13:00:00 6.69167 C 6.96 g/m*3 6.69 C 2.80833 km/h
2695 04-04-2019 14:00:00 6.4 C 6.84 g/m*3 6.4 C 4.14167 km/h
2696 04-04-2019 15:00:00 6.85833 C 6.99 g/m*3 6.86 C 0.4 km/h
2697 04-04-2019 16:00:00 7.08333 C 7.09 g/m*3 7.08 C 1.73333 km/h
2698 04-04-2019 17:00:00 7.43333 C 7.03 g/m*3 7.43 C 4.55 km/h
2699 04-04-2019 18:00:00 7.56667 C 6.85 g/m*3 7.57 C 3.475 km/h
2700 04-04-2019 19:00:00 7.25833 C 6.86 g/m*3 7.26 C 1.33333 km/h
Sensor: Nr:Datum:Temp:Abs-Feuchte:Windchill:Wind:
Aussen-T/F 2701 04-04-2019 20:00:00 5.95833 C 6.64 g/m*3 5.96 C 1.46667 km/h
2702 04-04-2019 21:00:00 5.29167 C 6.48 g/m*3 5.29 C 1.33333 km/h
2703 04-04-2019 22:00:00 5.08333 C 6.45 g/m*3 5.08 C 0.53333 km/h
2704 04-04-2019 23:00:00 4.575 C 6.24 g/m*3 4.58 C 0 km/h
2705 05-04-2019 00:00:00 4.10833 C 6.08 g/m*3 4.11 C 0 km/h
2706 05-04-2019 01:00:00 3.525 C 5.87 g/m*3 3.53 C 0 km/h
2707 05-04-2019 02:00:00 3.775 C 6.01 g/m*3 3.78 C 0 km/h
2708 05-04-2019 03:00:00 3.85833 C 6.05 g/m*3 3.86 C 0 km/h
2709 05-04-2019 04:00:00 4.06667 C 6.13 g/m*3 4.07 C 0 km/h
2710 05-04-2019 05:00:00 3.93333 C 6.08 g/m*3 3.93 C 0 km/h
2711 05-04-2019 06:00:00 3.9 C 6.06 g/m*3 3.9 C 0 km/h
2712 05-04-2019 07:00:00 4.13333 C 6.2 g/m*3 4.13 C 0 km/h
2713 05-04-2019 08:00:00 4.64167 C 6.44 g/m*3 4.64 C 0 km/h
2714 05-04-2019 09:00:00 5.3 C 6.72 g/m*3 5.3 C 3.06667 km/h
2715 05-04-2019 10:00:00 5.89167 C 6.89 g/m*3 5.89 C 1.2 km/h
2716 05-04-2019 11:00:00 7.16667 C 7.06 g/m*3 6.34 C 5.60833 km/h
2717 05-04-2019 12:00:00 8.025 C 7.1 g/m*3 6.87 C 7.23333 km/h
2718 05-04-2019 13:00:00 8.19167 C 7.07 g/m*3 8.19 C 4.54167 km/h
2719 05-04-2019 14:00:00 8.41667 C 7.1 g/m*3 8.42 C 3.46667 km/h
2720 05-04-2019 15:00:00 8.55 C 7.21 g/m*3 8.55 C 4.40833 km/h
2721 05-04-2019 16:00:00 8.58333 C 7.32 g/m*3 8.08 C 5.20833 km/h
2722 05-04-2019 17:00:00 8.41667 C 7.4 g/m*3 8.42 C 4.14167 km/h
2723 05-04-2019 18:00:00 8.3 C 7.49 g/m*3 8.3 C 2.94167 km/h
2724 05-04-2019 19:00:00 8.19167 C 7.55 g/m*3 8.19 C 0 km/h
2725 05-04-2019 20:00:00 7.925 C 7.55 g/m*3 7.93 C 0 km/h
Sensor: Nr:Datum:Temp:Abs-Feuchte:Windchill:Wind:
Aussen-T/F 2726 05-04-2019 21:00:00 7.69167 C 7.54 g/m*3 7.69 C 0 km/h
2727 05-04-2019 22:00:00 7.61667 C 7.58 g/m*3 7.62 C 0 km/h
2728 05-04-2019 23:00:00 7.6 C 7.61 g/m*3 7.6 C 0 km/h
2729 06-04-2019 00:00:00 7.45833 C 7.58 g/m*3 7.46 C 0 km/h
2730 06-04-2019 01:00:00 7.40833 C 7.63 g/m*3 7.41 C 0 km/h
2731 06-04-2019 02:00:00 7.225 C 7.54 g/m*3 7.23 C 0 km/h
2732 06-04-2019 03:00:00 6.14167 C 6.97 g/m*3 6.14 C 2.93333 km/h
2733 06-04-2019 04:00:00 5.15833 C 6.57 g/m*3 5.16 C 0.13333 km/h
2734 06-04-2019 05:00:00 5.01667 C 6.53 g/m*3 5.02 C 0 km/h
2735 06-04-2019 06:00:00 4.675 C 6.4 g/m*3 4.68 C 0 km/h
2736 06-04-2019 07:00:00 5.13333 C 6.63 g/m*3 5.13 C 0 km/h
2737 06-04-2019 08:00:00 5.71667 C 6.91 g/m*3 5.72 C 0.4 km/h
2738 06-04-2019 09:00:00 6.025 C 7.05 g/m*3 6.03 C 0.53333 km/h
2739 06-04-2019 10:00:00 7.325 C 7.69 g/m*3 7.33 C 0 km/h
2740 06-04-2019 11:00:00 9.825 C 8.4 g/m*3 9.09 C 6.70833 km/h
2741 06-04-2019 12:00:00 12.51667 C 8.42 g/m*3 12.52 C 5.89167 km/h
2742 06-04-2019 13:00:00 14.375 C 8.5 g/m*3 14.38 C 8.325 km/h
2743 06-04-2019 14:00:00 16.04167 C 8.47 g/m*3 16.04 C 8.85 km/h
2744 06-04-2019 15:00:00 15.96667 C 8.24 g/m*3 15.97 C 9.40833 km/h
2745 06-04-2019 16:00:00 15.81667 C 8.31 g/m*3 15.82 C 7.925 km/h
2746 06-04-2019 17:00:00 16.30833 C 8.41 g/m*3 16.31 C 8.05833 km/h
2747 06-04-2019 18:00:00 17.31667 C 8.61 g/m*3 17.32 C 6.175 km/h
2748 06-04-2019 19:00:00 16.46667 C 9.06 g/m*3 16.47 C 0.53333 km/h
2749 06-04-2019 20:00:00 12.50833 C 8.76 g/m*3 12.51 C 0 km/h
2750 06-04-2019 21:00:00 11.1 C 8.53 g/m*3 11.1 C 0 km/h
Sensor: Nr:Datum:Temp:Abs-Feuchte:Windchill:Wind:
Aussen-T/F 2751 06-04-2019 22:00:00 10.05 C 8.28 g/m*3 10.05 C 0 km/h
2752 06-04-2019 23:00:00 9.3 C 8.04 g/m*3 9.3 C 0 km/h
2753 07-04-2019 00:00:00 8.40833 C 7.77 g/m*3 8.41 C 0 km/h
2754 07-04-2019 01:00:00 7.75833 C 7.54 g/m*3 7.76 C 0 km/h
2755 07-04-2019 02:00:00 7.175 C 7.34 g/m*3 7.18 C 0 km/h
2756 07-04-2019 03:00:00 6.775 C 7.23 g/m*3 6.78 C 0 km/h
2757 07-04-2019 04:00:00 6.09167 C 6.91 g/m*3 6.09 C 0 km/h
2758 07-04-2019 05:00:00 5.68333 C 6.75 g/m*3 5.68 C 0 km/h
2759 07-04-2019 06:00:00 5.43333 C 6.71 g/m*3 5.43 C 0 km/h
2760 07-04-2019 07:00:00 4.68333 C 6.37 g/m*3 4.68 C 0 km/h
2761 07-04-2019 08:00:00 5.23333 C 6.64 g/m*3 5.23 C 0 km/h
2762 07-04-2019 09:00:00 6.14167 C 7.11 g/m*3 6.14 C 0.4 km/h
2763 07-04-2019 10:00:00 8.25 C 8.16 g/m*3 8.25 C 0.4 km/h
2764 07-04-2019 11:00:00 12.725 C 8.8 g/m*3 12.73 C 10.08333 km/h
2765 07-04-2019 12:00:00 15.79167 C 7.95 g/m*3 15.79 C 12.75833 km/h
2766 07-04-2019 13:00:00 17.00833 C 7.47 g/m*3 17.01 C 11.15833 km/h
2767 07-04-2019 14:00:00 18.25833 C 7.16 g/m*3 18.26 C 16.9 km/h
2768 07-04-2019 15:00:00 19.13333 C 6.83 g/m*3 19.13 C 12.225 km/h
2769 07-04-2019 16:00:00 20 C 6.81 g/m*3 20 C 11.68333 km/h
2770 07-04-2019 17:00:00 20.88333 C 7.02 g/m*3 20.88 C 8.31667 km/h
2771 07-04-2019 18:00:00 19.09167 C 7.91 g/m*3 19.09 C 5.775 km/h
2772 07-04-2019 19:00:00 16.95 C 8.97 g/m*3 16.95 C 0.13333 km/h
2773 07-04-2019 20:00:00 15.14167 C 8.86 g/m*3 15.14 C 2.8 km/h
2774 07-04-2019 21:00:00 14.49167 C 8.9 g/m*3 14.49 C 0.8 km/h
2775 07-04-2019 22:00:00 13.95 C 8.9 g/m*3 13.95 C 0 km/h
Sensor: Nr:Datum:Temp:Abs-Feuchte:Windchill:Wind:
Aussen-T/F 2776 07-04-2019 23:00:00 13.44167 C 9.12 g/m*3 13.44 C 0 km/h
2777 08-04-2019 00:00:00 12.95 C 9.18 g/m*3 12.95 C 0.13333 km/h
2778 08-04-2019 01:00:00 12.53333 C 9.12 g/m*3 12.53 C 0.13333 km/h
2779 08-04-2019 02:00:00 11.975 C 8.98 g/m*3 11.98 C 0.26667 km/h
2780 08-04-2019 03:00:00 11.60833 C 8.9 g/m*3 11.61 C 0.8 km/h
2781 08-04-2019 04:00:00 11.23333 C 8.83 g/m*3 11.23 C 0.13333 km/h
2782 08-04-2019 05:00:00 11.06667 C 8.85 g/m*3 11.07 C 0.13333 km/h
2783 08-04-2019 06:00:00 10.66667 C 8.69 g/m*3 10.67 C 0.13333 km/h
2784 08-04-2019 07:00:00 10.025 C 8.5 g/m*3 10.03 C 0 km/h
2785 08-04-2019 08:00:00 10.425 C 8.87 g/m*3 10.43 C 0 km/h
2786 08-04-2019 09:00:00 11.5 C 9.16 g/m*3 11.5 C 1.46667 km/h
2787 08-04-2019 10:00:00 12.45833 C 9.29 g/m*3 12.46 C 1.6 km/h
2788 08-04-2019 11:00:00 13.16667 C 9.47 g/m*3 13.17 C 1.46667 km/h
2789 08-04-2019 12:00:00 13.15 C 9.54 g/m*3 13.15 C 1.2 km/h
2790 08-04-2019 13:00:00 13.48333 C 9.73 g/m*3 13.48 C 1.06667 km/h
2791 08-04-2019 14:00:00 15.05 C 9.93 g/m*3 15.05 C 3.73333 km/h
2792 08-04-2019 15:00:00 16.80833 C 9.88 g/m*3 16.81 C 6.55833 km/h
2793 08-04-2019 16:00:00 17.05833 C 9.84 g/m*3 17.06 C 2.93333 km/h
2794 08-04-2019 17:00:00 15.05 C 10.8 g/m*3 15.05 C 0.53333 km/h
2795 08-04-2019 18:00:00 14.35833 C 10.75 g/m*3 14.36 C 0.93333 km/h
2796 08-04-2019 19:00:00 13.84167 C 10.29 g/m*3 13.84 C 1.6 km/h
2797 08-04-2019 20:00:00 12.875 C 10.06 g/m*3 12.88 C 0.4 km/h
2798 08-04-2019 21:00:00 11.425 C 9.52 g/m*3 11.43 C 3.86667 km/h
2799 08-04-2019 22:00:00 11.1 C 9.53 g/m*3 11.1 C 1.06667 km/h
2800 08-04-2019 23:00:00 10.93333 C 9.45 g/m*3 10.93 C 0.53333 km/h
Sensor: Nr:Datum:Temp:Abs-Feuchte:Windchill:Wind:
Aussen-T/F 2801 09-04-2019 00:00:00 10.20833 C 9.04 g/m*3 10.21 C 0.93333 km/h
2802 09-04-2019 01:00:00 10.16667 C 9.08 g/m*3 10.17 C 0.26667 km/h
2803 09-04-2019 02:00:00 10.44167 C 9.28 g/m*3 10.44 C 0 km/h
2804 09-04-2019 03:00:00 10.15833 C 9.11 g/m*3 10.16 C 0 km/h
2805 09-04-2019 04:00:00 9.73333 C 8.87 g/m*3 9.73 C 0 km/h
2806 09-04-2019 05:00:00 9.025 C 8.48 g/m*3 9.03 C 0 km/h
2807 09-04-2019 06:00:00 8.94167 C 8.47 g/m*3 8.94 C 0 km/h
2808 09-04-2019 07:00:00 9.30833 C 8.72 g/m*3 9.31 C 0 km/h
2809 09-04-2019 08:00:00 9.875 C 9.04 g/m*3 9.88 C 0 km/h
2810 09-04-2019 09:00:00 10.50833 C 9.41 g/m*3 10.51 C 0.53333 km/h
2811 09-04-2019 10:00:00 11.09167 C 9.65 g/m*3 11.09 C 1.2 km/h
2812 09-04-2019 11:00:00 11.90833 C 10.03 g/m*3 11.91 C 2.13333 km/h
2813 09-04-2019 12:00:00 12.83333 C 10.38 g/m*3 12.83 C 1.2 km/h
2814 09-04-2019 13:00:00 14.475 C 10.69 g/m*3 14.48 C 3.2 km/h
2815 09-04-2019 14:00:00 16.075 C 10.8 g/m*3 16.08 C 6.83333 km/h
2816 09-04-2019 15:00:00 16.325 C 10.83 g/m*3 16.33 C 5.49167 km/h
2817 09-04-2019 16:00:00 16.08333 C 10.79 g/m*3 16.08 C 5.475 km/h
2818 09-04-2019 17:00:00 15.85 C 10.69 g/m*3 15.85 C 0.66667 km/h
2819 09-04-2019 18:00:00 15.4 C 10.9 g/m*3 15.4 C 0.13333 km/h
2820 09-04-2019 19:00:00 14.58333 C 10.17 g/m*3 14.58 C 2.80833 km/h
2821 09-04-2019 20:00:00 13.625 C 9.69 g/m*3 13.63 C 0.93333 km/h
2822 09-04-2019 21:00:00 12.48333 C 9.24 g/m*3 12.48 C 0.4 km/h
2823 09-04-2019 22:00:00 12.36667 C 8.16 g/m*3 12.37 C 4.53333 km/h
2824 09-04-2019 23:00:00 12.16667 C 7.6 g/m*3 12.17 C 7.38333 km/h
2825 10-04-2019 00:00:00 10.925 C 7.85 g/m*3 10.93 C 2.94167 km/h
Sensor: Nr:Datum:Temp:Abs-Feuchte:Windchill:Wind:
Aussen-T/F 2826 10-04-2019 01:00:00 10.36667 C 7.52 g/m*3 10.37 C 4.28333 km/h
2827 10-04-2019 02:00:00 9.91667 C 7.56 g/m*3 9.92 C 1.6 km/h
2828 10-04-2019 03:00:00 9.775 C 7.29 g/m*3 9.78 C 3.35 km/h
2829 10-04-2019 04:00:00 8.79167 C 7.06 g/m*3 8.79 C 0.53333 km/h
2830 10-04-2019 05:00:00 7.34167 C 6.71 g/m*3 7.34 C 0.53333 km/h
2831 10-04-2019 06:00:00 6.50833 C 6.47 g/m*3 6.51 C 0.66667 km/h
2832 10-04-2019 07:00:00 6.6 C 6.37 g/m*3 6.6 C 0.26667 km/h
2833 10-04-2019 08:00:00 7.675 C 6.24 g/m*3 6.99 C 5.36667 km/h
2834 10-04-2019 09:00:00 8.50833 C 6.14 g/m*3 6.74 C 10.625 km/h
2835 10-04-2019 10:00:00 9.575 C 6.31 g/m*3 7.82 C 11.83333 km/h
2836 10-04-2019 11:00:00 11.18333 C 6.41 g/m*3 11.18 C 12.9 km/h
2837 10-04-2019 12:00:00 12.16667 C 6.12 g/m*3 12.17 C 11.01667 km/h
2838 10-04-2019 13:00:00 13.425 C 6.32 g/m*3 13.43 C 9.94167 km/h
2839 10-04-2019 14:00:00 14.24167 C 6.08 g/m*3 14.24 C 12.76667 km/h
2840 10-04-2019 15:00:00 15.1 C 6.04 g/m*3 15.1 C 13.43333 km/h
2841 10-04-2019 16:00:00 16.075 C 6.01 g/m*3 16.08 C 13.825 km/h
2842 10-04-2019 17:00:00 16.6 C 5.79 g/m*3 16.6 C 12.35833 km/h
2843 10-04-2019 18:00:00 15.94167 C 5.17 g/m*3 15.94 C 14.5 km/h
2844 10-04-2019 19:00:00 14.4 C 5.28 g/m*3 14.4 C 14.9 km/h
2845 10-04-2019 20:00:00 11.34167 C 5.8 g/m*3 11.34 C 3.20833 km/h
2846 10-04-2019 21:00:00 8.9 C 5.88 g/m*3 8.9 C 2.13333 km/h
2847 10-04-2019 22:00:00 7.38333 C 5.81 g/m*3 7.38 C 0.4 km/h
2848 10-04-2019 23:00:00 6.46667 C 5.71 g/m*3 6.47 C 0.66667 km/h
2849 11-04-2019 00:00:00 5.75 C 5.52 g/m*3 5.75 C 1.34167 km/h
2850 11-04-2019 01:00:00 5.03333 C 5.31 g/m*3 5.03 C 0.53333 km/h
Sensor: Nr:Datum:Temp:Abs-Feuchte:Windchill:Wind:
Aussen-T/F 2851 11-04-2019 02:00:00 4.4 C 5.15 g/m*3 4.4 C 1.2 km/h
2852 11-04-2019 03:00:00 3.85833 C 4.98 g/m*3 3.86 C 0 km/h
2853 11-04-2019 04:00:00 2.9 C 4.76 g/m*3 2.9 C 0 km/h
2854 11-04-2019 05:00:00 2.30833 C 4.64 g/m*3 2.31 C 0.26667 km/h
2855 11-04-2019 06:00:00 1.71667 C 4.54 g/m*3 1.72 C 0 km/h
2856 11-04-2019 07:00:00 1.21667 C 4.49 g/m*3 1.22 C 0 km/h
2857 11-04-2019 08:00:00 1.8 C 4.69 g/m*3 1.8 C 0 km/h
2858 11-04-2019 09:00:00 3.9 C 4.89 g/m*3 3.9 C 4.69167 km/h
2859 11-04-2019 10:00:00 6.76667 C 4.43 g/m*3 3.92 C 15.03333 km/h
2860 11-04-2019 11:00:00 8.1 C 4.14 g/m*3 5.23 C 17.70833 km/h
2861 11-04-2019 12:00:00 8.91667 C 4.03 g/m*3 6.41 C 16.36667 km/h
2862 11-04-2019 13:00:00 9.875 C 4.05 g/m*3 7.86 C 14.23333 km/h
2863 11-04-2019 14:00:00 11.01667 C 4.09 g/m*3 11.02 C 16.5 km/h
2864 11-04-2019 15:00:00 12 C 4.13 g/m*3 12 C 17.175 km/h
2865 11-04-2019 16:00:00 12.76667 C 4.04 g/m*3 12.77 C 16.36667 km/h
2866 11-04-2019 17:00:00 13.31667 C 4.02 g/m*3 13.32 C 14.76667 km/h
2867 11-04-2019 18:00:00 13.025 C 3.99 g/m*3 13.03 C 11.41667 km/h
2868 11-04-2019 19:00:00 11.95833 C 4.06 g/m*3 11.96 C 7.65833 km/h
2869 11-04-2019 20:00:00 8.95 C 4.36 g/m*3 8.95 C 2.4 km/h
2870 11-04-2019 21:00:00 6.225 C 4.52 g/m*3 6.23 C 2.26667 km/h
2871 11-04-2019 22:00:00 5.35 C 4.45 g/m*3 5.35 C 2.80833 km/h
2872 11-04-2019 23:00:00 5.48333 C 4.26 g/m*3 5.48 C 3.75 km/h
2873 12-04-2019 00:00:00 4.46667 C 4.12 g/m*3 3.34 C 5.35 km/h
2874 12-04-2019 01:00:00 3.54167 C 4.03 g/m*3 3.54 C 3.34167 km/h
2875 12-04-2019 02:00:00 2.15833 C 4.03 g/m*3 2.16 C 2.53333 km/h
Sensor: Nr:Datum:Temp:Abs-Feuchte:Windchill:Wind:
Aussen-T/F 2876 12-04-2019 03:00:00 1.60833 C 3.98 g/m*3 1.61 C 3.06667 km/h
2877 12-04-2019 04:00:00 2.15833 C 4.23 g/m*3 2.16 C 0.66667 km/h
2878 12-04-2019 05:00:00 2.70833 C 4.27 g/m*3 2.71 C 0 km/h
2879 12-04-2019 06:00:00 2.98333 C 4.21 g/m*3 2.98 C 0 km/h
2880 12-04-2019 07:00:00 3.475 C 4.1 g/m*3 3.48 C 3.075 km/h
2881 12-04-2019 08:00:00 4.63333 C 3.85 g/m*3 1.97 C 11.16667 km/h
2882 12-04-2019 09:00:00 5.03333 C 3.82 g/m*3 2.3 C 11.95833 km/h
2883 12-04-2019 10:00:00 5.49167 C 3.74 g/m*3 1.91 C 18.23333 km/h
2884 12-04-2019 11:00:00 5.98333 C 3.76 g/m*3 2.37 C 19.43333 km/h
2885 12-04-2019 12:00:00 6.78333 C 3.82 g/m*3 4.08 C 14.09167 km/h
2886 12-04-2019 13:00:00 7.15833 C 3.74 g/m*3 4.9 C 11.825 km/h
2887 12-04-2019 14:00:00 7.26667 C 3.69 g/m*3 4.83 C 13.03333 km/h
2888 12-04-2019 15:00:00 7.56667 C 3.73 g/m*3 5.26 C 12.63333 km/h
2889 12-04-2019 16:00:00 7.3 C 3.74 g/m*3 5.16 C 11.3 km/h
2890 12-04-2019 17:00:00 7.1 C 3.64 g/m*3 5.46 C 8.61667 km/h
2891 12-04-2019 18:00:00 6.83333 C 3.76 g/m*3 4.53 C 11.7 km/h
2892 12-04-2019 19:00:00 6.525 C 3.91 g/m*3 4.41 C 10.35833 km/h
2893 12-04-2019 20:00:00 6.06667 C 4 g/m*3 4.3 C 8.34167 km/h
2894 12-04-2019 21:00:00 5.55 C 4.25 g/m*3 4.34 C 6.04167 km/h
2895 12-04-2019 22:00:00 4.39167 C 4.34 g/m*3 4.39 C 0.26667 km/h
2896 12-04-2019 23:00:00 3.58333 C 4.25 g/m*3 3.58 C 0.13333 km/h
2897 13-04-2019 00:00:00 2.95 C 4.3 g/m*3 2.95 C 0.66667 km/h
2898 13-04-2019 01:00:00 2.875 C 4.31 g/m*3 2.88 C 2.13333 km/h
2899 13-04-2019 02:00:00 2.61667 C 4.39 g/m*3 2.62 C 1.6 km/h
2900 13-04-2019 03:00:00 2.30833 C 4.42 g/m*3 2.31 C 0.26667 km/h
Sensor: Nr:Datum:Temp:Abs-Feuchte:Windchill:Wind:
Aussen-T/F 2901 13-04-2019 04:00:00 2.6 C 4.48 g/m*3 2.6 C 2.275 km/h
2902 13-04-2019 05:00:00 2.54167 C 4.5 g/m*3 2.54 C 0.4 km/h
2903 13-04-2019 06:00:00 2.28333 C 4.56 g/m*3 2.28 C 0.93333 km/h
2904 13-04-2019 07:00:00 2.5 C 4.6 g/m*3 2.5 C 2 km/h
2905 13-04-2019 08:00:00 3.125 C 4.63 g/m*3 1.24 C 6.975 km/h
2906 13-04-2019 09:00:00 3.60833 C 4.54 g/m*3 1.68 C 7.375 km/h
2907 13-04-2019 10:00:00 4.75833 C 4.42 g/m*3 2.83 C 8.075 km/h
2908 13-04-2019 11:00:00 5.36667 C 4.25 g/m*3 3.66 C 7.65 km/h
2909 13-04-2019 12:00:00 5.96667 C 4.15 g/m*3 3.58 C 11.15 km/h
2910 13-04-2019 13:00:00 5.75833 C 4.51 g/m*3 3.55 C 10.075 km/h
2911 13-04-2019 14:00:00 4.69167 C 5.15 g/m*3 2.3 C 9.93333 km/h
2912 13-04-2019 15:00:00 5.61667 C 5.3 g/m*3 3.85 C 8.05 km/h
2913 13-04-2019 16:00:00 6.21667 C 5.06 g/m*3 3.51 C 13.29167 km/h
2914 13-04-2019 17:00:00 4.55 C 5.59 g/m*3 3.33 C 5.63333 km/h
2915 13-04-2019 18:00:00 6.29167 C 5.7 g/m*3 6.29 C 4.28333 km/h
2916 13-04-2019 19:00:00 5.59167 C 5.48 g/m*3 5.59 C 1.73333 km/h
2917 13-04-2019 20:00:00 4.63333 C 5.35 g/m*3 4.63 C 2.54167 km/h
2918 13-04-2019 21:00:00 3.075 C 5 g/m*3 3.08 C 0 km/h
2919 13-04-2019 22:00:00 1.56667 C 4.72 g/m*3 1.57 C 0 km/h
2920 13-04-2019 23:00:00 1.04167 C 4.68 g/m*3 1.04 C 0 km/h
2921 14-04-2019 00:00:00 0.475 C 4.56 g/m*3 0.48 C 0 km/h
2922 14-04-2019 01:00:00 0.45 C 4.63 g/m*3 0.45 C 0 km/h
2923 14-04-2019 02:00:00 1.23333 C 4.92 g/m*3 1.23 C 0.13333 km/h
2924 14-04-2019 03:00:00 1.575 C 5.02 g/m*3 1.58 C 0.53333 km/h
2925 14-04-2019 04:00:00 1.63333 C 5.04 g/m*3 1.63 C 0.26667 km/h
Sensor: Nr:Datum:Temp:Abs-Feuchte:Windchill:Wind:
Aussen-T/F 2926 14-04-2019 05:00:00 1.56667 C 5.05 g/m*3 1.57 C 0.66667 km/h
2927 14-04-2019 06:00:00 1.25833 C 4.97 g/m*3 1.26 C 0 km/h
2928 14-04-2019 07:00:00 1.225 C 5.01 g/m*3 1.23 C 0 km/h
2929 14-04-2019 08:00:00 1.5 C 5.11 g/m*3 1.5 C 0 km/h
2930 14-04-2019 09:00:00 2.66667 C 5.57 g/m*3 2.67 C 0.13333 km/h
2931 14-04-2019 10:00:00 4.15 C 6.06 g/m*3 4.15 C 4.69167 km/h
2932 14-04-2019 11:00:00 6.00833 C 6.14 g/m*3 4.71 C 6.575 km/h
2933 14-04-2019 12:00:00 7.71667 C 5.62 g/m*3 5.62 C 11.55833 km/h
2934 14-04-2019 13:00:00 8.99167 C 5.14 g/m*3 7.21 C 11.275 km/h
2935 14-04-2019 14:00:00 10.43333 C 5.05 g/m*3 8.63 C 13.56667 km/h
2936 14-04-2019 15:00:00 11.46667 C 4.99 g/m*3 11.47 C 12.89167 km/h
2937 14-04-2019 16:00:00 12.08333 C 4.9 g/m*3 12.08 C 12.63333 km/h
2938 14-04-2019 17:00:00 12.50833 C 4.81 g/m*3 12.51 C 13.69167 km/h
2939 14-04-2019 18:00:00 12.06667 C 4.87 g/m*3 12.07 C 12.625 km/h
2940 14-04-2019 19:00:00 10.99167 C 5.18 g/m*3 9.87 C 9.66667 km/h
2941 14-04-2019 20:00:00 8.25 C 5.41 g/m*3 8.25 C 2.40833 km/h
2942 14-04-2019 21:00:00 5.925 C 5.5 g/m*3 5.93 C 2.14167 km/h
2943 14-04-2019 22:00:00 4.61667 C 5.42 g/m*3 4.62 C 1.86667 km/h
2944 14-04-2019 23:00:00 4.06667 C 5.39 g/m*3 4.07 C 1.6 km/h
2945 15-04-2019 00:00:00 4.11667 C 5.51 g/m*3 4.12 C 0.93333 km/h
2946 15-04-2019 01:00:00 5.075 C 5.83 g/m*3 5.08 C 0.53333 km/h
2947 15-04-2019 02:00:00 5.64167 C 5.91 g/m*3 5.64 C 0.26667 km/h
2948 15-04-2019 03:00:00 4.81667 C 5.71 g/m*3 4.82 C 0.66667 km/h
2949 15-04-2019 04:00:00 4.78333 C 5.81 g/m*3 4.78 C 0 km/h
2950 15-04-2019 05:00:00 4.26667 C 5.68 g/m*3 4.27 C 0.4 km/h
Sensor: Nr:Datum:Temp:Abs-Feuchte:Windchill:Wind:
Aussen-T/F 2951 15-04-2019 06:00:00 4.48333 C 5.87 g/m*3 4.48 C 0 km/h
2952 15-04-2019 07:00:00 5.1 C 6.13 g/m*3 5.1 C 0 km/h
2953 15-04-2019 08:00:00 5.98333 C 6.38 g/m*3 5.98 C 2.14167 km/h
2954 15-04-2019 09:00:00 7.175 C 6.61 g/m*3 5.98 C 6.84167 km/h
2955 15-04-2019 10:00:00 8.34167 C 6.78 g/m*3 6.68 C 9.83333 km/h
2956 15-04-2019 11:00:00 10.15833 C 7.1 g/m*3 9.48 C 6.70833 km/h
2957 15-04-2019 12:00:00 12.475 C 7.23 g/m*3 12.48 C 13.025 km/h
2958 15-04-2019 13:00:00 14.29167 C 7.15 g/m*3 14.29 C 15.16667 km/h
2959 15-04-2019 14:00:00 16.025 C 7.25 g/m*3 16.02 C 14.23333 km/h
2960 15-04-2019 15:00:00 17.53333 C 6.95 g/m*3 17.53 C 16.63333 km/h
2961 15-04-2019 16:00:00 18.31667 C 7 g/m*3 18.32 C 14.75833 km/h
2962 15-04-2019 17:00:00 18.95833 C 6.68 g/m*3 18.96 C 11.7 km/h
2963 15-04-2019 18:00:00 19.13333 C 6.32 g/m*3 19.13 C 11.95833 km/h
2964 15-04-2019 19:00:00 18.19167 C 6.42 g/m*3 18.19 C 5.89167 km/h
2965 15-04-2019 20:00:00 14.2 C 6.99 g/m*3 14.2 C 3.6 km/h
2966 15-04-2019 21:00:00 11.575 C 6.81 g/m*3 11.58 C 3.6 km/h
2967 15-04-2019 22:00:00 10.24167 C 6.5 g/m*3 10.24 C 0.53333 km/h
2968 15-04-2019 23:00:00 9.24167 C 6.19 g/m*3 9.24 C 3.6 km/h
2969 16-04-2019 00:00:00 8.16667 C 5.98 g/m*3 8.17 C 4.66667 km/h
2970 16-04-2019 01:00:00 7.25833 C 5.82 g/m*3 7.26 C 2.93333 km/h
2971 16-04-2019 02:00:00 6.48333 C 5.69 g/m*3 6.48 C 2.53333 km/h
2972 16-04-2019 03:00:00 6.06667 C 5.55 g/m*3 6.07 C 2 km/h
2973 16-04-2019 04:00:00 5.83333 C 5.4 g/m*3 5.83 C 2.66667 km/h
2974 16-04-2019 05:00:00 5.50833 C 5.35 g/m*3 5.51 C 2.93333 km/h
2975 16-04-2019 06:00:00 4.99167 C 5.27 g/m*3 4.99 C 1.46667 km/h
Sensor: Nr:Datum:Temp:Abs-Feuchte:Windchill:Wind:
Aussen-T/F 2976 16-04-2019 07:00:00 3.91667 C 5.23 g/m*3 3.92 C 0 km/h
2977 16-04-2019 08:00:00 4.51667 C 5.48 g/m*3 4.52 C 0.4 km/h
2978 16-04-2019 09:00:00 6.2 C 5.94 g/m*3 6.2 C 0.66667 km/h
2979 16-04-2019 10:00:00 10.39167 C 6.13 g/m*3 10.39 C 3.875 km/h
2980 16-04-2019 11:00:00 13.69167 C 6.06 g/m*3 13.69 C 6.85833 km/h
2981 16-04-2019 12:00:00 15.59167 C 6.26 g/m*3 15.59 C 9.28333 km/h
2982 16-04-2019 13:00:00 17.025 C 6.68 g/m*3 17.02 C 9.41667 km/h
2983 16-04-2019 14:00:00 18.3 C 7.24 g/m*3 18.3 C 9.14167 km/h
2984 16-04-2019 15:00:00 19.025 C 7.4 g/m*3 19.02 C 8.45833 km/h
2985 16-04-2019 16:00:00 18.85833 C 7.5 g/m*3 18.86 C 7.24167 km/h
2986 16-04-2019 17:00:00 18.09167 C 8.11 g/m*3 18.09 C 16.36667 km/h
2987 16-04-2019 18:00:00 15.5 C 8.21 g/m*3 15.5 C 12.1 km/h
2988 16-04-2019 19:00:00 14.63333 C 8.39 g/m*3 14.63 C 2.55 km/h
2989 16-04-2019 20:00:00 13.25833 C 8.37 g/m*3 13.26 C 0.13333 km/h
2990 16-04-2019 21:00:00 12.29167 C 8.25 g/m*3 12.29 C 0.8 km/h
2991 16-04-2019 22:00:00 11.825 C 8.35 g/m*3 11.83 C 0.66667 km/h
2992 16-04-2019 23:00:00 11.475 C 8.29 g/m*3 11.48 C 0 km/h
2993 17-04-2019 00:00:00 11.01667 C 8.31 g/m*3 11.02 C 0 km/h
2994 17-04-2019 01:00:00 10.725 C 8.68 g/m*3 10.73 C 1.86667 km/h
2995 17-04-2019 02:00:00 10.25833 C 8.74 g/m*3 10.26 C 0.26667 km/h
2996 17-04-2019 03:00:00 9.91667 C 8.72 g/m*3 9.92 C 0 km/h
2997 17-04-2019 04:00:00 9.73333 C 8.71 g/m*3 9.73 C 0 km/h
2998 17-04-2019 05:00:00 9.60833 C 8.71 g/m*3 9.61 C 0 km/h
2999 17-04-2019 06:00:00 9.66667 C 8.77 g/m*3 9.67 C 0 km/h
3000 17-04-2019 07:00:00 10 C 9.02 g/m*3 10 C 0.4 km/h
Sensor: Nr:Datum:Temp:Abs-Feuchte:Windchill:Wind:
Aussen-T/F 3001 17-04-2019 08:00:00 10.64167 C 9.39 g/m*3 10.64 C 2.275 km/h
3002 17-04-2019 09:00:00 11.36667 C 9.81 g/m*3 11.37 C 3.2 km/h
3003 17-04-2019 10:00:00 12.30833 C 10.16 g/m*3 12.31 C 2.675 km/h
3004 17-04-2019 11:00:00 13.04167 C 10.32 g/m*3 13.04 C 4.80833 km/h
3005 17-04-2019 12:00:00 13.675 C 10.3 g/m*3 13.68 C 5.23333 km/h
3006 17-04-2019 13:00:00 14.88333 C 10.47 g/m*3 14.88 C 6.98333 km/h
3007 17-04-2019 14:00:00 16.18333 C 10.25 g/m*3 16.18 C 7.24167 km/h
3008 17-04-2019 15:00:00 17.19167 C 10.21 g/m*3 17.19 C 7.9 km/h
3009 17-04-2019 16:00:00 18.00833 C 9.67 g/m*3 18.01 C 13.01667 km/h
3010 17-04-2019 17:00:00 18.225 C 9.74 g/m*3 18.23 C 7.91667 km/h
3011 17-04-2019 18:00:00 18.16667 C 9.51 g/m*3 18.17 C 5.24167 km/h
3012 17-04-2019 19:00:00 16.38333 C 10.26 g/m*3 16.38 C 0 km/h
3013 17-04-2019 20:00:00 13.575 C 9.15 g/m*3 13.58 C 2.13333 km/h
3014 17-04-2019 21:00:00 11.65 C 8.36 g/m*3 11.65 C 3.2 km/h
3015 17-04-2019 22:00:00 10.36667 C 8 g/m*3 10.37 C 0 km/h
3016 17-04-2019 23:00:00 9.375 C 7.68 g/m*3 9.38 C 0 km/h
3017 18-04-2019 00:00:00 8.70833 C 7.58 g/m*3 8.71 C 0 km/h
3018 18-04-2019 01:00:00 8.75833 C 7.65 g/m*3 8.76 C 0 km/h
3019 18-04-2019 02:00:00 8.55 C 7.51 g/m*3 8.55 C 0 km/h
3020 18-04-2019 03:00:00 8.01667 C 7.15 g/m*3 8.02 C 0 km/h
3021 18-04-2019 04:00:00 7.16667 C 6.89 g/m*3 7.17 C 0 km/h
3022 18-04-2019 05:00:00 6.875 C 6.9 g/m*3 6.88 C 0 km/h
3023 18-04-2019 06:00:00 6.76667 C 6.9 g/m*3 6.77 C 0 km/h
3024 18-04-2019 07:00:00 7.44167 C 7.08 g/m*3 7.44 C 0 km/h
3025 18-04-2019 08:00:00 8.475 C 7.49 g/m*3 8.48 C 0 km/h
Sensor: Nr:Datum:Temp:Abs-Feuchte:Windchill:Wind:
Aussen-T/F 3026 18-04-2019 09:00:00 9.88333 C 7.78 g/m*3 9.88 C 2 km/h
3027 18-04-2019 10:00:00 12.95 C 8.06 g/m*3 12.95 C 7.38333 km/h
3028 18-04-2019 11:00:00 16.38333 C 7.92 g/m*3 16.38 C 10.60833 km/h
3029 18-04-2019 12:00:00 17.65833 C 7.83 g/m*3 17.66 C 12.20833 km/h
3030 18-04-2019 13:00:00 18.76667 C 7.61 g/m*3 18.77 C 12.76667 km/h
3031 18-04-2019 14:00:00 19.91667 C 7.29 g/m*3 19.92 C 15.03333 km/h
3032 18-04-2019 15:00:00 21.35 C 7.23 g/m*3 21.35 C 14.63333 km/h
3033 18-04-2019 16:00:00 22.525 C 6.83 g/m*3 22.53 C 13.7 km/h
3034 18-04-2019 17:00:00 23.375 C 6.88 g/m*3 23.38 C 12.35833 km/h
3035 18-04-2019 18:00:00 23.40833 C 6.89 g/m*3 23.41 C 10.48333 km/h
3036 18-04-2019 19:00:00 22.28333 C 7.18 g/m*3 22.28 C 6.04167 km/h
3037 18-04-2019 20:00:00 18.05833 C 8.09 g/m*3 18.06 C 4 km/h
3038 18-04-2019 21:00:00 15.33333 C 7.77 g/m*3 15.33 C 4.8 km/h
3039 18-04-2019 22:00:00 14.23333 C 7.54 g/m*3 14.23 C 4.8 km/h
3040 18-04-2019 23:00:00 13.08333 C 7.44 g/m*3 13.08 C 2.4 km/h
3041 19-04-2019 00:00:00 11.55833 C 7.45 g/m*3 11.56 C 0 km/h
3042 19-04-2019 01:00:00 10.70833 C 7.37 g/m*3 10.71 C 0.26667 km/h
3043 19-04-2019 02:00:00 11.01667 C 7.17 g/m*3 11.02 C 3.33333 km/h
3044 19-04-2019 03:00:00 10.29167 C 7.05 g/m*3 10.29 C 1.86667 km/h
3045 19-04-2019 04:00:00 9.61667 C 6.99 g/m*3 9.62 C 0.13333 km/h
3046 19-04-2019 05:00:00 8.24167 C 6.84 g/m*3 8.24 C 0 km/h
3047 19-04-2019 06:00:00 7.04167 C 6.51 g/m*3 7.04 C 0 km/h
3048 19-04-2019 07:00:00 6.65 C 6.58 g/m*3 6.65 C 0 km/h
3049 19-04-2019 08:00:00 6.85 C 6.8 g/m*3 6.85 C 0 km/h
3050 19-04-2019 09:00:00 8.975 C 7.61 g/m*3 8.98 C 0.66667 km/h
Sensor: Nr:Datum:Temp:Abs-Feuchte:Windchill:Wind:
Aussen-T/F 3051 19-04-2019 10:00:00 13.525 C 7.82 g/m*3 13.53 C 7.66667 km/h
3052 19-04-2019 11:00:00 17.95833 C 7.47 g/m*3 17.96 C 14.1 km/h
3053 19-04-2019 12:00:00 19.9 C 7.13 g/m*3 19.9 C 13.7 km/h
3054 19-04-2019 13:00:00 21.36667 C 6.41 g/m*3 21.37 C 12.35 km/h
3055 19-04-2019 14:00:00 22.44167 C 6.24 g/m*3 22.44 C 15.43333 km/h
3056 19-04-2019 15:00:00 23.675 C 5.75 g/m*3 23.68 C 14.63333 km/h
3057 19-04-2019 16:00:00 24.89167 C 5.51 g/m*3 24.89 C 13.825 km/h
3058 19-04-2019 17:00:00 25.28333 C 5.26 g/m*3 25.28 C 12.76667 km/h
3059 19-04-2019 18:00:00 25.50833 C 5.29 g/m*3 25.51 C 9.83333 km/h
3060 19-04-2019 19:00:00 24.25 C 5.77 g/m*3 24.25 C 4.95833 km/h
3061 19-04-2019 20:00:00 19.21667 C 6.74 g/m*3 19.22 C 4.66667 km/h
3062 19-04-2019 21:00:00 15.875 C 6.68 g/m*3 15.88 C 2.93333 km/h
3063 19-04-2019 22:00:00 13.33333 C 6.74 g/m*3 13.33 C 0.8 km/h
3064 19-04-2019 23:00:00 11.73333 C 6.73 g/m*3 11.73 C 1.2 km/h
3065 20-04-2019 00:00:00 10.40833 C 6.81 g/m*3 10.41 C 0.4 km/h
3066 20-04-2019 01:00:00 9.45833 C 6.91 g/m*3 9.46 C 0 km/h
3067 20-04-2019 02:00:00 8.55833 C 6.93 g/m*3 8.56 C 0 km/h
3068 20-04-2019 03:00:00 7.64167 C 6.79 g/m*3 7.64 C 0 km/h
3069 20-04-2019 04:00:00 6.85 C 6.68 g/m*3 6.85 C 0 km/h
3070 20-04-2019 05:00:00 6.23333 C 6.58 g/m*3 6.23 C 0 km/h
3071 20-04-2019 06:00:00 5.775 C 6.48 g/m*3 5.78 C 0 km/h
3072 20-04-2019 07:00:00 5.85833 C 6.61 g/m*3 5.86 C 0.13333 km/h
3073 20-04-2019 08:00:00 6.48333 C 6.92 g/m*3 6.48 C 0 km/h
3074 20-04-2019 09:00:00 8.16667 C 7.71 g/m*3 8.17 C 0 km/h
3075 20-04-2019 10:00:00 11.68333 C 8.74 g/m*3 11.68 C 1.33333 km/h
Sensor: Nr:Datum:Temp:Abs-Feuchte:Windchill:Wind:
Aussen-T/F 3076 20-04-2019 11:00:00 16.725 C 9.1 g/m*3 16.73 C 3.46667 km/h
3077 20-04-2019 12:00:00 20.225 C 8.22 g/m*3 20.23 C 6.7 km/h
3078 20-04-2019 13:00:00 22.05 C 7.07 g/m*3 22.05 C 10.61667 km/h
3079 20-04-2019 14:00:00 23.275 C 6.04 g/m*3 23.28 C 11.95 km/h
3080 20-04-2019 15:00:00 24.25833 C 6.13 g/m*3 24.26 C 11.96667 km/h
3081 20-04-2019 16:00:00 25.21667 C 6.21 g/m*3 25.22 C 12.36667 km/h
3082 20-04-2019 17:00:00 25.30833 C 5.89 g/m*3 25.31 C 14.1 km/h
3083 20-04-2019 18:00:00 25.39167 C 5.55 g/m*3 25.39 C 10.89167 km/h
3084 20-04-2019 19:00:00 24.575 C 6.03 g/m*3 24.58 C 5.5 km/h
3085 20-04-2019 20:00:00 19.875 C 7.41 g/m*3 19.88 C 3.6 km/h
3086 20-04-2019 21:00:00 16.175 C 7.52 g/m*3 16.18 C 0.66667 km/h
3087 20-04-2019 22:00:00 13.81667 C 7.54 g/m*3 13.82 C 0 km/h
3088 20-04-2019 23:00:00 12.90833 C 7.4 g/m*3 12.91 C 0 km/h
3089 21-04-2019 00:00:00 12.84167 C 7.27 g/m*3 12.84 C 0 km/h
3090 21-04-2019 01:00:00 12.48333 C 7.18 g/m*3 12.48 C 0 km/h
3091 21-04-2019 02:00:00 11.36667 C 7.19 g/m*3 11.37 C 0 km/h
3092 21-04-2019 03:00:00 10.81667 C 7.23 g/m*3 10.82 C 0 km/h
3093 21-04-2019 04:00:00 9.23333 C 7.01 g/m*3 9.23 C 0 km/h
3094 21-04-2019 05:00:00 7.375 C 6.74 g/m*3 7.38 C 0 km/h
3095 21-04-2019 06:00:00 6.45 C 6.56 g/m*3 6.45 C 0 km/h
3096 21-04-2019 07:00:00 6.68333 C 6.77 g/m*3 6.68 C 0 km/h
3097 21-04-2019 08:00:00 7.16667 C 7.04 g/m*3 7.17 C 0 km/h
3098 21-04-2019 09:00:00 8.675 C 7.73 g/m*3 8.68 C 0 km/h
3099 21-04-2019 10:00:00 11.98333 C 8.67 g/m*3 11.98 C 0 km/h
3100 21-04-2019 11:00:00 16.48333 C 8.88 g/m*3 16.48 C 1.2 km/h
Sensor: Nr:Datum:Temp:Abs-Feuchte:Windchill:Wind:
Aussen-T/F 3101 21-04-2019 12:00:00 19.65833 C 7.65 g/m*3 19.66 C 5.08333 km/h
3102 21-04-2019 13:00:00 21.525 C 6.63 g/m*3 21.53 C 7.65833 km/h
3103 21-04-2019 14:00:00 22.98333 C 6.16 g/m*3 22.98 C 8.2 km/h
3104 21-04-2019 15:00:00 24.46667 C 6.78 g/m*3 24.47 C 9.81667 km/h
3105 21-04-2019 16:00:00 25.73333 C 6.32 g/m*3 25.73 C 11.41667 km/h
3106 21-04-2019 17:00:00 25.94167 C 5.95 g/m*3 25.94 C 11.825 km/h
3107 21-04-2019 18:00:00 26.13333 C 5.97 g/m*3 26.13 C 7.50833 km/h
3108 21-04-2019 19:00:00 24.58333 C 6.37 g/m*3 24.58 C 4.95 km/h
3109 21-04-2019 20:00:00 19.69167 C 6.89 g/m*3 19.69 C 3.6 km/h
3110 21-04-2019 21:00:00 16.725 C 7.21 g/m*3 16.73 C 2.26667 km/h
3111 21-04-2019 22:00:00 13.85833 C 7.54 g/m*3 13.86 C 0 km/h
3112 21-04-2019 23:00:00 12.21667 C 7.25 g/m*3 12.22 C 0 km/h
3113 22-04-2019 00:00:00 10.54167 C 7.03 g/m*3 10.54 C 0 km/h
3114 22-04-2019 01:00:00 9.24167 C 6.98 g/m*3 9.24 C 0 km/h
3115 22-04-2019 02:00:00 8.2 C 6.91 g/m*3 8.2 C 0.13333 km/h
3116 22-04-2019 03:00:00 7.56667 C 6.83 g/m*3 7.57 C 0.13333 km/h
3117 22-04-2019 04:00:00 6.64167 C 6.65 g/m*3 6.64 C 0 km/h
3118 22-04-2019 05:00:00 5.89167 C 6.51 g/m*3 5.89 C 0 km/h
3119 22-04-2019 06:00:00 5.475 C 6.43 g/m*3 5.48 C 0 km/h
3120 22-04-2019 07:00:00 5.74167 C 6.63 g/m*3 5.74 C 0 km/h
3121 22-04-2019 08:00:00 6.54167 C 6.99 g/m*3 6.54 C 0 km/h
3122 22-04-2019 09:00:00 8.40833 C 7.81 g/m*3 8.41 C 0.8 km/h
3123 22-04-2019 10:00:00 12.55 C 8.39 g/m*3 12.55 C 3.075 km/h
3124 22-04-2019 11:00:00 17.96667 C 7.52 g/m*3 17.97 C 11.825 km/h
3125 22-04-2019 12:00:00 20.89167 C 6.96 g/m*3 20.89 C 12.76667 km/h
Sensor: Nr:Datum:Temp:Abs-Feuchte:Windchill:Wind:
Aussen-T/F 3126 22-04-2019 13:00:00 22.65 C 5.99 g/m*3 22.65 C 14.36667 km/h
3127 22-04-2019 14:00:00 23.45 C 6.13 g/m*3 23.45 C 15.3 km/h
3128 22-04-2019 15:00:00 24.375 C 6.32 g/m*3 24.38 C 15.03333 km/h
3129 22-04-2019 16:00:00 25.49167 C 6.11 g/m*3 25.49 C 15.83333 km/h
3130 22-04-2019 17:00:00 25.70833 C 5.93 g/m*3 25.71 C 12.9 km/h
3131 22-04-2019 18:00:00 24.4 C 6.25 g/m*3 24.4 C 4.55833 km/h
3132 22-04-2019 19:00:00 21.4 C 7.8 g/m*3 21.4 C 2 km/h
3133 22-04-2019 20:00:00 19.55 C 7.24 g/m*3 19.55 C 5.50833 km/h
3134 22-04-2019 21:00:00 16.975 C 7.06 g/m*3 16.98 C 3.46667 km/h
3135 22-04-2019 22:00:00 15.15 C 6.63 g/m*3 15.15 C 3.74167 km/h
3136 22-04-2019 23:00:00 15.04167 C 6.34 g/m*3 15.04 C 5.36667 km/h
3137 23-04-2019 00:00:00 13.175 C 6.4 g/m*3 13.18 C 2.13333 km/h
3138 23-04-2019 01:00:00 11.55 C 6.45 g/m*3 11.55 C 0.53333 km/h
3139 23-04-2019 02:00:00 10.31667 C 6.42 g/m*3 10.32 C 0.66667 km/h
3140 23-04-2019 03:00:00 9.7 C 6.31 g/m*3 9.7 C 0 km/h
3141 23-04-2019 04:00:00 9.15833 C 6.39 g/m*3 9.16 C 0 km/h
3142 23-04-2019 05:00:00 8.83333 C 6.38 g/m*3 8.83 C 0 km/h
3143 23-04-2019 06:00:00 8.31667 C 6.41 g/m*3 8.32 C 0 km/h
3144 23-04-2019 07:00:00 8.99167 C 6.81 g/m*3 8.99 C 0 km/h
3145 23-04-2019 08:00:00 10.325 C 7.31 g/m*3 10.33 C 0 km/h
3146 23-04-2019 09:00:00 12.53333 C 7.04 g/m*3 12.53 C 7.94167 km/h
3147 23-04-2019 10:00:00 14.025 C 7.28 g/m*3 14.03 C 9.95833 km/h
3148 23-04-2019 11:00:00 15.475 C 7.58 g/m*3 15.48 C 12.76667 km/h
3149 23-04-2019 12:00:00 17.04167 C 8.01 g/m*3 17.04 C 11.56667 km/h
3150 23-04-2019 13:00:00 18.89167 C 8.29 g/m*3 18.89 C 14.36667 km/h
Sensor: Nr: